[[{"header":{"parameterUnit":"m.s-1","parameterCategory":1,"la1":30.6,"la2":29.2853,"lo1":-89.7004,"lo2":-87.6739,"dy":0.0162,"dx":0.0183,"nx":112,"ny":82,"refTime":"2023-03-06T06:00:00:Z","depth":0,"parameterNumber":2,"parameterNumberName":"U-component_of_WINDS"},"data":[0.0,0.0,0.0,0.0,0.0,0.0,0.0,0.0,0.0,0.0,0.0,0.0,0.0,0.0,0.0,0.0,0.0,0.0,0.0,0.0,0.0,0.0,0.0,0.0,0.0,0.0,0.0,0.0,0.0,0.0,0.0,0.0,0.0,0.0,0.0,0.0,0.0,0.0,0.0,0.0,0.0,0.0,0.0,0.0,0.0,0.0,0.0,0.0,0.0,0.0,0.0,0.0,0.0,0.0,0.0,0.0,0.0,0.0,0.0,0.0,0.0,0.0,0.0,0.0,0.0,0.0,0.0,0.0,0.0,0.0,0.0,0.0,0.0,0.0,0.0,0.0,0.0,0.0,0.0,0.0,0.0,0.0,0.0,0.0,0.0,0.0,0.0,0.0,0.0,0.0,-2.707,-2.769,-2.7596,-2.7527,-2.7703,-2.7078,-2.6222,-2.507,0.0,0.0,0.0,0.0,0.0,0.0,0.0,0.0,0.0,0.0,0.0,0.0,0.0,0.0,0.0,0.0,0.0,0.0,0.0,0.0,0.0,0.0,0.0,0.0,0.0,0.0,0.0,0.0,0.0,0.0,0.0,0.0,0.0,0.0,0.0,0.0,0.0,0.0,0.0,0.0,0.0,0.0,0.0,0.0,0.0,0.0,0.0,0.0,0.0,0.0,0.0,0.0,0.0,0.0,0.0,0.0,0.0,0.0,0.0,0.0,0.0,0.0,0.0,0.0,0.0,0.0,0.0,0.0,0.0,0.0,0.0,0.0,0.0,0.0,0.0,0.0,0.0,0.0,0.0,0.0,0.0,0.0,0.0,0.0,0.0,0.0,0.0,0.0,0.0,0.0,0.0,0.0,0.0,0.0,0.0,0.0,0.0,0.0,0.0,0.0,0.0,0.0,0.0,0.0,-2.7736,-2.8396,-2.7477,-2.7074,-2.7641,-2.7078,-2.6222,-2.507,0.0,0.0,0.0,0.0,0.0,0.0,0.0,0.0,0.0,0.0,0.0,0.0,0.0,0.0,0.0,0.0,0.0,0.0,0.0,0.0,0.0,0.0,0.0,0.0,0.0,0.0,0.0,0.0,0.0,0.0,0.0,0.0,0.0,0.0,0.0,0.0,0.0,0.0,0.0,0.0,0.0,0.0,0.0,0.0,0.0,0.0,0.0,0.0,0.0,0.0,0.0,0.0,0.0,0.0,0.0,0.0,0.0,0.0,0.0,0.0,0.0,0.0,0.0,0.0,0.0,0.0,0.0,0.0,0.0,0.0,0.0,0.0,0.0,0.0,0.0,0.0,0.0,0.0,0.0,0.0,0.0,0.0,0.0,0.0,0.0,0.0,0.0,0.0,0.0,0.0,0.0,0.0,0.0,0.0,0.0,0.0,0.0,0.0,0.0,0.0,0.0,0.0,0.0,-2.7709,-2.8129,-2.8042,-2.7582,-2.7226,-2.7149,-2.6321,-2.5555,-2.5031,-2.4704,0.0,0.0,0.0,0.0,0.0,0.0,0.0,0.0,0.0,0.0,0.0,0.0,0.0,0.0,0.0,0.0,0.0,0.0,0.0,0.0,0.0,0.0,0.0,0.0,0.0,0.0,0.0,0.0,0.0,0.0,0.0,0.0,0.0,0.0,0.0,0.0,0.0,0.0,0.0,0.0,0.0,0.0,0.0,0.0,0.0,0.0,0.0,0.0,0.0,0.0,0.0,0.0,0.0,0.0,0.0,0.0,0.0,0.0,0.0,0.0,0.0,0.0,0.0,0.0,0.0,0.0,0.0,0.0,0.0,0.0,0.0,0.0,0.0,0.0,0.0,0.0,0.0,0.0,0.0,0.0,0.0,0.0,0.0,0.0,0.0,0.0,0.0,0.0,0.0,0.0,0.0,0.0,0.0,0.0,0.0,0.0,0.0,0.0,0.0,0.0,0.0,0.0,-2.7498,-2.7808,-2.7426,-2.7184,-2.6866,-2.6324,-2.5514,-2.494,-2.4809,-2.436,0.0,0.0,0.0,0.0,0.0,0.0,0.0,0.0,0.0,0.0,0.0,0.0,0.0,0.0,0.0,0.0,0.0,0.0,0.0,0.0,0.0,0.0,0.0,0.0,0.0,0.0,0.0,0.0,0.0,0.0,0.0,0.0,0.0,0.0,0.0,0.0,0.0,0.0,0.0,0.0,0.0,0.0,0.0,0.0,0.0,0.0,0.0,0.0,0.0,0.0,0.0,0.0,0.0,0.0,0.0,0.0,0.0,0.0,0.0,0.0,0.0,0.0,0.0,0.0,0.0,0.0,0.0,0.0,0.0,0.0,0.0,0.0,0.0,0.0,0.0,0.0,0.0,0.0,0.0,0.0,0.0,0.0,0.0,0.0,0.0,0.0,0.0,0.0,0.0,0.0,0.0,0.0,0.0,0.0,0.0,0.0,0.0,0.0,0.0,0.0,0.0,0.0,-2.6629,-2.619,-2.6712,-2.5818,-2.5165,-2.5118,-2.5048,-2.4769,-2.4217,-2.4109,0.0,0.0,0.0,0.0,0.0,0.0,0.0,0.0,0.0,0.0,0.0,0.0,0.0,0.0,0.0,0.0,0.0,0.0,0.0,0.0,0.0,0.0,0.0,0.0,0.0,0.0,0.0,0.0,0.0,0.0,0.0,0.0,0.0,0.0,0.0,0.0,0.0,0.0,0.0,0.0,0.0,0.0,0.0,0.0,0.0,0.0,0.0,0.0,0.0,0.0,0.0,0.0,0.0,0.0,0.0,0.0,0.0,0.0,0.0,0.0,0.0,0.0,0.0,0.0,0.0,0.0,0.0,0.0,0.0,0.0,0.0,0.0,0.0,0.0,0.0,0.0,0.0,0.0,0.0,0.0,0.0,0.0,0.0,0.0,0.0,0.0,0.0,0.0,0.0,0.0,0.0,0.0,0.0,0.0,0.0,0.0,0.0,0.0,0.0,0.0,0.0,0.0,-2.8191,-2.81,-2.791,-2.7551,-2.6958,-2.6123,-2.5713,-2.5262,-2.4717,0.0,0.0,0.0,0.0,0.0,0.0,0.0,0.0,0.0,0.0,0.0,0.0,0.0,0.0,0.0,0.0,0.0,0.0,0.0,0.0,0.0,0.0,0.0,0.0,0.0,0.0,0.0,0.0,0.0,0.0,0.0,0.0,0.0,0.0,0.0,0.0,0.0,0.0,0.0,0.0,0.0,0.0,0.0,0.0,0.0,0.0,0.0,0.0,0.0,0.0,0.0,0.0,0.0,0.0,0.0,0.0,0.0,0.0,0.0,0.0,0.0,0.0,0.0,0.0,0.0,0.0,0.0,0.0,0.0,0.0,0.0,0.0,0.0,0.0,0.0,0.0,0.0,0.0,0.0,0.0,0.0,0.0,0.0,0.0,0.0,0.0,0.0,0.0,0.0,0.0,0.0,0.0,0.0,0.0,0.0,0.0,0.0,0.0,0.0,0.0,0.0,0.0,-2.8506,-2.8655,-2.8604,-2.8324,-2.7989,-2.74,-2.6474,-2.6029,-2.5654,-2.5262,0.0,0.0,0.0,0.0,0.0,0.0,0.0,0.0,0.0,0.0,0.0,0.0,0.0,0.0,0.0,0.0,0.0,0.0,0.0,0.0,0.0,0.0,0.0,0.0,0.0,0.0,0.0,0.0,0.0,0.0,0.0,0.0,0.0,0.0,0.0,0.0,0.0,0.0,0.0,0.0,0.0,0.0,0.0,0.0,0.0,0.0,0.0,0.0,0.0,0.0,0.0,0.0,0.0,0.0,0.0,0.0,0.0,0.0,0.0,0.0,0.0,0.0,0.0,0.0,0.0,0.0,0.0,0.0,0.0,0.0,0.0,0.0,0.0,0.0,0.0,0.0,0.0,0.0,0.0,0.0,0.0,0.0,0.0,0.0,0.0,0.0,0.0,0.0,0.0,0.0,0.0,0.0,0.0,0.0,0.0,0.0,0.0,0.0,0.0,0.0,0.0,0.0,-2.8519,-2.7499,-2.6996,-2.7666,-2.6605,-2.5837,-2.5806,-2.5806,-2.5806,0.0,0.0,0.0,0.0,0.0,0.0,0.0,0.0,0.0,0.0,0.0,0.0,0.0,0.0,0.0,0.0,0.0,0.0,0.0,0.0,0.0,0.0,0.0,0.0,0.0,0.0,0.0,0.0,0.0,0.0,0.0,0.0,0.0,0.0,0.0,0.0,0.0,0.0,0.0,0.0,0.0,0.0,0.0,0.0,0.0,0.0,0.0,0.0,0.0,0.0,0.0,0.0,0.0,0.0,0.0,0.0,0.0,0.0,0.0,0.0,0.0,0.0,0.0,0.0,0.0,0.0,0.0,0.0,0.0,0.0,0.0,0.0,0.0,0.0,0.0,0.0,0.0,0.0,0.0,0.0,0.0,0.0,0.0,0.0,0.0,0.0,0.0,0.0,0.0,0.0,0.0,0.0,0.0,0.0,0.0,0.0,0.0,0.0,0.0,0.0,0.0,0.0,0.0,-2.9228,-2.894,-2.8752,-2.8951,-2.8207,-2.752,-2.7027,-2.6994,-2.6857,-2.6452,0.0,0.0,0.0,0.0,0.0,0.0,0.0,0.0,0.0,0.0,0.0,0.0,0.0,0.0,0.0,0.0,0.0,0.0,0.0,0.0,0.0,0.0,0.0,0.0,0.0,0.0,0.0,0.0,0.0,0.0,0.0,0.0,0.0,0.0,0.0,0.0,0.0,0.0,0.0,0.0,0.0,0.0,0.0,0.0,0.0,0.0,0.0,0.0,0.0,0.0,0.0,0.0,0.0,0.0,0.0,0.0,0.0,0.0,0.0,0.0,0.0,0.0,0.0,0.0,0.0,0.0,0.0,0.0,0.0,0.0,0.0,0.0,0.0,0.0,0.0,0.0,0.0,0.0,0.0,0.0,0.0,0.0,0.0,0.0,0.0,0.0,0.0,0.0,0.0,0.0,0.0,0.0,0.0,0.0,0.0,0.0,0.0,0.0,0.0,0.0,0.0,0.0,-2.9517,-2.9303,-2.9192,-2.9465,-2.8648,-2.7941,-2.7523,-2.749,-2.7346,-2.704,0.0,0.0,0.0,0.0,0.0,0.0,0.0,0.0,0.0,0.0,0.0,0.0,0.0,0.0,0.0,0.0,0.0,0.0,0.0,0.0,0.0,0.0,0.0,0.0,0.0,0.0,0.0,0.0,0.0,0.0,0.0,0.0,0.0,0.0,0.0,0.0,0.0,0.0,0.0,0.0,0.0,0.0,0.0,0.0,0.0,0.0,0.0,0.0,0.0,0.0,0.0,0.0,0.0,0.0,0.0,0.0,0.0,0.0,0.0,0.0,0.0,0.0,0.0,0.0,0.0,0.0,0.0,0.0,0.0,0.0,0.0,0.0,0.0,0.0,0.0,0.0,0.0,0.0,0.0,0.0,0.0,0.0,0.0,0.0,0.0,0.0,0.0,0.0,0.0,0.0,0.0,0.0,0.0,0.0,0.0,0.0,0.0,0.0,0.0,0.0,0.0,0.0,-2.9579,-2.9059,-2.8825,-2.9448,-2.8306,-2.749,-2.749,-2.749,-2.749,-2.749,0.0,0.0,0.0,0.0,0.0,0.0,0.0,0.0,0.0,0.0,0.0,0.0,0.0,0.0,0.0,0.0,0.0,0.0,0.0,0.0,0.0,0.0,0.0,0.0,0.0,0.0,0.0,0.0,0.0,0.0,0.0,0.0,0.0,0.0,0.0,0.0,0.0,0.0,0.0,0.0,0.0,0.0,0.0,0.0,0.0,0.0,0.0,0.0,0.0,0.0,0.0,0.0,0.0,0.0,0.0,0.0,0.0,0.0,0.0,0.0,-3.1376,-3.119,0.0,0.0,0.0,0.0,0.0,0.0,0.0,0.0,0.0,0.0,0.0,0.0,0.0,0.0,0.0,0.0,0.0,0.0,0.0,0.0,0.0,0.0,0.0,0.0,0.0,0.0,0.0,0.0,0.0,0.0,0.0,0.0,0.0,0.0,0.0,0.0,0.0,0.0,0.0,0.0,-3.0223,-2.9723,-2.9333,-2.949,-2.8306,-2.749,-2.749,-2.749,-2.749,-2.749,-2.6987,0.0,0.0,0.0,0.0,0.0,0.0,0.0,0.0,0.0,0.0,0.0,0.0,0.0,0.0,0.0,0.0,0.0,0.0,0.0,0.0,0.0,0.0,0.0,0.0,0.0,0.0,0.0,0.0,0.0,0.0,0.0,0.0,0.0,0.0,0.0,0.0,0.0,0.0,0.0,0.0,0.0,0.0,0.0,0.0,0.0,0.0,0.0,0.0,0.0,0.0,0.0,0.0,0.0,0.0,0.0,0.0,0.0,0.0,0.0,-3.2425,-3.2256,0.0,0.0,0.0,0.0,0.0,0.0,0.0,0.0,0.0,0.0,0.0,0.0,0.0,0.0,0.0,0.0,0.0,0.0,0.0,0.0,0.0,0.0,0.0,0.0,0.0,0.0,0.0,0.0,0.0,0.0,0.0,0.0,0.0,0.0,0.0,0.0,0.0,0.0,0.0,0.0,-3.0462,-3.0206,-2.9858,-2.9535,-2.8583,-2.7842,-2.7523,-2.749,-2.749,-2.749,-2.7249,0.0,0.0,0.0,0.0,0.0,0.0,0.0,0.0,0.0,0.0,0.0,0.0,0.0,0.0,0.0,0.0,0.0,0.0,0.0,0.0,0.0,0.0,0.0,0.0,0.0,0.0,0.0,0.0,0.0,0.0,0.0,0.0,0.0,0.0,0.0,0.0,0.0,0.0,0.0,0.0,0.0,0.0,0.0,0.0,0.0,0.0,0.0,0.0,0.0,0.0,0.0,0.0,0.0,-3.3726,-3.3998,-3.3998,-3.4134,-3.4184,-3.4184,-3.4049,-3.3778,-3.3355,-3.273,0.0,0.0,0.0,0.0,0.0,0.0,0.0,0.0,0.0,0.0,0.0,0.0,0.0,0.0,0.0,0.0,0.0,0.0,0.0,0.0,0.0,0.0,-3.1001,-3.154,-3.1765,-3.1555,-3.0507,0.0,0.0,0.0,0.0,0.0,0.0,0.0,0.0,0.0,0.0,0.0,-3.0821,-3.0749,-3.047,-2.989,-2.9123,-2.8416,-2.77,-2.7555,-2.749,-2.749,-2.749,-2.749,0.0,0.0,0.0,0.0,0.0,0.0,0.0,0.0,0.0,0.0,0.0,0.0,0.0,0.0,0.0,0.0,0.0,0.0,0.0,0.0,0.0,0.0,0.0,0.0,0.0,0.0,0.0,0.0,0.0,0.0,0.0,0.0,-3.4501,-3.4641,0.0,0.0,0.0,0.0,0.0,0.0,0.0,0.0,0.0,0.0,0.0,0.0,0.0,-3.4172,-3.4552,-3.4727,-3.4648,-3.4304,-3.5701,-3.6355,-3.6372,-3.7009,-3.7313,-3.728,-3.662,0.0,-3.3406,-3.3305,0.0,0.0,0.0,0.0,0.0,0.0,0.0,0.0,0.0,0.0,0.0,0.0,0.0,0.0,0.0,0.0,0.0,0.0,0.0,0.0,0.0,0.0,-3.2243,-3.2333,-3.2826,-3.3185,-3.3021,-3.2078,-3.1256,-3.1256,-3.0791,-3.0372,0.0,0.0,0.0,0.0,0.0,0.0,-3.2108,-3.1749,-3.1305,-3.119,-3.0069,-2.9087,-2.8337,-2.7811,-2.749,-2.749,-2.749,-2.749,-2.749,-2.7425,0.0,0.0,0.0,0.0,0.0,0.0,0.0,0.0,0.0,0.0,0.0,0.0,0.0,0.0,0.0,0.0,0.0,0.0,0.0,0.0,0.0,0.0,0.0,0.0,0.0,0.0,0.0,0.0,0.0,-3.4141,-3.4545,-3.4227,-3.455,-3.467,0.0,0.0,0.0,0.0,0.0,0.0,0.0,0.0,0.0,-3.5878,-3.535,-3.511,-3.5208,-3.5762,-3.5975,-3.5814,-3.6891,-3.7415,-3.7432,-3.7753,-3.7905,-3.7889,-3.755,-3.6857,-3.5842,-3.4556,-3.4015,-3.3981,0.0,0.0,0.0,0.0,-3.3191,-3.3234,-3.2479,-3.1832,-3.1338,-3.1127,0.0,0.0,0.0,0.0,0.0,0.0,0.0,-3.1899,-3.1227,-3.2063,-3.2976,-3.2602,-3.3021,-3.3499,-3.3499,-3.3036,-3.2497,-3.2123,-3.2138,-3.1943,-3.1182,-3.1465,0.0,0.0,0.0,-3.2407,-3.2991,-3.2807,-3.248,-3.2062,-3.1134,-3.0452,-3.0166,-2.9137,-2.8697,-2.9113,-2.8731,-2.8516,-2.8516,-2.8516,-2.8516,0.0,0.0,0.0,0.0,0.0,0.0,0.0,0.0,0.0,0.0,0.0,0.0,0.0,0.0,0.0,0.0,0.0,0.0,0.0,0.0,0.0,0.0,0.0,0.0,0.0,0.0,0.0,0.0,-3.4367,-3.4739,-3.4087,-3.467,-3.4834,0.0,0.0,0.0,0.0,0.0,0.0,-3.5705,-3.6088,-3.6515,-3.7002,-3.6712,-3.6534,-3.6527,-3.72,-3.7471,-3.7371,-3.8108,-3.8464,-3.8464,-3.8464,-3.8464,-3.8447,-3.8261,-3.8176,-3.8041,-3.6146,-3.525,-3.5013,-3.4472,-3.4489,-3.4705,-3.411,-3.4218,-3.4479,-3.3349,-3.2934,-3.2808,-3.2193,-3.2004,-3.1944,-3.16,0.0,0.0,0.0,0.0,-3.2647,-3.2123,-3.2886,-3.3619,-3.3125,-3.3514,-3.4008,-3.4008,-3.4008,-3.3754,-3.2931,-3.3155,-3.3185,-3.2168,-3.2841,0.0,0.0,0.0,-3.3559,-3.3724,-3.3739,-3.3535,-3.3019,-3.2352,-3.1891,-3.1725,-3.0418,-2.9832,-3.0378,-2.9706,-2.931,-2.931,-2.931,-2.931,-2.931,0.0,0.0,0.0,0.0,0.0,0.0,0.0,0.0,0.0,0.0,0.0,0.0,0.0,0.0,0.0,0.0,0.0,0.0,0.0,0.0,0.0,0.0,0.0,0.0,0.0,0.0,0.0,0.0,0.0,-3.491,-3.5491,0.0,0.0,0.0,0.0,-3.4828,-3.5691,-3.6816,-3.8148,-3.7528,-3.8087,-4.0203,-3.9155,-3.8702,-3.9035,-3.9383,-3.9316,-3.8886,-3.9656,-3.9994,-3.9994,-3.9994,-3.9994,-3.996,-3.9242,-3.8937,-3.887,-3.8075,-3.7313,-3.6677,-3.6643,-3.618,-3.5503,-3.5152,-3.4914,-3.4696,-3.4149,-3.3864,-3.3698,-3.3456,-3.3395,-3.3155,-3.1884,-3.2378,0.0,0.0,-3.2946,-3.344,-3.341,-3.3903,-3.4444,-3.4414,-3.4906,-3.54,-3.54,-3.54,-3.5011,-3.3694,-3.3469,-3.3469,-3.341,0.0,-3.3484,-3.344,-3.3469,-3.3724,-3.4384,-3.4459,-3.4382,-3.422,-3.3703,-3.3124,-3.2393,-3.1116,-3.0344,-3.0412,-2.9706,-2.931,-2.931,-2.931,-2.931,-2.931,-2.9284,0.0,0.0,0.0,0.0,0.0,0.0,0.0,0.0,0.0,0.0,0.0,0.0,0.0,0.0,0.0,0.0,0.0,0.0,0.0,0.0,0.0,0.0,0.0,0.0,0.0,0.0,0.0,0.0,-3.6339,-3.6185,0.0,-3.6427,-3.6534,-3.6567,-3.6509,-3.7772,-3.8729,-3.9146,-3.9402,-3.9944,-4.092,-4.0517,-4.0437,-4.0678,-4.0801,-4.0602,-4.0162,-4.0419,-4.0402,-4.0096,-4.0096,-4.0096,-4.0096,-3.9825,-3.9723,-3.9706,-3.9436,-3.8599,-3.7499,-3.7499,-3.733,-3.6969,-3.5974,-3.5514,-3.5222,-3.4219,-3.3758,-3.3591,-3.353,-3.3499,-3.341,-3.2946,-3.3125,-3.344,-3.3215,-3.3619,-3.4023,-3.3604,-3.4322,-3.5026,-3.4608,-3.4996,-3.5504,-3.5504,-3.5504,-3.537,-3.4876,-3.4786,-3.4517,-3.3649,-3.4218,-3.4637,-3.4219,-3.4502,-3.4876,-3.51,-3.513,-3.5123,-3.507,-3.4453,-3.3926,-3.3643,-3.2319,-3.1485,-3.1485,-3.0821,-3.0372,-3.0372,-3.0372,-3.0372,-3.0372,-3.0019,-2.9823,0.0,0.0,0.0,0.0,0.0,0.0,0.0,0.0,0.0,0.0,0.0,0.0,0.0,0.0,0.0,0.0,0.0,0.0,0.0,0.0,0.0,0.0,0.0,0.0,0.0,0.0,-3.6015,-3.7499,-3.738,-3.7309,-3.7643,-3.8028,-3.8349,-3.8596,-3.9587,-4.0361,-4.0788,-4.1046,-4.1361,-4.1748,-4.1784,-4.1743,-4.1743,-4.1739,-4.1499,-4.1042,-4.0873,-4.0652,-4.0328,-4.0171,-4.0096,-4.0096,-4.0096,-4.0096,-4.0096,-4.0096,-3.9512,-3.8616,-3.8379,-3.8125,-3.7802,-3.696,-3.6577,-3.634,-3.5236,-3.4561,-3.4143,-3.3903,-3.3978,-3.4083,-3.3634,-3.3814,-3.4128,-3.3888,-3.4307,-3.4726,-3.4292,-3.4831,-3.5385,-3.4936,-3.5175,-3.5504,-3.5504,-3.5504,-3.5504,-3.5504,-3.5504,-3.522,-3.4322,-3.4921,-3.5355,-3.4891,-3.522,-3.5504,-3.5504,-3.5504,-3.5504,-3.5504,-3.5019,-3.461,-3.4312,-3.3408,-3.2635,-3.211,-3.164,-3.1259,-3.1024,-3.0986,-3.0986,-3.0986,-3.062,-3.0388,-3.0388,0.0,0.0,0.0,0.0,0.0,0.0,0.0,0.0,0.0,0.0,0.0,0.0,0.0,0.0,0.0,0.0,0.0,0.0,0.0,0.0,0.0,0.0,0.0,-3.6058,-3.6674,-3.7477,-3.8441,-3.9193,-3.934,-3.8656,-3.9358,-4.0211,-4.1049,-4.1088,-4.1714,-4.3196,-4.245,-4.2268,-4.2919,-4.2919,-4.2692,-4.2236,-4.2218,-4.1973,-4.1481,-4.1042,-4.0802,-4.0754,-4.0303,-4.0096,-4.0096,-4.0096,-4.0096,-4.0096,-4.0096,-4.0096,-4.0028,-3.9292,-3.8599,-3.7986,-3.8102,-3.8103,-3.7949,-3.7146,-3.6258,-3.5385,-3.4726,-3.4966,-3.5265,-3.3963,-3.4472,-3.537,-3.4728,-3.4996,-3.5504,-3.5504,-3.5504,-3.5504,-3.5504,-3.5504,-3.5504,-3.5504,-3.5504,-3.5504,-3.5504,-3.5504,-3.5504,-3.5504,-3.5504,-3.5504,-3.5504,-3.5504,0.0,-3.5504,-3.5504,-3.5504,-3.5504,-3.5504,-3.5166,-3.4346,-3.4279,-3.365,-3.2146,-3.2087,-3.1736,-3.1024,-3.0986,-3.0986,-3.0986,-3.0986,-3.0986,-3.0986,0.0,0.0,0.0,0.0,0.0,0.0,0.0,0.0,0.0,0.0,0.0,0.0,0.0,0.0,0.0,0.0,0.0,0.0,0.0,0.0,0.0,0.0,-3.698,-3.7656,-3.8764,-4.0127,-4.1684,-4.2049,-4.234,-4.2704,-4.3049,-4.3358,-4.3577,-4.4126,-4.4638,-4.5059,-4.4345,-4.3944,-4.3998,-4.3415,-4.2994,-4.2711,-4.2711,-4.23,-4.1503,-4.137,-4.0932,-4.0279,-4.0171,-4.0096,-4.0096,-4.0096,-4.0096,-4.0096,-4.0096,-4.0096,-4.0079,-3.9893,-3.9673,-3.9446,-3.9051,-3.8181,-3.7114,-3.6307,-3.5814,-3.5474,-3.528,-3.5355,-3.5429,-3.507,-3.522,-3.5474,-3.528,-3.5355,-3.5504,-3.5504,-3.5504,-3.5504,-3.5504,-3.5504,-3.5504,-3.5504,-3.5504,-3.5504,-3.5504,-3.5504,-3.5504,-3.5504,-3.5504,-3.5504,-3.5504,-3.5504,0.0,-3.5504,-3.5504,-3.5504,-3.5504,-3.5504,-3.4968,-3.363,-3.3492,-3.2861,-3.1394,-3.1296,-3.1222,-3.1024,-3.0986,-3.0986,-3.0986,-3.0986,-3.0986,0.0,0.0,0.0,0.0,0.0,0.0,0.0,0.0,0.0,0.0,0.0,0.0,0.0,0.0,0.0,0.0,0.0,0.0,0.0,0.0,0.0,0.0,-3.833,-3.9522,-4.0735,-4.1014,-4.1851,-4.3924,-4.4105,-4.4306,-4.4855,-4.4966,-4.5168,-4.5589,-4.5736,-4.5918,-4.621,-4.515,-4.4601,-4.4778,-4.3996,-4.3521,-4.3389,-4.3389,-4.2958,-4.2077,-4.1678,-4.1213,-4.0666,-4.0279,-4.0096,-4.0096,-4.0096,-4.0096,-4.0096,-4.0096,-4.0096,-4.0096,0.0,0.0,0.0,0.0,-3.864,-3.7279,-3.6753,-3.6149,-3.5572,-3.5537,-3.5504,-3.5504,-3.5504,-3.5504,-3.5504,-3.5504,-3.5504,-3.5504,-3.5504,-3.5504,-3.5504,-3.5504,-3.5504,-3.5504,-3.5504,-3.5504,-3.5504,-3.5504,-3.5504,0.0,-3.5504,-3.5504,-3.5504,-3.5504,-3.5504,-3.5504,-3.5504,-3.5504,-3.5504,-3.5504,-3.5213,-3.4524,-3.3297,-3.3178,0.0,0.0,0.0,-3.1334,-3.1024,-3.0986,0.0,0.0,0.0,-3.0986,-3.0986,-3.0911,0.0,0.0,-3.0227,-3.0037,0.0,0.0,0.0,0.0,0.0,0.0,0.0,0.0,0.0,0.0,0.0,0.0,0.0,0.0,0.0,0.0,-4.107,-4.2759,-4.4399,-4.3378,-4.325,-4.5377,-4.5645,-4.5682,-4.5839,-4.5878,-4.6244,-4.7033,-4.6449,-4.6301,-4.6896,-4.5434,0.0,0.0,0.0,-4.426,-4.424,-4.415,-4.3714,-4.2951,-4.2008,-4.1525,-4.1393,-4.0563,-4.0146,-4.0096,-4.0096,-4.0096,-4.0096,-4.0096,-4.0096,-4.0096,-4.0096,-4.0096,-4.0096,-4.002,-3.9183,-3.806,-3.7806,0.0,0.0,-3.5619,-3.5537,-3.5522,-3.5522,-3.5504,-3.5504,-3.5504,-3.5504,-3.5504,-3.5504,-3.5504,-3.5504,-3.5504,-3.5504,-3.5504,-3.5504,-3.5504,-3.5504,-3.5504,-3.5504,-3.5504,-3.5504,-3.5504,-3.5504,-3.5504,-3.5504,-3.5504,-3.5504,-3.5504,-3.5504,-3.5504,0.0,0.0,-3.3283,-3.3178,-3.2555,-3.1086,-3.1603,-3.1676,-3.1024,-3.0986,-3.0986,-3.0986,-3.0986,-3.0986,-3.0986,-3.0811,-3.0736,-3.0698,-3.0482,-3.0406,0.0,0.0,0.0,0.0,0.0,0.0,0.0,0.0,0.0,0.0,0.0,0.0,0.0,0.0,0.0,-4.0981,-4.2741,-4.4434,-4.5896,-4.5941,-4.602,-4.6494,-4.7173,-4.7614,-4.7536,-4.7633,-4.7726,-4.7795,-4.7667,-4.7607,-4.7668,-4.6819,-4.6364,-4.6446,-4.5665,-4.519,-4.5073,-4.4421,-4.383,-4.3286,-4.246,0.0,-4.0926,-4.0754,-4.0458,-4.0096,-4.0096,-4.0096,-4.0096,-4.0096,-4.0096,-4.0096,-4.0096,-4.0096,-4.0045,-3.9549,-3.9119,-3.8564,-3.7573,-3.6981,-3.6569,-3.6053,-3.5782,-3.5671,-3.5671,-3.5604,0.0,-3.5504,-3.5504,-3.5504,-3.5504,-3.5504,-3.5504,-3.5504,-3.5504,-3.5504,-3.5504,-3.5504,-3.5504,-3.5504,-3.5504,-3.5504,-3.5504,-3.5504,-3.5504,-3.5504,-3.5504,-3.5504,-3.5504,-3.5504,-3.5504,-3.5504,-3.5359,-3.4706,-3.3332,-3.3178,-3.2555,-3.1086,-3.1123,-3.1161,-3.1024,-3.0986,-3.0986,-3.0986,-3.0986,-3.0986,-3.0986,-3.0949,-3.0836,-3.0698,-3.0482,-3.0406,0.0,0.0,0.0,0.0,0.0,0.0,0.0,0.0,0.0,0.0,0.0,-3.6777,0.0,0.0,-4.1288,-4.3284,-4.4705,-4.5944,-4.7084,-4.7348,-4.7408,-4.7408,-4.7733,-4.7949,-4.7992,-4.8028,-4.8026,-4.7947,-4.799,-4.797,-4.7902,-4.7161,-4.6886,-4.7202,-4.6422,-4.5967,-4.5906,-4.549,-4.4991,-4.4335,-4.3716,-4.3162,-4.268,-4.1805,-4.1267,-4.1022,-4.0391,-4.0096,-4.0096,-4.0096,-4.0096,-4.0096,-4.0096,-4.0096,-4.0045,-3.9747,-3.9401,-3.8941,-3.8246,-3.7573,-3.692,-3.6446,-3.6023,-3.5688,-3.5621,-3.5539,-3.5504,-3.5504,-3.5504,-3.5504,-3.5504,-3.5504,-3.5504,-3.5504,-3.5504,-3.5504,-3.5504,-3.5504,-3.5504,-3.5504,-3.5504,-3.5504,-3.5504,-3.5504,-3.5504,-3.5504,-3.5504,-3.5504,-3.5504,-3.5504,-3.5504,-3.5504,-3.482,-3.4172,-3.3768,-3.3073,-3.216,-3.1061,-3.0986,-3.0986,-3.0986,-3.0986,-3.0986,-3.0986,-3.0986,-3.0986,-3.0986,-3.0986,-3.0949,-3.0849,-3.0761,-3.0634,0.0,0.0,0.0,0.0,0.0,0.0,0.0,0.0,-3.6483,-3.7214,-3.8056,-3.9166,-4.0669,-4.1851,-4.3286,-4.5376,-4.6413,-4.7199,-4.7879,-4.799,-4.799,-4.799,-4.7886,-4.7845,-4.7992,-4.7947,-4.7922,-4.7881,-4.7947,-4.7947,-4.7861,-4.7243,-4.713,-4.7681,-4.7083,-4.6739,-4.6739,-4.6576,-4.6178,-4.5526,-4.4836,-4.4464,-4.4321,-4.266,-4.186,-4.1705,-4.0601,-4.0096,-4.0096,-4.0096,-4.0096,-4.0096,-4.0096,-4.0096,-4.0096,-4.0096,-3.9799,-3.9339,-3.9049,-3.8246,-3.7265,-3.6828,-3.6275,-3.5735,-3.5572,-3.5537,-3.5504,-3.5504,-3.5504,-3.5504,-3.5504,-3.5504,-3.5504,-3.5504,-3.5504,-3.5504,-3.5504,-3.5504,-3.5504,-3.5504,-3.5504,-3.5549,-3.5669,-3.5699,-3.5654,-3.5534,-3.5504,-3.5504,-3.5504,-3.5504,-3.5504,-3.5504,-3.439,-3.3817,-3.4279,-3.3094,-3.1978,-3.1259,-3.1222,-3.1161,-3.1024,-3.0986,-3.0986,-3.0986,-3.0986,-3.0986,-3.0986,-3.0949,-3.0949,-3.0949,-3.0911,-3.0836,-3.4847,-3.4216,-3.4381,-3.5381,-3.5693,-3.6129,0.0,0.0,-3.8067,-3.8221,-3.941,-4.0706,-4.1596,-4.3595,-4.5412,-4.6412,-4.7292,-4.7879,-4.7904,-4.7922,-4.7922,-4.7922,-4.8046,-4.8108,-4.8012,-4.7992,-4.7949,-4.7902,-4.7902,-4.7861,-4.7738,-4.7627,-4.7609,-4.7717,-4.7627,-4.7572,-4.7572,-4.6866,-4.645,-4.6359,-4.4871,-4.3946,-4.35,-4.215,-4.1347,-4.0899,-4.0337,-4.0096,-4.0096,-4.0096,-4.0096,-4.0096,-4.0096,-4.0096,-4.0096,-4.0096,-4.0045,-3.9918,-3.9365,-3.8739,-3.8051,-3.7294,-3.6554,-3.5941,-3.5735,-3.5589,-3.5504,-3.5504,-3.5504,-3.5504,-3.5504,-3.5504,-3.5504,-3.5504,-3.5504,-3.5504,-3.5504,-3.5504,-3.5504,-3.5504,-3.5504,-3.5684,-3.6282,-3.6372,-3.6178,-3.5594,-3.5504,-3.5504,-3.5504,-3.5504,-3.5504,-3.5504,-3.5359,-3.5001,-3.4346,-3.3561,-3.2755,-3.2015,-3.1978,-3.1663,-3.1024,-3.0986,-3.0986,-3.0986,-3.0986,-3.0986,-3.0986,-3.0811,-3.0736,-3.0736,-3.0571,-3.0634,-3.5735,-3.5683,-3.6186,0.0,-3.7101,-3.8435,-3.9515,-4.0117,-4.0719,-4.1683,-4.2741,-4.3741,-4.4598,-4.5542,-4.6468,0.0,-4.8111,-4.8473,-4.7975,-4.7881,-4.7738,-4.7266,-4.6855,-4.6968,-4.7875,-4.7866,-4.7824,-4.778,-4.778,-4.7759,-4.7699,-4.7717,-4.7717,-4.7717,-4.7717,-4.7717,-4.7717,-4.7373,-4.721,-4.7192,-4.6522,-4.6076,-4.5852,-4.4585,-4.3095,-4.144,-4.0508,-4.0096,-4.0096,-4.0096,-4.0096,-4.0096,-4.0096,-4.0096,-4.0096,-4.0096,-4.0096,-4.0045,-3.9799,-3.9092,-3.8222,-3.7761,-3.6874,-3.5973,-3.5752,-3.5604,-3.5504,-3.5504,-3.5504,-3.5504,-3.5504,-3.5504,-3.5609,-3.5983,-3.6073,-3.6178,-3.6537,-3.6611,-3.6611,-3.6611,-3.6611,-3.6701,-3.6985,-3.703,-3.6926,-3.6656,-3.6312,-3.6073,-3.6073,-3.5744,-3.5311,-3.4857,-3.5213,-3.5001,-3.3768,-3.3388,-3.2897,-3.2146,-3.1713,-3.1334,-3.1024,-3.0986,-3.0986,-3.0986,-3.0986,-3.0986,-3.0986,-3.1212,-3.1343,-3.1343,-3.163,-3.1591,-3.6411,0.0,0.0,-3.7433,-3.8949,-4.0653,-4.1624,-4.2465,-4.3323,-4.4273,-4.5075,-4.5711,-4.6115,-4.6532,-4.6984,-4.7572,-4.8334,-4.8639,-4.7997,-4.7722,-4.7357,-4.6775,-4.5956,-4.59,-4.7059,-4.7306,-4.7373,-4.7373,-4.7551,-4.7717,-4.7717,-4.7717,-4.7717,-4.7717,-4.7717,-4.7717,-4.7717,-4.7717,-4.7717,-4.7717,-4.7482,-4.7373,-4.7316,-4.5895,-4.3991,-4.1727,-4.0815,-4.0299,-4.013,-4.0333,-4.0417,-4.0417,-4.0417,-4.0417,-4.0383,-4.018,-4.0096,-4.0096,-4.0096,-3.9322,-3.8278,-3.806,-3.71,-3.5973,-3.5752,-3.5604,-3.5504,-3.5504,-3.5504,-3.5549,-3.5729,-3.5774,-3.5938,-3.6582,-3.6746,-3.6866,-3.7315,-3.7404,-3.7404,-3.7404,-3.7404,-3.7464,-3.7644,-3.7689,-3.7749,-3.7928,-3.7419,-3.6956,-3.6761,-3.6327,-3.574,-3.5003,-3.5252,-3.493,-3.361,-3.3318,-3.2897,-3.2146,-3.1603,-3.1222,-3.1024,-3.0986,-3.0986,-3.0986,-3.0986,-3.0986,-3.0986,-3.1472,-3.1642,-3.1512,-3.2032,-3.1902,0.0,0.0,-3.6915,-4.0063,-4.1387,-4.2375,-4.4089,-4.5114,-4.5498,-4.482,-4.5279,-4.5571,-4.4803,-4.5937,-4.6959,-4.6843,-4.7615,-4.8166,-4.803,-4.7254,-4.6739,-4.6702,-4.5896,-4.5327,0.0,-4.6087,-4.654,-4.654,-4.7265,-4.7717,-4.7717,-4.7717,-4.7717,-4.7717,-4.7717,-4.7717,-4.7717,-4.7717,-4.7717,-4.7678,-4.692,-4.654,-4.6463,-4.468,-4.2909,-4.123,-4.117,-4.0747,-4.0163,-4.0865,-4.117,-4.117,-4.117,-4.117,-4.1085,-4.0367,-4.0096,-4.0096,-4.0096,-3.9322,-3.8278,-3.806,-3.71,-3.5973,-3.5752,-3.5604,-3.5504,-3.5504,-3.5504,-3.5654,-3.6297,-3.6462,-3.6611,-3.724,-3.7375,-3.7389,-3.7404,-3.7404,-3.7404,-3.7404,-3.7404,-3.7614,-3.8257,-3.8362,-3.8586,-3.926,-3.8781,-3.8108,-3.7464,-3.736,-3.712,-3.6522,-3.5766,-3.5014,-3.4337,-3.363,-3.2897,-3.2146,-3.2074,-3.1736,-3.1024,-3.0986,-3.0986,-3.0986,-3.0986,-3.0986,-3.0986,-3.1344,-3.1228,-3.0737,-3.11,-3.0971,0.0,0.0,-4.0888,-4.2569,-4.38,-4.4876,-4.5993,-4.6048,-4.5938,-4.6195,-4.5571,-4.4931,-4.4656,-4.5041,-4.5571,-4.6064,-4.7289,-4.8126,-4.7966,-4.7686,-4.7082,-4.5912,-4.5021,0.0,0.0,0.0,0.0,-4.6468,-4.6757,-4.7156,-4.7681,-4.7717,-4.7717,-4.7717,-4.7717,-4.7717,-4.7717,-4.7717,-4.7717,-4.7678,-4.6884,-4.6504,-4.6409,-4.4117,-4.2742,-4.2129,-4.0957,-4.0595,-4.0798,-4.0561,-4.0747,-4.1153,-4.0646,-4.046,-4.0519,-4.073,-4.051,-4.0096,-4.0096,-3.9893,-3.9528,-3.8997,-3.8197,-3.7359,-3.6693,-3.6421,-3.628,-3.6181,-3.6447,-3.6821,-3.7045,-3.7105,-3.727,-3.7898,-3.8063,-3.8182,-3.8646,-3.8751,-3.8751,-3.8751,-3.8751,-3.8811,-3.9035,-3.9065,-3.9155,-3.9394,-3.8841,-3.8153,-3.7494,-3.7404,-3.7165,-3.6552,-3.5795,-3.5029,-3.437,-3.3164,-3.2362,-3.211,-3.164,-3.1259,-3.1024,-3.0986,-3.0986,-3.0986,-3.0986,-3.0986,-3.0986,-3.1472,-3.1811,-3.202,-3.2566,-3.2521,0.0,-4.1876,-4.3662,-4.4957,-4.5899,-4.6616,-4.7003,-4.6691,-4.6232,-4.5828,-4.4931,-4.4033,-4.3448,-4.3576,-4.4034,-4.4785,-4.6066,-4.7088,-4.7456,-4.6997,-4.645,-4.5858,-4.4785,-4.4005,0.0,0.0,0.0,-4.6015,-4.6613,-4.7156,-4.7681,-4.7717,-4.7717,-4.7717,-4.7717,-4.7717,-4.7717,-4.7717,-4.7717,-4.7678,-4.6884,-4.6403,-4.6143,-4.4045,-4.2835,-4.2347,-4.1049,-4.0595,-4.0781,-4.0578,-4.0764,-4.1187,-4.0967,-4.0891,-4.0942,-4.1407,-4.1288,-4.0891,-4.0891,-4.0627,-4.026,-4.0061,-3.9197,-3.812,-3.7778,-3.7212,-3.6706,-3.678,-3.7105,-3.7464,-3.7704,-3.7764,-3.7928,-3.8601,-3.8751,-3.8886,-3.9334,-3.9388,-3.9388,-3.9388,-3.9388,-3.9388,-3.9388,-3.9388,-3.9388,-3.9388,-3.9035,-3.8601,-3.8182,-3.8123,-3.7883,-3.724,-3.6472,-3.5635,-3.4671,-3.3284,-3.2339,-3.2021,-3.1538,-3.13,-3.13,-3.1483,-3.1601,-3.1601,-3.1601,-3.1601,-3.1601,-3.2176,-3.2542,-3.2712,-3.3219,-3.3213,-4.3099,-4.4228,-4.5181,-4.7215,-4.7659,-4.7505,-4.7206,-4.7021,-4.6269,-4.3956,-4.3404,-4.2837,0.0,0.0,-4.2472,-4.3175,-4.4143,-4.526,-4.6662,-4.5548,-4.5109,0.0,0.0,0.0,0.0,0.0,0.0,-4.5291,0.0,-4.7627,-4.7717,-4.7717,-4.7717,-4.7717,-4.7717,-4.7717,-4.7717,-4.7717,-4.7717,-4.7678,-4.6848,-4.6185,-4.5695,-4.4364,-4.3085,-4.1905,-4.1427,-4.0798,-4.0214,-4.0865,-4.117,-4.1271,-4.1965,-4.2236,-4.2236,-4.232,-4.232,-4.2303,-4.2388,-4.156,-4.0564,-4.1244,-4.0063,-3.851,-3.8905,-3.8046,-3.6938,-3.7353,-3.7479,-3.7659,-3.8287,-3.8437,-3.8601,-3.926,-3.9388,-3.9388,-3.9388,-3.9388,-3.9388,-3.9388,-3.9388,-3.9403,-3.9514,-3.9433,-3.9388,-3.9433,-3.9403,-3.9388,-3.9388,-3.9388,-3.9155,-3.8467,-3.7723,-3.6699,-3.5226,-3.3872,-3.2724,-3.1874,-3.1797,-3.1797,-3.1797,-3.2385,-3.2685,-3.2685,-3.2685,-3.2685,-3.2685,-3.326,-3.326,-3.2751,-3.3057,-3.2922,-4.5249,-4.6643,-4.7826,-4.8966,-4.8406,-4.759,-4.7488,-4.5877,-4.4232,-4.3643,-4.2083,-4.0689,0.0,0.0,0.0,-4.3224,-4.4654,0.0,-4.7503,-4.7335,0.0,-4.6583,0.0,-4.5725,-4.5345,-4.5653,0.0,0.0,-4.6015,-4.645,-4.7645,-4.7717,-4.7717,-4.7717,-4.7717,-4.7717,-4.7717,-4.7717,-4.7717,-4.7681,-4.6287,-4.5845,-4.6224,-4.3935,-4.2741,-4.2451,-4.1561,-4.1085,-4.0882,-4.0536,-4.0696,-4.1221,-4.1407,-4.1474,-4.161,-4.2726,-4.2777,-4.2455,-4.3633,-4.3405,-4.2543,-4.2173,-4.176,-4.1194,-4.0028,-3.944,-3.9018,-3.8321,-3.8512,-3.8945,-3.911,-3.9155,-3.92,-3.9379,-3.9388,-3.9388,-3.9388,-3.9388,-3.9388,-3.9388,-3.9388,-3.9723,-4.0711,-4.0068,-3.9553,-4.0083,-3.9738,-3.9388,-3.9388,-3.9388,-3.9155,-3.8467,-3.7723,-3.6699,-3.5226,-3.3872,-3.2724,-3.1874,-3.1797,-3.1797,-3.1797,-3.2385,-3.2685,-3.2685,-3.2685,-3.2685,-3.2685,-3.2842,-3.2984,-3.3055,-3.317,-3.3171,-4.7398,-4.9013,-5.0342,-4.992,-4.9085,-4.8082,-4.6838,-4.4966,-4.3203,-4.2156,-4.0836,0.0,0.0,0.0,0.0,0.0,0.0,0.0,-4.6831,-4.6992,-4.6984,0.0,-4.6742,0.0,-4.6359,-4.645,-4.6649,0.0,-4.6613,-4.6757,-4.7663,-4.7717,-4.7717,-4.7717,-4.7717,-4.7717,-4.7717,-4.7717,-4.7717,-4.7681,-4.6432,-4.6069,-4.6409,-4.4161,-4.2973,-4.2658,-4.1637,-4.1018,-4.0696,-4.0612,-4.0832,-4.1271,-4.1914,-4.2185,-4.232,-4.3487,-4.3656,-4.3447,-4.431,-4.4282,-4.3859,-4.3436,-4.2942,-4.2315,-4.1278,-4.0515,-3.9843,-3.9158,-3.9197,-3.9388,-3.9388,-3.9388,-3.9388,-3.9388,-3.9388,-3.9388,-3.9388,-3.9388,-3.9388,-3.9388,-3.9649,-3.9993,-4.0442,-3.9903,-3.9544,-3.9903,-3.9649,-3.9388,-3.9388,-3.9388,-3.9275,-3.8886,-3.8468,-3.7726,-3.6553,-3.5185,-3.394,-3.2808,-3.2383,-3.2176,-3.2176,-3.2777,-3.3195,-3.343,-3.3443,-3.3443,-3.3443,-3.3443,-3.3491,-3.361,-3.3472,-3.3389,-4.953,-5.1162,-5.2354,-5.0493,-4.9665,-4.86,-4.5886,-4.4126,-4.2445,-4.0191,0.0,-3.9368,-3.867,-3.9294,-4.0194,-4.1095,0.0,-4.4086,-4.5736,-4.5824,-4.6294,-4.7741,-4.7164,-4.6939,-4.7666,-4.7083,-4.6957,-4.7663,-4.7717,-4.7717,-4.7717,-4.7717,-4.7717,-4.7717,-4.7717,-4.7717,-4.7717,-4.7717,-4.7717,-4.7678,-4.6884,-4.6558,-4.659,-4.4657,-4.35,-4.2956,-4.1722,-4.0882,-4.0434,-4.0984,-4.1271,-4.1491,-4.2851,-4.3392,-4.3494,-4.4282,-4.4615,-4.4615,-4.4615,-4.4615,-4.4615,-4.4615,-4.3771,-4.273,-4.2388,-4.1374,-4.0228,-3.9818,-3.9589,-3.9424,-3.9424,-3.9388,-3.9388,-3.9388,-3.9388,-3.9388,-3.9388,-3.9448,-3.9574,-3.9664,-4.0068,-4.0307,-3.9956,-3.9687,-3.9574,-3.9664,-3.9604,-3.9514,-3.9388,-3.9388,-3.9388,-3.9388,-3.9388,-3.9068,-3.8277,-3.6921,-3.5505,-3.4115,-3.3251,-3.2816,-3.2816,-3.3378,-3.3914,-3.4384,-3.4397,-3.4397,-3.4397,-3.4397,-3.4272,-3.4034,-3.381,-3.3598,-5.1773,-5.2461,-5.2563,-5.154,-5.0,-4.8199,-4.6092,-4.3154,0.0,0.0,0.0,-3.7878,-3.7731,-3.8906,-4.0377,-4.1846,0.0,0.0,0.0,0.0,-4.6933,0.0,0.0,0.0,0.0,0.0,0.0,0.0,-4.7717,-4.7717,-4.7717,-4.7717,-4.7717,-4.7717,-4.7717,-4.7717,-4.7717,-4.7717,-4.7717,-4.7678,-4.6884,-4.6866,-4.7404,-4.4928,-4.4097,-4.4477,-4.2184,0.0,-4.1863,-4.1407,-4.1559,-4.2202,-4.3064,-4.3392,-4.3494,-4.4282,-4.4615,-4.4615,-4.4615,-4.4615,-4.4615,-4.4615,-4.4429,-4.3982,-4.2706,-4.2109,-4.1596,-4.0115,-3.9681,-3.9625,-3.9445,-3.9388,-3.9388,-3.9388,-3.9388,-3.9388,-3.9388,-3.9843,-4.0382,-4.0935,-4.0696,-4.0876,-4.2348,-4.1309,-4.0412,-4.0965,-4.0576,-4.0038,-3.9448,-3.9388,-3.9388,-3.9388,-3.9388,-3.9068,-3.8277,-3.6921,-3.5701,-3.4702,-3.3874,-3.343,-3.343,-3.3966,-3.4306,-3.4397,-3.4397,-3.4397,-3.4397,-3.4397,-3.4189,-3.3768,-3.3713,-3.3513,-5.1964,-5.3148,-5.3741,-5.2028,-5.0082,-4.7977,-4.5606,0.0,0.0,0.0,-3.7437,-3.6997,-3.7419,0.0,0.0,0.0,0.0,0.0,0.0,0.0,0.0,0.0,0.0,0.0,0.0,0.0,-4.7798,-4.7717,-4.7717,-4.7717,-4.7717,-4.7717,-4.7717,-4.7717,-4.7717,-4.7717,-4.7717,-4.7717,-4.7717,-4.7717,-4.7319,-4.7337,-4.7639,-4.581,-4.4992,-4.4892,-4.3125,-4.2337,-4.2286,-4.2337,-4.2557,-4.2963,-4.3724,-4.4012,-4.4062,-4.4479,-4.4615,-4.4615,-4.4615,-4.4615,-4.4615,-4.4615,-4.4615,-4.4384,-4.3273,-4.2645,-4.2046,-4.0737,-4.0056,-3.9646,-3.9445,-3.9388,-3.9388,-3.9388,-3.9388,-3.9388,-3.9388,-4.0202,-4.0905,-4.0876,-4.1175,-4.1609,-4.2207,-4.1534,-4.101,-4.1324,-4.0816,-4.0412,-4.0442,-3.9843,-3.9388,-3.9388,-3.9388,-3.9228,-3.8848,-3.7837,-3.6703,-3.554,-3.51,-3.4498,-3.3628,-3.4257,-3.4522,-3.4384,-3.4397,-3.4397,-3.4397,-3.4397,-3.4147,-3.3713,-3.3852,-3.3611,-5.1773,-5.332,-5.4276,-5.1907,-4.9853,-4.7701,-4.4866,-4.148,0.0,0.0,-3.6578,-3.6266,-3.7088,0.0,-3.8762,0.0,0.0,0.0,0.0,0.0,0.0,0.0,0.0,0.0,0.0,0.0,0.0,-4.7717,-4.7859,-4.7877,-4.7717,-4.7717,-4.7717,-4.7717,-4.7717,-4.7717,-4.7717,-4.7717,-4.7717,-4.7717,-4.7717,-4.7717,-4.7657,-4.6529,-4.5745,-4.5155,-4.3906,-4.3122,-4.2811,-4.3234,-4.3494,-4.3724,-4.4333,-4.4615,-4.4615,-4.4615,-4.4615,-4.4615,-4.4615,-4.4615,-4.4615,-4.4615,-4.4615,-4.4468,-4.3706,-4.2953,-4.2173,-4.126,-4.0409,-3.9696,-3.9445,-3.9388,-3.9454,-3.9589,-3.9634,-3.9664,-3.9813,-4.0771,-4.1482,-4.092,-4.1692,-4.2276,-4.1863,-4.1683,-4.1632,-4.1632,-4.1025,-4.0741,-4.113,-4.0277,-3.9574,-3.9439,-3.9388,-3.9388,-3.9388,-3.8486,-3.7543,-3.6604,-3.6206,-3.5487,-3.4339,-3.4753,-3.4875,-3.4662,-3.4522,-3.4397,-3.4397,-3.4356,-3.4105,-3.3713,-3.3852,-3.3666,-5.227,-5.2862,-5.2614,-5.0856,-4.9133,-4.7072,-4.402,0.0,0.0,-3.6684,-3.5734,-3.5371,-3.6248,-3.707,-3.8117,0.0,0.0,0.0,0.0,0.0,0.0,0.0,0.0,0.0,0.0,0.0,0.0,-4.7717,-4.8366,-4.8456,-4.7732,-4.7717,-4.7717,-4.7717,-4.7717,-4.7717,-4.7717,-4.7717,-4.7717,-4.7717,-4.7717,-4.7717,-4.766,-4.6398,-4.5886,-4.5898,-4.3977,-4.3605,0.0,-4.3673,-4.3842,-4.4513,-4.4581,-4.4615,-4.4615,-4.4615,-4.4615,-4.4615,-4.4615,-4.4615,-4.4615,-4.4615,-4.4615,-4.4468,-4.3706,-4.3015,-4.2252,-4.1294,-4.0493,-3.9889,-3.9496,-3.9388,-3.9574,-4.0172,-4.0307,-4.0472,-4.107,-4.1796,-4.2291,-4.2231,-4.2321,-4.256,-4.3021,-4.2656,-4.2306,-4.2306,-4.1752,-4.11,-4.0561,-4.0382,-4.0083,-3.9484,-3.9388,-3.9388,-3.9388,-3.7956,-3.7319,-3.7965,-3.6579,-3.6013,-3.6576,-3.5974,-3.5615,-3.5588,-3.4799,-3.4397,-3.4397,-3.4243,-3.3992,-3.3713,-3.3513,-3.3313,-5.0703,-5.2021,-5.2403,-5.0722,-4.8659,-4.6351,-4.3774,0.0,0.0,-3.6463,-3.561,-3.5261,-3.6138,-3.696,-3.7878,0.0,0.0,0.0,0.0,0.0,0.0,0.0,0.0,0.0,0.0,0.0,-4.7998,-4.8405,-4.8257,-4.8239,-4.8402,-4.842,-4.8185,-4.7735,-4.7717,-4.7717,-4.7717,-4.7717,-4.7717,-4.7717,-4.7717,-4.7717,-4.7678,-4.6829,-4.6335,-4.6056,-4.4921,-4.4487,0.0,-4.4248,-4.4299,-4.4615,-4.4615,-4.4615,-4.4615,-4.4615,-4.4615,-4.4615,-4.4615,-4.4615,-4.4615,-4.4615,-4.4615,-4.4542,-4.4236,-4.3663,-4.2923,-4.2046,-4.1194,-4.0424,-3.9753,-3.9481,-3.9484,-3.9753,-4.0113,-4.0472,-4.0726,-4.1647,-4.2396,-4.2396,-4.2671,-4.303,-4.3245,-4.312,-4.294,-4.294,-4.2387,-4.2028,-4.2147,-4.1489,-4.104,-4.1175,-4.0487,-3.9843,-3.9418,-3.8782,-3.836,-3.8202,-3.7567,-3.6883,-3.6201,-3.6215,-3.583,-3.4909,-3.4977,-3.4812,-3.4397,-3.4314,-3.4063,-3.3713,-3.3768,-3.3581,-4.8258,-5.0034,-5.0971,-4.9538,-4.722,-4.4798,0.0,0.0,-3.6422,-3.5993,-3.5426,-3.5261,-3.6138,-3.696,-3.7768,0.0,0.0,0.0,0.0,0.0,0.0,0.0,0.0,0.0,0.0,-4.7674,-4.8055,-4.8514,-4.8239,-4.8185,-4.8529,-4.8764,-4.8529,-4.7735,-4.7717,-4.7717,-4.7717,-4.7717,-4.7717,-4.7717,-4.7717,-4.7717,-4.7696,-4.7302,-4.6753,-4.6074,-4.5699,-4.5178,0.0,-4.4615,-4.4615,-4.4615,-4.4615,-4.4615,-4.4615,-4.4615,-4.4462,-4.4265,-4.453,-4.4445,-4.4231,-4.4231,-4.4429,-4.4564,-4.4316,-4.3891,-4.3317,-4.252,-4.1509,-4.0478,-3.9859,-3.9703,-3.9768,-3.9948,-4.0502,-4.1025,-4.122,-4.1998,-4.2656,-4.2656,-4.3015,-4.329,-4.329,-4.329,-4.329,-4.329,-4.2776,-4.256,-4.2985,-4.2237,-4.1811,-4.2081,-4.1452,-4.0636,-3.9783,-3.9311,-3.8885,-3.859,-3.8113,-3.74,-3.6492,-3.661,-3.6096,-3.4799,-3.525,-3.5141,-3.4397,-3.4356,-3.4105,-3.3713,-3.3823,-3.3624,-4.5105,-4.6577,-4.7635,-4.6768,-4.447,-4.2147,0.0,0.0,-3.5335,-3.5073,-3.5023,-3.5261,-3.6138,-3.696,-3.7768,-3.8579,0.0,0.0,0.0,0.0,0.0,0.0,0.0,0.0,0.0,-4.7309,-4.7717,-4.7717,-4.8438,0.0,-4.7753,-4.8456,-4.8529,-4.7735,-4.7717,-4.7717,-4.7717,-4.7717,-4.7717,-4.7717,-4.7717,-4.7717,-4.7717,-4.7678,-4.7107,-4.6098,-4.6098,-4.5503,0.0,-4.4615,-4.4615,-4.4615,-4.4615,-4.4615,-4.4615,-4.4615,-4.4096,-4.3538,-4.4316,-4.4079,-4.3409,-4.3409,-4.3944,-4.4462,-4.3656,-4.3444,-4.3317,-4.252,-4.1044,-3.9717,-3.9681,-4.0034,-4.0561,-4.1205,-4.1901,-4.256,-4.3125,-4.3275,-4.329,-4.329,-4.329,-4.329,-4.329,-4.329,-4.329,-4.329,-4.2776,-4.2396,-4.241,-4.2396,-4.2141,-4.1497,-4.1991,-4.1856,-4.0502,-3.9068,-3.8538,-3.9352,-3.7829,-3.7295,-3.8127,-3.7333,-3.6503,-3.5709,-3.5709,-3.5264,-3.4397,-3.4202,-3.3937,-3.3713,-3.3513,-3.3313,-4.2316,-4.352,-4.4169,-4.3291,-4.1869,-4.04,-3.9336,0.0,-3.5323,-3.506,-3.5004,-3.5078,-3.5353,-3.656,-3.7584,-3.7841,-3.834,0.0,0.0,0.0,0.0,0.0,0.0,0.0,0.0,0.0,-4.7913,-4.8475,-4.8239,-4.8203,-4.8493,-4.8239,-4.795,-4.7717,-4.7717,-4.7717,-4.7717,-4.7717,-4.7717,-4.7717,-4.7717,-4.7717,-4.7717,-4.7717,-4.7302,-4.6637,-4.6262,-4.5716,-4.5062,-4.4748,-4.4615,-4.4615,-4.4615,-4.4615,-4.4615,-4.4615,-4.4445,-4.4248,-4.4513,-4.4418,-4.4215,-4.4215,-4.4384,-4.4564,-4.4282,-4.4238,-4.3989,-4.2676,-4.1808,-4.1028,-3.9965,-4.0379,-4.101,-4.0771,-4.1587,-4.2455,-4.2626,-4.3015,-4.329,-4.329,-4.329,-4.329,-4.329,-4.329,-4.329,-4.329,-4.3125,-4.303,-4.303,-4.303,-4.294,-4.2731,-4.2506,-4.1871,-4.0502,-3.9981,-3.9631,-3.9403,-3.8375,-3.791,-3.8202,-3.7246,-3.6373,-3.5709,-3.5386,-3.4868,-3.4202,-3.3937,-3.3768,-3.367,-3.3356,-3.324,0.0,-4.0941,-4.1724,-4.1189,-3.9924,0.0,0.0,0.0,-3.475,-3.4568,-3.4784,-3.5004,-3.5004,-3.6376,-3.7492,-3.7492,-3.8175,0.0,0.0,0.0,0.0,0.0,0.0,0.0,0.0,-4.7515,-4.7895,-4.8402,-4.7968,-4.7935,-4.842,-4.7989,-4.7717,-4.7717,-4.7717,-4.7717,-4.7717,-4.7717,-4.7717,-4.7717,-4.7717,-4.7717,-4.7717,-4.7717,-4.7407,-4.6863,-4.6334,-4.5817,0.0,-4.4786,-4.4615,-4.4615,-4.4615,-4.4615,-4.4615,-4.4615,-4.4429,-4.4181,-4.4496,-4.4412,-4.4147,-4.4147,-4.4147,-4.4198,-4.4513,-4.4412,-4.3914,-4.2645,-4.1975,-4.1348,-4.0021,-4.0349,-4.0965,-4.0816,-4.1632,-4.247,-4.2671,-4.3045,-4.329,-4.329,-4.329,-4.329,-4.329,-4.329,-4.329,-4.329,-4.329,-4.329,-4.329,-4.329,-4.329,-4.329,-4.297,-4.2297,-4.1235,-4.0681,-4.0232,-3.9813,-3.8796,-3.8202,-3.8202,-3.7232,-3.6399,-3.5709,-3.5426,-3.4909,-3.4202,-3.3894,-3.367,-3.3598,-3.324,-3.3154,0.0,0.0,0.0,0.0,0.0,0.0,0.0,0.0,0.0,0.0,0.0,-3.4931,-3.5004,-3.6321,-3.7437,-3.7492,-3.8212,0.0,0.0,0.0,0.0,0.0,0.0,0.0,-4.6522,-4.7228,-4.7717,-4.7717,-4.7717,-4.7717,-4.7717,-4.7717,-4.7717,-4.7717,-4.7717,-4.7717,-4.7717,-4.7717,-4.7717,-4.7717,-4.7717,-4.7717,-4.7717,-4.7717,-4.7428,0.0,-4.6358,-4.5817,-4.532,-4.4814,-4.4615,-4.4615,-4.4615,-4.4581,-4.453,-4.4581,-4.4045,-4.3453,-4.4282,-4.4062,-4.3392,-4.346,-4.3504,-4.3639,-4.435,-4.4105,-4.3423,-4.2614,-4.177,-4.0935,-4.0001,-4.0115,-4.0606,-4.1175,-4.1886,-4.256,-4.3135,-4.326,-4.329,-4.329,-4.329,-4.329,-4.329,-4.329,-4.329,-4.329,-4.329,-4.329,-4.329,-4.329,-4.329,-4.329,-4.329,-4.309,-4.2515,-4.1265,-4.0502,-4.0412,-3.9098,-3.8335,-3.8277,-3.7372,-3.6543,-3.579,-3.5669,-3.5196,-3.4356,-3.3882,-3.3598,-3.3441,-3.3197,-3.3124,0.0,0.0,0.0,0.0,0.0,0.0,0.0,0.0,0.0,0.0,0.0,0.0,0.0,0.0,-3.6795,-3.7401,-3.8686,-3.9939,0.0,0.0,0.0,0.0,-4.611,-4.7213,-4.6558,-4.7228,-4.7717,-4.7717,-4.7717,-4.7717,-4.7717,-4.7717,-4.7717,-4.7717,-4.7717,-4.7717,-4.7717,-4.7717,-4.7717,-4.7717,-4.7717,-4.7717,-4.7717,-4.7717,-4.7636,-4.7468,-4.6501,-4.6024,-4.5825,-4.4961,-4.4615,-4.4615,-4.4615,-4.4215,-4.3775,-4.435,-4.3724,-4.2743,-4.4141,-4.4062,-4.3494,-4.4113,-4.4316,-4.4333,-4.4547,-4.4485,-4.415,-4.3306,-4.283,-4.2224,-4.0826,-4.0815,-4.107,-4.0711,-4.1557,-4.244,-4.259,-4.297,-4.329,-4.329,-4.329,-4.329,-4.329,-4.329,-4.329,-4.329,-4.329,-4.329,-4.329,-4.329,-4.329,-4.329,-4.329,-4.323,-4.312,-4.2372,-4.1512,-4.0457,-4.0062,-3.9639,-3.9134,-3.7677,-3.6816,-3.6624,-3.5196,-3.4259,-3.3839,-3.3598,-3.3513,-3.3641,-3.3283,-3.3197,-3.5209,-3.5209,0.0,0.0,0.0,0.0,0.0,0.0,0.0,0.0,0.0,0.0,0.0,0.0,0.0,0.0,-3.9012,0.0,0.0,0.0,0.0,0.0,-4.6182,-4.7179,0.0,-4.7446,-4.7717,-4.7717,-4.7717,-4.7554,-4.7174,-4.7156,-4.7156,-4.7156,-4.7156,-4.7337,-4.7717,-4.7717,-4.7717,-4.7717,-4.7717,-4.7717,-4.7717,-4.7717,-4.7717,-4.7636,-4.6566,-4.6098,-4.5982,-4.4622,-4.4045,-4.4012,-4.3673,-4.3267,-4.2963,-4.3369,-4.3024,-4.2455,-4.3639,-4.4012,-4.4012,-4.4479,-4.4615,-4.4615,-4.4615,-4.4615,-4.4412,-4.3439,-4.2842,-4.2249,-4.095,-4.0553,-4.0472,-4.0412,-4.1175,-4.2036,-4.2336,-4.2865,-4.329,-4.329,-4.329,-4.329,-4.329,-4.329,-4.329,-4.329,-4.329,-4.329,-4.329,-4.329,-4.329,-4.329,-4.329,-4.329,-4.329,-4.3015,-4.2237,-4.0935,-4.0561,-4.0113,-3.9454,-3.8159,-3.7116,-3.6373,-3.521,-3.433,-3.3713,-3.3598,-3.3556,-3.3556,-3.3356,-3.3313,-3.5096,-3.5124,-3.5107,-3.4889,0.0,0.0,0.0,0.0,0.0,0.0,0.0,0.0,0.0,0.0,0.0,0.0,0.0,0.0,0.0,0.0,0.0,0.0,-4.6132,0.0,-4.7464,-4.7645,-4.7717,-4.7717,-4.7717,-4.7355,-4.654,-4.6504,-4.645,-4.6323,-4.6323,-4.6649,-4.7337,-4.7591,-4.7717,-4.7717,-4.7591,-4.7591,-4.7678,-4.7464,-4.7409,-4.7437,0.0,0.0,-4.5614,-4.3911,-4.325,-4.3183,-4.254,-4.2286,-4.2303,-4.2422,-4.232,-4.2236,-4.298,-4.3826,-4.4615,-4.4615,-4.4615,-4.4615,-4.4615,-4.457,-4.4367,-4.3423,-4.2598,-4.1772,-4.0891,-4.0021,-3.9559,-4.0113,-4.0756,-4.1422,-4.1976,-4.2581,-4.3021,-4.3125,-4.314,-4.317,-4.3275,-4.329,-4.329,-4.329,-4.329,-4.329,-4.329,-4.329,-4.329,-4.329,-4.329,-4.329,-4.329,-4.329,-4.2821,-4.1647,-4.0905,-4.0165,-3.9258,-3.8538,-3.7414,-3.5749,-3.548,-3.4828,-3.3755,-3.3725,-3.3598,-3.3398,-3.3356,-3.3356,-3.4665,-3.4764,-3.4889,-3.4632,0.0,0.0,0.0,0.0,0.0,0.0,0.0,0.0,0.0,0.0,0.0,0.0,0.0,-4.1922,0.0,0.0,-4.495,-4.4349,0.0,-4.7319,-4.6739,-4.7301,-4.7717,-4.7717,-4.7717,-4.7355,-4.654,-4.6504,-4.6196,-4.5508,-4.549,-4.5544,-4.5671,-4.7029,-4.7717,-4.7678,-4.7011,-4.7047,-4.7663,-4.6287,-4.6051,-4.6587,0.0,-4.4144,-4.4073,-4.2946,-4.2472,-4.2455,-4.2337,-4.2286,-4.2371,-4.3014,-4.2455,-4.1474,-4.2202,-4.3386,-4.4615,-4.4615,-4.4615,-4.4615,-4.4615,-4.4468,-4.4281,-4.4023,-4.3,-4.1901,-4.1444,-4.0374,-3.9454,-3.9544,-4.0068,-4.0576,-4.0681,-4.122,-4.1848,-4.244,-4.2545,-4.2686,-4.32,-4.329,-4.329,-4.329,-4.329,-4.329,-4.329,-4.329,-4.329,-4.329,-4.329,-4.329,-4.329,-4.329,-4.3015,-4.2291,-4.1632,-4.0367,-3.847,-3.8277,-3.7414,-3.5749,-3.5655,-3.5101,-3.4034,-3.381,-3.3598,-3.3398,-3.324,-3.324,-3.4529,-3.4516,-3.4491,-3.4325,0.0,0.0,0.0,0.0,0.0,0.0,0.0,0.0,0.0,0.0,0.0,-4.0012,0.0,-4.2687,-4.2939,-4.3647,-4.4117,0.0,0.0,-4.5858,-4.5852,-4.6576,-4.6866,-4.645,-4.6812,-4.6504,-4.5273,-4.52,-4.5037,-4.4657,-4.4639,-4.4856,-4.5291,-4.6033,-4.6631,-4.7047,-4.625,-4.6269,-4.7011,-4.5834,-4.549,-4.5755,0.0,-4.4021,-4.4265,-4.2467,-4.1931,-4.2202,-4.1433,-4.1128,-4.1213,-4.1948,-4.2033,-4.1897,-4.2642,-4.3639,-4.4615,-4.4615,-4.4615,-4.457,-4.4468,-4.4367,-4.4253,-4.4056,-4.3232,-4.23,-4.1641,-4.0737,-3.9879,-3.9481,-3.9918,-4.0397,-4.0397,-4.092,-4.1617,-4.2276,-4.2396,-4.2605,-4.3185,-4.329,-4.329,-4.329,-4.329,-4.329,-4.329,-4.329,-4.329,-4.329,-4.329,-4.329,-4.329,-4.329,-4.291,-4.1931,-4.1205,-4.0263,-3.8878,-3.8848,-3.8225,-3.6922,-3.6439,-3.5655,-3.4592,-3.4008,-3.3641,-3.3556,-3.3356,-3.3313,-3.4341,-3.4255,-3.4173,0.0,0.0,-3.4103,-3.4215,0.0,0.0,0.0,0.0,0.0,0.0,0.0,0.0,-4.1107,-4.2359,-4.3049,-4.2919,-4.3157,-4.352,-4.4042,-4.4354,-4.4736,-4.5236,-4.5852,-4.5961,-4.5345,-4.587,-4.5599,-4.4168,-4.4095,-4.4005,-4.3824,-4.3806,-4.4114,-4.4729,-4.4729,-4.5236,-4.6214,-4.5399,-4.5436,-4.6196,-4.5182,-4.4778,-4.4802,-4.3722,-4.3536,-4.3783,-4.1766,-4.1271,-4.1677,-4.0739,-4.0587,-4.0933,-4.1508,-4.2185,-4.2878,-4.3284,-4.3927,-4.4615,-4.4615,-4.4615,-4.457,-4.4367,-4.4281,-4.4196,-4.3985,-4.3355,-4.2568,-4.1722,-4.0873,-4.0091,-3.9517,-3.9798,-4.0172,-4.0172,-4.0561,-4.116,-4.2006,-4.2171,-4.2425,-4.3155,-4.329,-4.329,-4.329,-4.329,-4.329,-4.329,-4.329,-4.329,-4.329,-4.329,-4.329,-4.329,-4.329,-4.2776,-4.1459,-4.0771,-4.0113,-3.9454,-3.9388,-3.8958,-3.8,-3.7102,-3.6108,-3.4978,-3.4121,-3.367,-3.3641,-3.3441,-3.3398,-3.3842,-3.3972,-3.4111,-3.3726,0.0,0.0,-3.5501,-3.5833,0.0,0.0,0.0,0.0,0.0,0.0,0.0,-4.0456,-4.1996,-4.3049,-4.2919,0.0,-4.4061,-4.4077,-4.4765,-4.5256,-4.5291,-4.5345,-4.5363,-4.5291,-4.5345,-4.5001,-4.415,-4.4095,-4.3751,-4.3009,-4.2992,-4.3009,-4.3082,-4.3082,-4.3842,-4.5381,-4.4566,-4.4603,-4.5327,-4.3769,-4.323,-4.3468,-4.2215,-4.1445,-4.1043,-4.0423,-4.0214,-4.0316,-4.0882,-4.1965,-4.3156,-4.3206,-4.3758,-4.4344,-4.3656,-4.3927,-4.4615,-4.4615,-4.4615,-4.457,-4.4367,-4.4196,-4.4068,-4.3956,-4.3281,-4.2443,-4.1689,-4.0497,-3.9445,-3.9409,-3.9454,-3.9448,-3.9448,-3.9493,-3.9933,-4.1205,-4.1444,-4.1848,-4.308,-4.329,-4.329,-4.329,-4.329,-4.329,-4.329,-4.329,-4.329,-4.329,-4.329,-4.329,-4.329,-4.329,-4.2776,-4.1459,-4.0771,-4.0113,-3.9454,-3.9388,-3.8995,-3.8202,-3.7333,-3.6253,-3.4992,-3.4121,-3.3598,-3.3441,-3.324,-3.3313,-3.3753,-3.3775,-3.3842,-3.3643,0.0,0.0,0.0,0.0,0.0,0.0,0.0,0.0,0.0,0.0,-4.0364,-4.1107,-4.2213,-4.2957,-4.2919,-4.3173,-4.3335,-4.3335,-4.3607,-4.3806,-4.3806,-4.4258,-4.4349,-4.3842,-4.4258,-4.4186,-4.3389,-4.3335,-4.3227,-4.2919,-4.2901,-4.2901,-4.2901,-4.2901,-4.3227,-4.3788,-4.3498,-4.3789,-4.4512,-4.3426,-4.2969,-4.3026,-4.197,-4.1651,-4.1818,-4.0614,-4.0383,-4.0764,-4.0578,-4.1407,-4.2726,-4.2726,-4.32,-4.3876,-4.4079,-4.4361,-4.4615,-4.4615,-4.4514,-4.4367,-4.4224,-4.4068,-4.3939,-4.3763,-4.2851,-4.1852,-4.1558,-4.0805,-3.9985,-3.9517,-3.9388,-3.9388,-3.9388,-3.9738,-4.0307,-4.1205,-4.1752,-4.2186,-4.2641,-4.306,-4.3155,-4.2791,-4.3075,-4.329,-4.329,-4.329,-4.329,-4.329,-4.329,-4.329,-4.329,-4.329,-4.2776,-4.1459,-4.1145,-4.0531,-3.9433,-3.9388,-3.887,-3.7782,-3.7204,-3.6267,-3.5019,-3.4121,-3.367,-3.3598,-3.324,-3.3197,-3.3684,-3.3684,-3.3671,0.0,0.0,0.0,0.0,0.0,0.0,0.0,0.0,0.0,0.0,0.0,0.0,0.0,-4.2375,-4.2901,-4.2901,-4.2901,-4.2901,-4.2901,-4.2901,-4.2901,-4.2901,-4.3389,-4.348,-4.2955,-4.3426,-4.3462,-4.2937,-4.2901,-4.2901,-4.2901,-4.2901,-4.2901,-4.2901,-4.2901,-4.2901,-4.2901,-4.2901,-4.3191,-4.3697,-4.3155,-4.2731,-4.242,-4.1785,-4.1618,-4.1723,-4.0582,-4.0527,-4.1153,-4.0629,-4.1339,-4.2642,-4.2642,-4.3132,-4.3859,-4.4328,-4.4514,-4.4514,-4.4457,-4.4355,-4.4196,-4.4068,-4.3969,-4.3868,-4.3658,-4.2741,-4.1787,-4.1558,-4.0839,-4.0021,-3.9517,-3.9388,-3.9388,-3.9388,-3.9768,-4.0352,-4.1205,-4.1782,-4.2216,-4.2596,-4.3045,-4.314,-4.2746,-4.3045,-4.329,-4.329,-4.329,-4.329,-4.329,-4.329,-4.329,-4.329,-4.329,-4.2776,-4.1459,-4.1422,-4.0786,-3.9469,-3.9388,-3.887,-3.7729,-3.7127,-3.6227,-3.5019,-3.4037,-3.3598,-3.3598,-3.3283,-3.3111,-3.3633,-3.3643,0.0,0.0,0.0,0.0,0.0,0.0,0.0,0.0,0.0,0.0,0.0,0.0,0.0,-4.1578,-4.2375,-4.2901,-4.2901,-4.2901,-4.2901,-4.2901,-4.2901,-4.2901,-4.2901,-4.2901,-4.2901,-4.2901,-4.2901,-4.2901,-4.2901,-4.2901,-4.2901,-4.2901,-4.2901,-4.2901,-4.2901,-4.2901,-4.2901,-4.2901,-4.2901,-4.2901,-4.2901,-4.2901,-4.238,-4.1503,-4.1503,-4.0978,-4.0121,-4.0096,-4.0527,-4.1204,-4.1204,-4.21,-4.3375,-4.3375,-4.3893,-4.4553,-4.4367,-4.4293,-4.4265,-4.4155,-4.4097,-4.4068,-4.3956,-4.3898,-4.3868,-4.3674,-4.3113,-4.2412,-4.1689,-4.0478,-3.9424,-3.9388,-3.9388,-3.9388,-3.9388,-3.9424,-3.9813,-4.1115,-4.1422,-4.1803,-4.305,-4.329,-4.329,-4.329,-4.329,-4.329,-4.329,-4.329,-4.329,-4.329,-4.329,-4.329,-4.329,-4.329,-4.2776,-4.1444,-4.1407,-4.0786,-3.9469,-3.9388,-3.901,-3.8202,-3.7141,-3.6055,-3.4979,-3.3911,-3.3398,-3.3398,-3.3197,-3.3197,-3.3633,0.0,0.0,0.0,0.0,0.0,0.0,0.0,0.0,0.0,0.0,0.0,0.0,0.0,0.0,-4.165,-4.2375,-4.2901,-4.2901,-4.2901,-4.2901,-4.2901,-4.2901,-4.2901,-4.2901,-4.2901,-4.2901,-4.2901,-4.2901,-4.2901,-4.2901,-4.2901,-4.2901,-4.2901,-4.2901,-4.2901,-4.2901,-4.2901,-4.2901,-4.2901,-4.2901,-4.2901,-4.2901,-4.2901,-4.275,-4.2458,-4.1803,-4.1326,-4.1024,-4.036,-4.0527,-4.1153,-4.0629,-4.1322,-4.2557,-4.2049,-4.2337,-4.3047,-4.3378,-4.3525,-4.3609,-4.3987,-4.4027,-4.3956,-4.3898,-4.3793,-4.3674,-4.3628,-4.3113,-4.2412,-4.1689,-4.0839,-4.0041,-3.9517,-3.9388,-3.9388,-3.9388,-3.9783,-4.0232,-4.0621,-4.1482,-4.2081,-4.1968,-4.2731,-4.314,-4.2716,-4.3045,-4.329,-4.329,-4.329,-4.329,-4.329,-4.329,-4.315,-4.2686,-4.2656,-4.2087,-4.0771,-4.0569,-4.0144,-3.9418,-3.9388,-3.8583,-3.6827,-3.6685,-3.5775,-3.4066,-3.3641,-3.3471,-3.3598,-3.3283,-3.3111,-3.3591,0.0,0.0,0.0,0.0,0.0,0.0,0.0,0.0,0.0,0.0,0.0,-4.2031,-4.1922,0.0,-4.1705,-4.2122,-4.2303,-4.1995,-4.194,-4.194,-4.194,-4.194,-4.194,-4.194,-4.223,-4.2411,-4.2411,-4.2719,-4.2901,-4.2901,-4.2901,-4.2901,-4.2901,-4.2901,-4.2901,-4.2901,-4.2901,-4.2901,-4.2901,-4.2901,-4.2901,-4.2882,-4.2711,-4.2518,-4.23,-4.1348,-4.0932,-4.0885,-4.0328,-4.0367,-4.0713,-4.0282,-4.0823,-4.1796,-4.1304,-4.1582,-4.2264,-4.25,-4.2613,-4.2702,-4.3268,-4.3402,-4.341,-4.371,-4.3704,-4.3598,-4.3598,-4.3295,-4.2772,-4.1754,-4.1194,-4.0634,-3.9646,-3.9388,-3.9388,-3.9388,-3.9723,-4.0083,-4.0352,-4.1287,-4.1976,-4.1826,-4.2641,-4.317,-4.2806,-4.309,-4.329,-4.329,-4.329,-4.329,-4.329,-4.329,-4.3075,-4.2455,-4.2333,-4.1727,-4.036,-4.0159,-3.9825,-3.9207,-3.9228,-3.8457,-3.6788,-3.6554,-3.5655,-3.4092,-3.3569,-3.3356,-3.3484,-3.3197,-3.3124,0.0,0.0,0.0,0.0,0.0,0.0,0.0,0.0,0.0,0.0,0.0,0.0,-4.2755,-4.2248,-4.1705,-4.1705,-4.1632,-4.1343,-4.0601,-4.0492,-4.0492,-4.0492,-4.0492,-4.0492,-4.0492,-4.1162,-4.1596,-4.1596,-4.2266,-4.2665,-4.2665,-4.2737,-4.2755,-4.2665,-4.2829,-4.2846,-4.2792,-4.2846,-4.2901,-4.2901,-4.2863,-4.2863,-4.2882,-4.2418,-4.1909,-4.137,-4.0514,-4.0146,-4.0096,-4.0096,-4.0096,-4.0096,-4.0096,-4.0493,-4.1076,-4.0955,-4.1314,-4.1876,-4.166,-4.1611,-4.1699,-4.2299,-4.2489,-4.2638,-4.3367,-4.3598,-4.3598,-4.3598,-4.3598,-4.3295,-4.1949,-4.1558,-4.116,-3.9809,-3.9445,-3.9388,-3.9388,-3.9388,-3.9589,-4.0187,-4.0891,-4.1587,-4.2126,-4.2776,-4.32,-4.32,-4.3245,-4.329,-4.329,-4.3245,-4.323,-4.329,-4.3245,-4.3015,-4.2455,-4.2171,-4.1475,-4.0196,-4.0025,-3.9669,-3.89,-3.9024,-3.856,-3.7477,-3.6593,-3.5641,-3.4592,-3.3569,-3.3124,-3.3111,-3.3124,-3.3124,0.0,0.0,0.0,0.0,0.0,0.0,0.0,0.0,0.0,0.0,0.0,0.0,-4.2883,-4.2248,-4.1705,-4.1705,-4.1162,-4.0691,-4.051,-4.0492,-4.0492,-4.0492,-4.0492,-4.0492,-4.0492,-4.0655,-4.0764,-4.0764,-4.0908,-4.1017,-4.1017,-4.1596,-4.1669,-4.1053,-4.223,-4.2592,-4.1958,-4.2574,-4.2901,-4.29,-4.2536,-4.2537,-4.2882,-4.2418,-4.1739,-4.0926,-4.0731,-4.0434,-4.0096,-4.0096,-4.0096,-4.0096,-4.0096,-4.0197,-4.0324,-4.0188,-4.0237,-4.0404,-4.0742,-4.0833,-4.1022,-4.2133,-4.2489,-4.2638,-4.3367,-4.3598,-4.3598,-4.3598,-4.3598,-4.3402,-4.2585,-4.1917,-4.1294,-4.0443,-3.9824,-3.9388,-3.9388,-3.9388,-3.9454,-3.9604,-4.0576,-4.1265,-4.0891,-4.1788,-4.2605,-4.2605,-4.3015,-4.329,-4.329,-4.2895,-4.2761,-4.3245,-4.288,-4.2545,-4.241,-4.1893,-4.1136,-4.0167,-3.9469,-3.9165,-3.9323,-3.9188,-3.8196,-3.6306,-3.6055,-3.521,-3.3683,-3.3283,-3.3197,-3.3313,-3.3154,-3.3124,0.0,0.0,0.0,0.0,0.0,0.0,0.0,0.0,0.0,0.0,0.0,-4.1868,-4.2248,-4.1687,-4.0999,-4.0673,-4.0256,-3.984,-3.9441,-3.9405,-3.9405,-3.9405,-3.9405,-3.9405,-3.9405,-3.9749,-3.9967,-3.9967,-4.0293,-4.0492,-4.0492,-4.089,-4.0926,-4.051,-4.1687,-4.194,-4.1126,-4.2303,-4.2701,-4.2321,-4.2239,-4.2095,-4.1888,-4.1867,-4.1366,-4.0458,-4.0458,-4.0328,-4.0096,-4.0096,-4.0096,-4.0096,-4.0096,-4.0062,-3.9986,-3.9858,-3.9755,-3.9718,-3.9907,-3.9987,-4.0143,-4.1155,-4.1723,-4.2092,-4.2837,-4.3317,-4.3598,-4.3598,-4.3598,-4.3432,-4.2772,-4.2045,-4.1327,-4.065,-3.995,-3.9388,-3.9388,-3.9388,-3.9388,-3.9388,-4.0232,-4.0801,-4.0457,-4.1527,-4.2291,-4.1976,-4.2447,-4.2761,-4.2432,-4.2102,-4.2147,-4.2806,-4.2605,-4.2396,-4.2396,-4.1605,-4.0797,-4.0017,-3.9128,-3.8722,-3.8885,-3.8423,-3.7782,-3.6855,-3.5845,-3.4828,-3.3894,-3.3368,-3.3154,-3.324,-3.3154,-3.3124,0.0,0.0,0.0,0.0,0.0,0.0,0.0,0.0,0.0,0.0,0.0,-4.0691,-4.1361,-4.0836,-4.0111,-3.9496,-3.9187,-3.8752,-3.81,-3.7883,-3.7792,-3.7792,-3.7919,-3.7991,-3.7991,-3.8717,-3.9188,-3.9188,-3.9767,-4.0094,-4.0094,-4.022,-4.0239,-4.0111,-4.0999,-4.1107,-4.0311,-4.1759,-4.2158,-4.1506,-4.1701,-4.1357,-4.0494,-4.0854,-4.0666,-4.0096,-4.0096,-4.0096,-4.0096,-4.0087,-4.0062,-4.0045,-4.0037,-3.9961,-3.9849,-3.9703,-3.959,-3.9475,-3.9352,-3.9299,-3.9431,-4.016,-4.0763,-4.1375,-4.2075,-4.2738,-4.3251,-4.3367,-4.34,-4.3297,-4.288,-4.2142,-4.136,-4.0805,-4.0021,-3.9388,-3.9388,-3.9388,-3.9388,-3.9388,-3.9858,-4.0262,-4.0382,-4.1309,-4.1871,-4.1294,-4.1811,-4.2036,-4.1444,-4.128,-4.1542,-4.2321,-4.2306,-4.2282,-4.2506,-4.1472,-4.0574,-3.9967,-3.9015,-3.8448,-3.8376,-3.7429,-3.715,-3.7676,-3.5655,-3.4483,-3.4189,-3.3454,-3.3124,-3.3124,-3.3124,-3.3174,0.0,0.0,0.0,0.0,0.0,0.0,0.0,0.0,0.0,0.0,0.0,-4.0528,-4.0637,-4.0057,-3.9514,-3.9405,-3.8227,-3.7285,-3.7176,-3.6562,-3.6112,-3.6112,-3.6743,-3.7158,-3.7158,-3.7901,-3.8372,-3.8372,-3.8462,-3.8517,-3.8517,-3.917,-3.9224,-3.8535,-3.9912,-4.0293,-3.955,-4.0401,-4.0764,-4.0655,-4.0358,-3.9866,-3.9229,-3.9055,-3.9375,-4.0096,-4.0096,-4.0096,-4.007,-3.9961,-3.9926,-3.9926,-3.9807,-3.9755,-3.9703,-3.9563,-3.9528,-3.9475,-3.9352,-3.9299,-3.9431,-4.016,-4.0475,-4.0647,-4.1342,-4.1612,-4.1839,-4.2456,-4.2638,-4.2787,-4.3327,-4.2475,-4.1492,-4.1393,-4.0374,-3.9388,-3.9388,-3.9388,-3.9388,-3.9388,-3.9448,-3.9723,-4.0307,-4.0546,-4.0636,-4.0546,-4.1085,-4.1512,-4.1384,-4.0876,-4.0995,-4.2276,-4.1886,-4.1929,-4.2852,-4.1778,-4.0858,-4.0436,-3.9203,-3.8666,-3.9044,-3.6953,-3.6116,-3.6784,-3.5243,-3.4063,-3.3283,-3.3167,-3.3124,-3.3124,-3.3124,-3.3332,0.0,0.0,0.0,0.0,0.0,0.0,0.0,0.0,0.0,0.0,-3.7649,-3.8139,-3.9043,-3.8572,-3.7919,-3.7468,-3.6798,-3.6327,-3.6327,-3.6019,-3.5804,-3.5804,-3.6109,-3.649,-3.6959,-3.6906,-3.7232,-3.8136,-3.7359,-3.725,-3.8154,-3.8118,-3.81,-3.8209,-3.9297,-3.9514,-3.8752,-3.9912,-4.0238,-3.9765,-3.9587,-3.9116,-3.8379,-3.8261,-3.8908,-4.0079,-3.9673,-3.969,-3.9986,-3.991,-3.9849,-3.9781,-3.9729,-3.9651,-3.959,-3.9528,-3.9432,-3.9379,-3.9325,-3.9299,-3.9348,-3.968,-4.0061,-4.0475,-4.0746,-4.111,-4.1546,-4.2274,-4.2489,-4.2655,-4.34,-4.2569,-4.1492,-4.1492,-4.0409,-3.9388,-3.9388,-3.9388,-3.9388,-3.9388,-3.9388,-3.9514,-3.9798,-4.0157,-4.0277,-3.9903,-4.0412,-4.0696,-4.0337,-4.0023,-4.0217,-4.116,-4.101,-4.1144,-4.1891,-4.0965,-4.0241,-3.9958,-3.8914,-3.822,-3.7904,-3.6419,-3.5521,-3.5364,-3.4263,-3.3496,-3.3124,-3.3124,-3.3124,-3.3124,-3.3124,-3.337,0.0,0.0,0.0,0.0,0.0,0.0,0.0,0.0,0.0,0.0,-3.5659,-3.6093,-3.7105,-3.6961,-3.649,-3.5894,-3.5623,-3.5496,-3.5496,-3.5315,-3.5188,-3.5188,-3.5369,-3.5729,-3.6343,-3.6037,-3.6293,-3.7504,-3.649,-3.6311,-3.7522,-3.7031,-3.6977,-3.7558,-3.8174,-3.8301,-3.7901,-3.9119,-3.9366,-3.8602,-3.8517,-3.8187,-3.7618,-3.7385,-3.8077,-3.9471,-3.9108,-3.9286,-3.9849,-3.9824,-3.9746,-3.9668,-3.9599,-3.9537,-3.9448,-3.9448,-3.9395,-3.9299,-3.9299,-3.9299,-3.9299,-3.9299,-3.968,-4.0127,-4.0127,-4.0464,-4.1028,-4.1773,-4.2104,-4.2373,-4.3118,-4.2392,-4.1492,-4.1492,-4.0409,-3.9388,-3.9388,-3.9388,-3.9388,-3.9388,-3.9388,-3.9388,-3.9388,-3.9828,-3.9993,-3.9499,-3.9843,-3.9978,-3.9448,-3.9388,-3.9642,-4.0248,-4.0472,-4.0673,-4.095,-4.0344,-3.9824,-3.9457,-3.8437,-3.7567,-3.6936,-3.5883,-3.5006,-3.4397,-3.3526,-3.3124,-3.3124,-3.3124,-3.3124,-3.3124,-3.3124,-3.3445,0.0,0.0,0.0,0.0,0.0,0.0,0.0,0.0,0.0,0.0,-3.5261,-3.5587,-3.4899,-3.5369,-3.584,-3.5804,-3.5152,-3.4645,-3.4645,-3.4009,-3.352,-3.352,-3.4208,-3.4679,-3.4718,-3.5369,-3.5822,-3.5912,-3.584,-3.584,-3.5912,-3.5876,-3.5876,-3.5912,-3.5967,-3.6327,-3.7049,-3.7469,-3.7427,-3.7023,-3.6637,-3.6585,-3.6846,-3.5998,-3.6441,-3.7872,-3.8521,-3.9152,-3.9703,-3.9563,-3.9528,-3.9501,-3.9379,-3.9325,-3.9299,-3.9299,-3.9299,-3.9299,-3.9299,-3.9299,-3.9299,-3.9299,-3.9332,-3.9365,-3.9365,-3.9381,-3.9564,-4.031,-4.0961,-4.164,-4.2357,-4.202,-4.1492,-4.1492,-4.0409,-3.9388,-3.9388,-3.9388,-3.9388,-3.9388,-3.9388,-3.9388,-3.9388,-3.9454,-3.9454,-3.9424,-3.9454,-3.9454,-3.9388,-3.9388,-3.9591,-4.0048,-4.0702,-4.0911,-4.0554,-4.05,-4.0091,-3.9286,-3.7809,-3.6936,-3.6897,-3.5345,-3.4426,-3.4397,-3.3526,-3.3124,-3.3124,-3.3124,-3.3124,-3.3124,-3.3124,-3.3658,0.0,0.0,0.0,0.0,0.0,0.0,0.0,0.0,0.0,0.0,-3.3284,-3.3556,-3.3791,-3.4498,-3.4844,-3.4353,-3.4027,-3.3828,-3.3828,-3.3592,-3.3393,-3.3393,-3.3647,-3.4027,-3.4552,-3.4389,-3.4682,-3.5713,-3.4826,-3.47,-3.5731,-3.5315,-3.5261,-3.5768,-3.5804,-3.6051,-3.6537,-3.6666,-3.662,-3.6392,-3.6326,-3.6134,-3.5816,-3.5609,-3.5954,-3.6783,-3.7511,-3.8246,-3.8896,-3.9328,-3.9448,-3.9352,-3.9325,-3.9299,-3.9299,-3.9299,-3.9299,-3.9299,-3.9299,-3.9299,-3.9299,-3.9299,-3.9299,-3.9299,-3.9299,-3.963,-4.016,-4.0845,-4.1574,-4.2171,-4.2493,-4.2029,-4.126,-4.0374,-3.9788,-3.9388,-3.9388,-3.9388,-3.9388,-3.9388,-3.9388,-3.9388,-3.9388,-3.9388,-3.9388,-3.9388,-3.9388,-3.9388,-3.9388,-3.9301,-3.9266,-3.9431,-3.9558,-3.9504,-3.9218,-3.9232,-3.904,-3.858,-3.7504,-3.6649,-3.6068,-3.4978,-3.4147,-3.3569,-3.324,-3.3124,-3.3124,-3.3124,-3.3257,-3.3608,-3.3608,-3.4198,0.0,0.0,0.0,0.0,0.0,0.0,0.0,0.0,0.0,0.0,-3.1942,-3.2361,-3.2904,-3.3647,-3.4027,-3.3502,-3.3393,-3.3393,-3.3393,-3.3393,-3.3393,-3.3393,-3.3393,-3.361,-3.4154,-3.3719,-3.3846,-3.4899,-3.4009,0.0,-3.4935,-3.4498,-3.4443,-3.4971,-3.513,-3.5421,-3.5882,-3.5862,-3.5935,-3.6097,-3.6023,-3.5734,-3.5291,-3.5354,-3.5552,-3.5871,-3.6571,-3.7427,-3.8375,-3.9132,-3.9379,-3.9299,-3.9299,-3.9299,-3.9299,-3.9299,-3.9299,-3.9299,-3.9299,-3.9299,-3.9299,-3.9299,-3.9299,-3.9299,-3.9299,-3.9647,-4.0194,-4.0862,-4.1591,-4.2158,-4.2219,-4.1709,-4.0873,-3.9681,-3.9388,-3.9388,-3.9388,-3.9388,-3.9388,-3.9388,-3.9388,-3.9388,-3.9388,-3.9388,-3.9499,-3.9709,-3.9523,-3.9463,-3.9599,-3.9311,-3.9068,-3.8922,-3.9003,-3.8847,-3.8418,-3.8608,-3.86,-3.8217,-3.7116,-3.6201,-3.5682,-3.4579,-3.3696,-3.3124,-3.3124,-3.3124,-3.3124,-3.3124,-3.3269,-3.3633,-3.3822,-3.4487,0.0,0.0,0.0,0.0,0.0,0.0,0.0,0.0,0.0,0.0,-3.1362,-3.2144,-3.2162,-3.2795,-3.3339,-3.3339,-3.3357,-3.3357,-3.3357,-3.3357,-3.3375,-3.3393,-3.3393,-3.3393,-3.3393,-3.3393,-3.3393,-3.3393,-3.3393,-3.3393,-3.3393,-3.3393,-3.3378,-3.3364,-3.3757,-3.4295,-3.501,-3.4992,-3.5341,-3.602,-3.5554,-3.5308,-3.5291,-3.5175,-3.5088,-3.5138,-3.5726,-3.682,-3.8195,-3.8941,-3.9282,-3.9299,-3.9299,-3.9299,-3.9299,-3.9299,-3.9299,-3.9299,-3.9299,-3.9299,-3.9299,-3.9299,-3.9299,-3.9299,-3.9299,-3.9315,-3.9481,-4.021,-4.0878,-4.1375,-4.1443,-4.0971,-4.0285,-3.9589,-3.9388,-3.9388,-3.9388,-3.9388,-3.9388,-3.9388,-3.9388,-3.9388,-3.9388,-3.9388,-3.9634,-4.0277,-3.9843,-3.9591,-4.0018,-3.9505,-3.8936,-3.8553,-3.9071,-3.9113,-3.826,-3.8797,-3.8884,-3.8246,-3.6543,-3.5628,-3.5696,-3.4008,-3.3124,-3.3124,-3.3124,-3.3124,-3.3124,-3.3124,-3.3124,-3.3162,-3.3684,-3.4525,-2.9463,0.0,0.0,0.0,0.0,0.0,0.0,0.0,0.0,-2.9895,-3.0238,-3.0636,-3.1234,-3.1524,-3.1655,-3.1655,-3.2144,-3.2524,-3.2524,-3.2524,-3.2741,-3.3339,-3.3393,-3.3393,-3.3393,-3.3393,-3.3393,0.0,-3.3393,-3.3393,-3.3393,-3.3393,-3.3165,-3.262,-3.2962,-3.3208,-3.3373,-3.3879,-3.4282,-3.4589,-3.5069,-3.5198,-3.5018,-3.5065,-3.5041,-3.498,-3.5702,-3.6241,-3.6721,-3.798,-3.8808,-3.9299,-3.9299,-3.9299,-3.9299,-3.9299,-3.9299,-3.9299,-3.9299,-3.9299,-3.9299,-3.9299,-3.9299,-3.9299,-3.9299,-3.968,-4.0144,-4.0343,-4.0581,-4.064,-4.018,-3.9867,-3.9646,-3.9445,-3.9388,-3.9388,-3.9388,-3.9388,-3.9388,-3.9388,-3.9388,-3.9388,-3.9388,-3.9388,-3.9448,-3.9664,-3.9948,-3.9934,-3.9453,-3.9528,-3.9305,-3.8574,-3.8564,-3.8466,-3.8217,-3.8376,-3.8405,-3.8217,-3.6543,-3.5628,-3.5628,-3.3995,-3.3124,-3.3124,-3.3124,-3.3124,-3.3124,-3.3124,-3.3282,-3.3696,-3.465,-3.5207,0.0,0.0,0.0,0.0,0.0,0.0,-2.8779,-2.8551,-2.8456,0.0,-2.9098,-2.9575,-3.0041,-3.0399,-3.0506,-3.0184,-3.0521,-3.1038,-3.1627,-3.1691,-3.1872,-3.2343,-3.2705,-3.2842,-3.2673,-3.2964,-3.3162,-3.3162,-3.3162,-3.3162,-3.3162,-3.3162,-3.2894,-3.2317,-3.2334,-3.2476,-3.2773,-3.296,-3.341,-3.409,-3.4485,-3.4742,-3.4899,-3.497,-3.497,-3.4916,-3.5346,-3.5727,-3.6075,-3.6936,-3.7715,-3.8394,-3.8709,-3.8825,-3.8874,-3.9199,-3.9299,-3.9299,-3.9299,-3.9299,-3.9299,-3.9299,-3.9299,-3.9299,-3.9299,-3.9597,-4.0011,-4.031,-4.025,-3.9876,-3.9268,-3.9024,-3.8916,-3.8646,-3.9005,-3.9298,-3.905,-3.9215,-3.9388,-3.9388,-3.9388,-3.9388,-3.9388,-3.9388,-3.9478,-3.9783,-3.9845,-3.975,-3.9424,-3.9313,-3.9015,-3.8448,-3.8277,-3.8202,-3.8202,-3.8202,-3.8037,-3.7682,-3.6346,-3.5467,-3.5128,-3.3797,-3.3124,-3.3124,-3.3124,-3.3124,-3.3124,-3.3124,-3.3357,-3.3922,-3.4756,-3.5282,0.0,0.0,0.0,0.0,0.0,0.0,-2.9089,-2.8607,-2.8112,-2.7491,-2.8139,-2.881,-2.881,-2.9407,-2.9636,-2.8934,-2.881,-2.9272,-3.058,-3.0785,-3.0821,-3.0884,-3.1562,-3.1881,-3.1586,-3.2212,-3.2658,-3.2747,-3.2747,-3.2731,-3.2682,-3.2715,-3.2568,-3.2196,-3.186,-3.2021,-3.2689,-3.2236,-3.2696,-3.4058,-3.3887,-3.4187,-3.4899,-3.4899,-3.4899,-3.4899,-3.4899,-3.5263,-3.5876,-3.5876,-3.6357,-3.7185,-3.7904,-3.8186,-3.8295,-3.9033,-3.9299,-3.9299,-3.9299,-3.9299,-3.9299,-3.9299,-3.9299,-3.9299,-3.9299,-3.9299,-3.9404,-3.9913,-3.9637,-3.9046,-3.8436,-3.8292,-3.8138,-3.7539,-3.8377,-3.914,-3.8527,-3.8931,-3.9388,-3.9388,-3.9388,-3.9388,-3.9388,-3.9388,-3.9582,-4.0165,-3.9624,-3.9291,-3.9622,-3.9052,-3.8514,-3.824,-3.8202,-3.8202,-3.8202,-3.8127,-3.772,-3.6936,-3.6002,-3.5156,-3.4439,-3.3569,-3.3124,-3.3124,-3.3124,-3.3124,-3.3124,-3.3124,-3.3332,-3.3822,-3.4437,-3.4944,0.0,0.0,0.0,0.0,0.0,0.0,-2.9393,-2.9349,-2.925,0.0,-2.8304,-2.8251,-2.8251,-2.8375,-2.8429,-2.8269,-2.8251,-2.8493,-2.9207,-2.9504,-2.979,-3.0211,-3.0588,-3.0957,-3.1253,-3.143,-3.1749,-3.2349,-3.2402,-3.2266,-3.1932,-3.2214,-3.2092,-3.1445,-3.1601,-3.1595,-3.1357,-3.1778,-3.2386,-3.3162,-3.3593,-3.4187,-3.4899,-3.4899,-3.4899,-3.4899,-3.4899,-3.4982,-3.5114,-3.5114,-3.5909,-3.7185,-3.7904,-3.8186,-3.8295,-3.9033,-3.9299,-3.9299,-3.9299,-3.9299,-3.9299,-3.9299,-3.9299,-3.9299,-3.9299,-3.9299,-3.9127,-3.8216,-3.7883,-3.7663,-3.7041,-3.7237,-3.7569,-3.7434,-3.8018,-3.8556,-3.8422,-3.8931,-3.9388,-3.9388,-3.9388,-3.9388,-3.9388,-3.9265,-3.9185,-3.9304,-3.9528,-3.9423,-3.8839,-3.9094,-3.9011,-3.8298,-3.8202,-3.8202,-3.8202,-3.7567,-3.7092,-3.6897,-3.5454,-3.4551,-3.4397,-3.3569,-3.3124,-3.3124,-3.3124,-3.3124,-3.3124,-3.3124,-3.3131,-3.3257,-3.4261,-3.4776,0.0,0.0,0.0,-3.1091,0.0,0.0,0.0,-2.8928,-2.8452,-2.8228,-2.7777,-2.7513,0.0,0.0,-2.7391,-2.7391,-2.7391,-2.7502,-2.7761,-2.82,-2.8597,-2.8868,-2.9377,-2.9717,-2.9754,-3.0122,-3.0645,-3.1411,-3.1934,-3.2039,-3.1658,-3.1841,-3.1694,-3.1131,-3.1274,-3.1274,-3.1112,-3.1321,-3.1955,-3.2956,-3.315,-3.3822,-3.4899,-3.4899,-3.4899,-3.4899,-3.4899,-3.4899,-3.4899,-3.4899,-3.5346,-3.6108,-3.7235,-3.7665,-3.7798,-3.8901,-3.9299,-3.9299,-3.9299,-3.9299,-3.9299,-3.9299,-3.9299,-3.9299,-3.9299,-3.9077,-3.8606,-3.7663,-3.717,-3.6748,-3.618,-3.6462,-3.6941,-3.6941,-3.7689,-3.8392,-3.8392,-3.8931,-3.9373,-3.9265,-3.9265,-3.9265,-3.9265,-3.9068,-3.8943,-3.8943,-3.9054,-3.8994,-3.8559,-3.8719,-3.8678,-3.8246,-3.8202,-3.8,-3.7606,-3.713,-3.6531,-3.5709,-3.4868,-3.4189,-3.3781,-3.3326,-3.3124,-3.3124,-3.3124,-3.3124,-3.3124,-3.3124,-3.3262,-3.3508,-3.4336,-3.4818,0.0,0.0,0.0,0.0,0.0,-3.0415,0.0,0.0,0.0,0.0,0.0,0.0,0.0,0.0,0.0,0.0,0.0,0.0,0.0,-2.7125,0.0,-2.7805,-2.8272,-2.8551,-2.8523,-2.9247,-2.9903,-3.0434,-3.1427,-3.186,-3.1488,-3.147,-3.1315,-3.0995,-3.0975,-3.1015,-3.1131,-3.1086,-3.1721,-3.2983,-3.294,-3.3607,-3.4899,-3.4899,-3.4899,-3.4899,-3.4899,-3.4899,-3.4899,-3.4899,-3.4899,-3.5032,-3.6373,-3.6986,-3.7268,-3.8619,-3.9183,-3.9299,-3.9299,-3.9299,-3.9299,-3.9299,-3.9299,-3.9299,-3.9299,-3.8745,-3.8023,-3.7546,-3.6845,-3.6101,-3.5619,-3.5893,-3.6297,-3.6297,-3.718,-3.8063,-3.8147,-3.868,-3.9116,-3.9038,-3.9031,-3.8995,-3.9031,-3.887,-3.876,-3.876,-3.8575,-3.8441,-3.8441,-3.8277,-3.8202,-3.8202,-3.8202,-3.7848,-3.6975,-3.6727,-3.6016,-3.4522,-3.423,-3.3823,-3.3111,-3.3124,-3.3124,-3.3124,-3.3124,-3.3124,-3.3124,-3.3124,-3.3357,-3.3909,-3.4462,-3.4969,0.0,0.0,0.0,0.0,-3.2454,0.0,0.0,0.0,-3.0273,-2.8963,0.0,0.0,0.0,0.0,0.0,0.0,0.0,0.0,-2.6268,-2.6545,-2.7195,-2.819,-2.7758,-2.7916,-2.9247,-3.0041,-3.0329,-3.0004,-3.1023,-3.147,-3.0995,-3.0975,-3.0955,-3.0912,-3.0912,-3.0912,-3.0932,-3.1441,-3.2112,-3.2923,-3.3443,-3.4104,-3.4899,-3.4899,-3.4899,-3.4899,-3.4899,-3.4899,-3.4899,-3.4899,-3.4899,-3.4982,-3.581,-3.6522,-3.7201,-3.803,-3.8725,-3.9299,-3.9299,-3.9299,-3.9299,-3.9299,-3.9299,-3.9299,-3.9299,-3.8467,-3.7488,-3.7429,-3.6523,-3.5602,-3.5537,-3.5564,-3.5609,-3.5609,-3.6178,-3.6817,-3.7179,-3.7783,-3.8371,-3.8752,-3.8686,-3.8612,-3.8797,-3.8649,-3.8553,-3.8553,-3.8352,-3.824,-3.824,-3.8202,-3.8202,-3.8202,-3.8202,-3.7848,-3.6975,-3.6188,-3.5359,-3.4481,-3.3654,-3.3197,-3.3124,-3.3124,-3.3124,-3.3124,-3.3124,-3.3124,-3.3124,-3.3124,-3.3357,-3.3909,-3.4462,-3.4969,0.0,0.0,0.0,0.0,0.0,0.0,-3.0418,0.0,-2.9815,0.0,0.0,0.0,0.0,0.0,0.0,0.0,-2.6719,0.0,0.0,0.0,-2.6877,0.0,0.0,0.0,-2.781,-2.8884,-2.9303,-2.8661,-3.0224,-3.0892,-3.0176,-3.054,-3.0773,-3.0773,-3.0773,-3.0831,-3.0892,-3.107,-3.1757,-3.2901,-3.3095,-3.3756,-3.4899,-3.4899,-3.4899,-3.4899,-3.4899,-3.4899,-3.4899,-3.4899,-3.4899,-3.4932,-3.5247,-3.6075,-3.7201,-3.7947,-3.8659,-3.9299,-3.9299,-3.9299,-3.9299,-3.9299,-3.9299,-3.9245,-3.8843,-3.8096,-3.731,-3.692,-3.6164,-3.5504,-3.5504,-3.5504,-3.5609,-3.5983,-3.6216,-3.6473,-3.706,-3.7573,-3.8014,-3.8083,-3.8326,-3.8478,-3.8464,-3.8389,-3.8329,-3.8329,-3.824,-3.8202,-3.8202,-3.8202,-3.8202,-3.8202,-3.8202,-3.763,-3.6267,-3.5829,-3.5033,-3.3738,-3.3283,-3.3124,-3.3124,-3.3124,-3.3124,-3.3124,-3.3124,-3.3124,-3.3124,-3.3124,-3.3357,-3.3909,-3.4462,-3.4969,-3.2852,0.0,0.0,0.0,0.0,0.0,0.0,0.0,0.0,0.0,0.0,0.0,0.0,0.0,0.0,0.0,0.0,-2.686,0.0,0.0,0.0,0.0,0.0,0.0,0.0,-2.791,-2.8399,-2.7698,-2.9366,-3.0163,-2.9573,-3.0052,-3.0434,-3.0651,-3.0651,-3.0692,-3.079,-3.0891,-3.1598,-3.284,-3.294,-3.3657,-3.4899,-3.4899,-3.4899,-3.4899,-3.4899,-3.4899,-3.4899,-3.4899,-3.4899,-3.4899,-3.4899,-3.5794,-3.7168,-3.7715,-3.8477,-3.9299,-3.9299,-3.9299,-3.9299,-3.9299,-3.9175,-3.8925,-3.8435,-3.7735,-3.7011,-3.6554,-3.5973,-3.5504,-3.5504,-3.5472,-3.5559,-3.6037,-3.5993,-3.6022,-3.664,-3.7019,-3.7319,-3.747,-3.7872,-3.8177,-3.8211,-3.8202,-3.8202,-3.8202,-3.8202,-3.8202,-3.8202,-3.8202,-3.8202,-3.8202,-3.8,-3.7232,-3.5735,-3.5386,-3.4635,-3.3197,-3.3124,-3.3124,-3.3124,-3.3124,-3.3124,-3.3124,-3.3124,-3.3124,-3.3124,-3.3124,-3.3282,-3.3684,-3.4147,-3.474,0.0,0.0,0.0,-3.3541,0.0,0.0,0.0,0.0,-3.092,0.0,0.0,0.0,0.0,0.0,0.0,0.0,0.0,0.0,0.0,0.0,0.0,0.0,0.0,0.0,0.0,-2.7739,-2.8168,-2.7541,-2.8589,-2.9299,-2.9387,-2.9433,-2.9781,-3.0472,-3.0506,-3.0506,-3.051,-3.1217,-3.1951,-3.2718,-3.3448,-3.4154,-3.4899,-3.4899,-3.4899,-3.4899,-3.4899,-3.4899,-3.4899,-3.4899,-3.4899,-3.4899,-3.4899,-3.5794,-3.7102,-3.7135,-3.8046,-3.9299,-3.9299,-3.9299,-3.9299,-3.9299,-3.8871,-3.8351,-3.8322,-3.7413,-3.643,-3.6399,-3.5973,-3.5504,-3.5504,-3.5359,-3.5228,-3.5243,-3.5078,-3.5074,-3.5536,-3.5648,-3.6009,-3.7092,-3.7317,-3.752,-3.8101,-3.8202,-3.8202,-3.8202,-3.8202,-3.8202,-3.8202,-3.8202,-3.8202,-3.8202,-3.7453,-3.657,-3.5655,-3.4896,-3.4063,-3.3167,-3.3124,-3.3124,-3.3124,-3.3124,-3.3124,-3.3124,-3.3124,-3.3124,-3.3124,-3.3124,-3.3124,-3.3119,-3.3395,-3.4152,0.0,0.0,-3.3106,-3.3339,0.0,0.0,0.0,0.0,0.0,0.0,0.0,0.0,0.0,0.0,0.0,0.0,0.0,0.0,0.0,0.0,0.0,0.0,0.0,0.0,0.0,0.0,0.0,-2.6766,-2.7978,-2.8509,-2.8028,-2.8887,-2.9496,-2.9761,-3.0241,-3.0506,-3.0506,-3.1234,-3.1984,-3.2718,-3.3442,-3.4187,-3.4899,-3.4899,-3.4899,-3.4899,-3.4899,-3.4899,-3.4899,-3.4899,-3.4899,-3.4899,-3.4899,-3.5794,-3.7102,-3.7102,-3.803,-3.9299,-3.9299,-3.9299,-3.9299,-3.9299,-3.8843,-3.8238,-3.7838,-3.7101,-3.6321,-3.591,-3.5651,-3.5472,-3.5326,-3.5261,-3.518,-3.5034,-3.4883,-3.4926,-3.5473,-3.555,-3.5709,-3.6475,-3.7012,-3.7375,-3.7578,-3.7941,-3.8202,-3.8202,-3.8202,-3.8202,-3.8202,-3.8202,-3.8202,-3.8202,-3.7414,-3.657,-3.5655,-3.4317,-3.3411,-3.3124,-3.3124,-3.3124,-3.3124,-3.3124,-3.3124,-3.3124,-3.3124,-3.3124,-3.3124,-3.3124,-3.3124,-3.3081,-3.2878,-3.3229,-3.432,-3.3643,0.0,-3.3355,-3.2493,0.0,-3.187,0.0,-3.119,0.0,0.0,0.0,0.0,0.0,0.0,0.0,0.0,0.0,0.0,-2.6926,0.0,0.0,0.0,0.0,0.0,0.0,-2.7041,-2.6346,-2.7178,-2.7707,0.0,-2.8539,-2.9268,-2.9777,-3.0241,-3.0506,-3.0506,-3.1234,-3.1984,-3.2718,-3.3442,-3.4187,-3.4899,-3.4899,-3.4899,-3.4899,-3.4899,-3.4899,-3.4899,-3.4899,-3.4899,-3.4932,-3.5181,-3.6025,-3.7102,-3.7102,-3.803,-3.9299,-3.9299,-3.9299,-3.9272,-3.9023,-3.8507,-3.7851,-3.7221,-3.6569,-3.599,-3.5619,-3.5439,-3.5359,-3.5213,-3.5115,-3.4997,-3.485,-3.4892,-3.4976,-3.5137,-3.5287,-3.5581,-3.6185,-3.6649,-3.7099,-3.7549,-3.7941,-3.8202,-3.8202,-3.8202,-3.8202,-3.8202,-3.8202,-3.8089,-3.7772,-3.6961,-3.5963,-3.4828,-3.3713,-3.3124,-3.3124,-3.3124,-3.3124,-3.3124,-3.3124,-3.3257,-3.3658,-3.3269,-3.3269,-3.3658,-3.317,-3.2939,-3.2939,-3.2475,-3.2528]},{"header":{"parameterUnit":"m.s-1","parameterCategory":1,"la1":30.6,"la2":29.2853,"lo1":-89.7004,"lo2":-87.6739,"dy":0.0162,"dx":0.0183,"nx":112,"ny":82,"refTime":"2023-03-06T06:00:00:Z","depth":0,"parameterNumber":3,"parameterNumberName":"V-component_of_WINDS"},"data":[0.0,0.0,0.0,0.0,0.0,0.0,0.0,0.0,0.0,0.0,0.0,0.0,0.0,0.0,0.0,0.0,0.0,0.0,0.0,0.0,0.0,0.0,0.0,0.0,0.0,0.0,0.0,0.0,0.0,0.0,0.0,0.0,0.0,0.0,0.0,0.0,0.0,0.0,0.0,0.0,0.0,0.0,0.0,0.0,0.0,0.0,0.0,0.0,0.0,0.0,0.0,0.0,0.0,0.0,0.0,0.0,0.0,0.0,0.0,0.0,0.0,0.0,0.0,0.0,0.0,0.0,0.0,0.0,0.0,0.0,0.0,0.0,0.0,0.0,0.0,0.0,0.0,0.0,0.0,0.0,0.0,0.0,0.0,0.0,0.0,0.0,0.0,0.0,0.0,0.0,2.3844,2.3546,2.5621,2.7467,2.85,2.9229,2.9058,2.7782,0.0,0.0,0.0,0.0,0.0,0.0,0.0,0.0,0.0,0.0,0.0,0.0,0.0,0.0,0.0,0.0,0.0,0.0,0.0,0.0,0.0,0.0,0.0,0.0,0.0,0.0,0.0,0.0,0.0,0.0,0.0,0.0,0.0,0.0,0.0,0.0,0.0,0.0,0.0,0.0,0.0,0.0,0.0,0.0,0.0,0.0,0.0,0.0,0.0,0.0,0.0,0.0,0.0,0.0,0.0,0.0,0.0,0.0,0.0,0.0,0.0,0.0,0.0,0.0,0.0,0.0,0.0,0.0,0.0,0.0,0.0,0.0,0.0,0.0,0.0,0.0,0.0,0.0,0.0,0.0,0.0,0.0,0.0,0.0,0.0,0.0,0.0,0.0,0.0,0.0,0.0,0.0,0.0,0.0,0.0,0.0,0.0,0.0,0.0,0.0,0.0,0.0,0.0,0.0,2.3793,2.5234,2.6767,2.7914,2.8561,2.9229,2.9058,2.7782,0.0,0.0,0.0,0.0,0.0,0.0,0.0,0.0,0.0,0.0,0.0,0.0,0.0,0.0,0.0,0.0,0.0,0.0,0.0,0.0,0.0,0.0,0.0,0.0,0.0,0.0,0.0,0.0,0.0,0.0,0.0,0.0,0.0,0.0,0.0,0.0,0.0,0.0,0.0,0.0,0.0,0.0,0.0,0.0,0.0,0.0,0.0,0.0,0.0,0.0,0.0,0.0,0.0,0.0,0.0,0.0,0.0,0.0,0.0,0.0,0.0,0.0,0.0,0.0,0.0,0.0,0.0,0.0,0.0,0.0,0.0,0.0,0.0,0.0,0.0,0.0,0.0,0.0,0.0,0.0,0.0,0.0,0.0,0.0,0.0,0.0,0.0,0.0,0.0,0.0,0.0,0.0,0.0,0.0,0.0,0.0,0.0,0.0,0.0,0.0,0.0,0.0,0.0,2.3614,2.4024,2.5249,2.6462,2.7464,2.8113,2.8412,2.8319,2.7739,2.7376,0.0,0.0,0.0,0.0,0.0,0.0,0.0,0.0,0.0,0.0,0.0,0.0,0.0,0.0,0.0,0.0,0.0,0.0,0.0,0.0,0.0,0.0,0.0,0.0,0.0,0.0,0.0,0.0,0.0,0.0,0.0,0.0,0.0,0.0,0.0,0.0,0.0,0.0,0.0,0.0,0.0,0.0,0.0,0.0,0.0,0.0,0.0,0.0,0.0,0.0,0.0,0.0,0.0,0.0,0.0,0.0,0.0,0.0,0.0,0.0,0.0,0.0,0.0,0.0,0.0,0.0,0.0,0.0,0.0,0.0,0.0,0.0,0.0,0.0,0.0,0.0,0.0,0.0,0.0,0.0,0.0,0.0,0.0,0.0,0.0,0.0,0.0,0.0,0.0,0.0,0.0,0.0,0.0,0.0,0.0,0.0,0.0,0.0,0.0,0.0,0.0,0.0,2.4275,2.4602,2.5575,2.6424,2.7161,2.774,2.7722,2.7637,2.7492,2.7055,0.0,0.0,0.0,0.0,0.0,0.0,0.0,0.0,0.0,0.0,0.0,0.0,0.0,0.0,0.0,0.0,0.0,0.0,0.0,0.0,0.0,0.0,0.0,0.0,0.0,0.0,0.0,0.0,0.0,0.0,0.0,0.0,0.0,0.0,0.0,0.0,0.0,0.0,0.0,0.0,0.0,0.0,0.0,0.0,0.0,0.0,0.0,0.0,0.0,0.0,0.0,0.0,0.0,0.0,0.0,0.0,0.0,0.0,0.0,0.0,0.0,0.0,0.0,0.0,0.0,0.0,0.0,0.0,0.0,0.0,0.0,0.0,0.0,0.0,0.0,0.0,0.0,0.0,0.0,0.0,0.0,0.0,0.0,0.0,0.0,0.0,0.0,0.0,0.0,0.0,0.0,0.0,0.0,0.0,0.0,0.0,0.0,0.0,0.0,0.0,0.0,0.0,2.494,2.5625,2.7421,2.7626,2.7644,2.7713,2.7697,2.7449,2.6895,2.6835,0.0,0.0,0.0,0.0,0.0,0.0,0.0,0.0,0.0,0.0,0.0,0.0,0.0,0.0,0.0,0.0,0.0,0.0,0.0,0.0,0.0,0.0,0.0,0.0,0.0,0.0,0.0,0.0,0.0,0.0,0.0,0.0,0.0,0.0,0.0,0.0,0.0,0.0,0.0,0.0,0.0,0.0,0.0,0.0,0.0,0.0,0.0,0.0,0.0,0.0,0.0,0.0,0.0,0.0,0.0,0.0,0.0,0.0,0.0,0.0,0.0,0.0,0.0,0.0,0.0,0.0,0.0,0.0,0.0,0.0,0.0,0.0,0.0,0.0,0.0,0.0,0.0,0.0,0.0,0.0,0.0,0.0,0.0,0.0,0.0,0.0,0.0,0.0,0.0,0.0,0.0,0.0,0.0,0.0,0.0,0.0,0.0,0.0,0.0,0.0,0.0,0.0,2.4669,2.5301,2.6428,2.7193,2.7673,2.7769,2.8122,2.8057,2.7391,0.0,0.0,0.0,0.0,0.0,0.0,0.0,0.0,0.0,0.0,0.0,0.0,0.0,0.0,0.0,0.0,0.0,0.0,0.0,0.0,0.0,0.0,0.0,0.0,0.0,0.0,0.0,0.0,0.0,0.0,0.0,0.0,0.0,0.0,0.0,0.0,0.0,0.0,0.0,0.0,0.0,0.0,0.0,0.0,0.0,0.0,0.0,0.0,0.0,0.0,0.0,0.0,0.0,0.0,0.0,0.0,0.0,0.0,0.0,0.0,0.0,0.0,0.0,0.0,0.0,0.0,0.0,0.0,0.0,0.0,0.0,0.0,0.0,0.0,0.0,0.0,0.0,0.0,0.0,0.0,0.0,0.0,0.0,0.0,0.0,0.0,0.0,0.0,0.0,0.0,0.0,0.0,0.0,0.0,0.0,0.0,0.0,0.0,0.0,0.0,0.0,0.0,2.4455,2.491,2.553,2.6587,2.7445,2.8005,2.8082,2.8468,2.8492,2.8057,0.0,0.0,0.0,0.0,0.0,0.0,0.0,0.0,0.0,0.0,0.0,0.0,0.0,0.0,0.0,0.0,0.0,0.0,0.0,0.0,0.0,0.0,0.0,0.0,0.0,0.0,0.0,0.0,0.0,0.0,0.0,0.0,0.0,0.0,0.0,0.0,0.0,0.0,0.0,0.0,0.0,0.0,0.0,0.0,0.0,0.0,0.0,0.0,0.0,0.0,0.0,0.0,0.0,0.0,0.0,0.0,0.0,0.0,0.0,0.0,0.0,0.0,0.0,0.0,0.0,0.0,0.0,0.0,0.0,0.0,0.0,0.0,0.0,0.0,0.0,0.0,0.0,0.0,0.0,0.0,0.0,0.0,0.0,0.0,0.0,0.0,0.0,0.0,0.0,0.0,0.0,0.0,0.0,0.0,0.0,0.0,0.0,0.0,0.0,0.0,0.0,0.0,2.5566,2.5868,2.6587,2.84,2.8655,2.8695,2.8723,2.8723,2.8723,0.0,0.0,0.0,0.0,0.0,0.0,0.0,0.0,0.0,0.0,0.0,0.0,0.0,0.0,0.0,0.0,0.0,0.0,0.0,0.0,0.0,0.0,0.0,0.0,0.0,0.0,0.0,0.0,0.0,0.0,0.0,0.0,0.0,0.0,0.0,0.0,0.0,0.0,0.0,0.0,0.0,0.0,0.0,0.0,0.0,0.0,0.0,0.0,0.0,0.0,0.0,0.0,0.0,0.0,0.0,0.0,0.0,0.0,0.0,0.0,0.0,0.0,0.0,0.0,0.0,0.0,0.0,0.0,0.0,0.0,0.0,0.0,0.0,0.0,0.0,0.0,0.0,0.0,0.0,0.0,0.0,0.0,0.0,0.0,0.0,0.0,0.0,0.0,0.0,0.0,0.0,0.0,0.0,0.0,0.0,0.0,0.0,0.0,0.0,0.0,0.0,0.0,0.0,2.4963,2.5886,2.6988,2.8388,2.9019,2.9511,3.0016,3.0045,2.9827,2.9377,0.0,0.0,0.0,0.0,0.0,0.0,0.0,0.0,0.0,0.0,0.0,0.0,0.0,0.0,0.0,0.0,0.0,0.0,0.0,0.0,0.0,0.0,0.0,0.0,0.0,0.0,0.0,0.0,0.0,0.0,0.0,0.0,0.0,0.0,0.0,0.0,0.0,0.0,0.0,0.0,0.0,0.0,0.0,0.0,0.0,0.0,0.0,0.0,0.0,0.0,0.0,0.0,0.0,0.0,0.0,0.0,0.0,0.0,0.0,0.0,0.0,0.0,0.0,0.0,0.0,0.0,0.0,0.0,0.0,0.0,0.0,0.0,0.0,0.0,0.0,0.0,0.0,0.0,0.0,0.0,0.0,0.0,0.0,0.0,0.0,0.0,0.0,0.0,0.0,0.0,0.0,0.0,0.0,0.0,0.0,0.0,0.0,0.0,0.0,0.0,0.0,0.0,2.4713,2.6154,2.7461,2.8392,2.9407,3.016,3.0568,3.0598,3.0438,3.0031,0.0,0.0,0.0,0.0,0.0,0.0,0.0,0.0,0.0,0.0,0.0,0.0,0.0,0.0,0.0,0.0,0.0,0.0,0.0,0.0,0.0,0.0,0.0,0.0,0.0,0.0,0.0,0.0,0.0,0.0,0.0,0.0,0.0,0.0,0.0,0.0,0.0,0.0,0.0,0.0,0.0,0.0,0.0,0.0,0.0,0.0,0.0,0.0,0.0,0.0,0.0,0.0,0.0,0.0,0.0,0.0,0.0,0.0,0.0,0.0,0.0,0.0,0.0,0.0,0.0,0.0,0.0,0.0,0.0,0.0,0.0,0.0,0.0,0.0,0.0,0.0,0.0,0.0,0.0,0.0,0.0,0.0,0.0,0.0,0.0,0.0,0.0,0.0,0.0,0.0,0.0,0.0,0.0,0.0,0.0,0.0,0.0,0.0,0.0,0.0,0.0,0.0,2.482,2.657,2.7958,2.8438,2.9763,3.0598,3.0598,3.0598,3.0598,3.0598,0.0,0.0,0.0,0.0,0.0,0.0,0.0,0.0,0.0,0.0,0.0,0.0,0.0,0.0,0.0,0.0,0.0,0.0,0.0,0.0,0.0,0.0,0.0,0.0,0.0,0.0,0.0,0.0,0.0,0.0,0.0,0.0,0.0,0.0,0.0,0.0,0.0,0.0,0.0,0.0,0.0,0.0,0.0,0.0,0.0,0.0,0.0,0.0,0.0,0.0,0.0,0.0,0.0,0.0,0.0,0.0,0.0,0.0,0.0,0.0,1.8115,1.8008,0.0,0.0,0.0,0.0,0.0,0.0,0.0,0.0,0.0,0.0,0.0,0.0,0.0,0.0,0.0,0.0,0.0,0.0,0.0,0.0,0.0,0.0,0.0,0.0,0.0,0.0,0.0,0.0,0.0,0.0,0.0,0.0,0.0,0.0,0.0,0.0,0.0,0.0,0.0,0.0,2.536,2.7117,2.8388,2.8478,2.9763,3.0598,3.0598,3.0598,3.0598,3.0598,2.9972,0.0,0.0,0.0,0.0,0.0,0.0,0.0,0.0,0.0,0.0,0.0,0.0,0.0,0.0,0.0,0.0,0.0,0.0,0.0,0.0,0.0,0.0,0.0,0.0,0.0,0.0,0.0,0.0,0.0,0.0,0.0,0.0,0.0,0.0,0.0,0.0,0.0,0.0,0.0,0.0,0.0,0.0,0.0,0.0,0.0,0.0,0.0,0.0,0.0,0.0,0.0,0.0,0.0,0.0,0.0,0.0,0.0,0.0,0.0,1.8721,1.8623,0.0,0.0,0.0,0.0,0.0,0.0,0.0,0.0,0.0,0.0,0.0,0.0,0.0,0.0,0.0,0.0,0.0,0.0,0.0,0.0,0.0,0.0,0.0,0.0,0.0,0.0,0.0,0.0,0.0,0.0,0.0,0.0,0.0,0.0,0.0,0.0,0.0,0.0,0.0,0.0,2.5561,2.7019,2.8149,2.846,2.947,3.0251,3.0568,3.0598,3.0598,3.0598,3.0263,0.0,0.0,0.0,0.0,0.0,0.0,0.0,0.0,0.0,0.0,0.0,0.0,0.0,0.0,0.0,0.0,0.0,0.0,0.0,0.0,0.0,0.0,0.0,0.0,0.0,0.0,0.0,0.0,0.0,0.0,0.0,0.0,0.0,0.0,0.0,0.0,0.0,0.0,0.0,0.0,0.0,0.0,0.0,0.0,0.0,0.0,0.0,0.0,0.0,0.0,0.0,0.0,0.0,1.9081,1.9629,1.9629,1.9707,1.9736,1.9736,1.9658,1.9502,1.9258,1.8896,0.0,0.0,0.0,0.0,0.0,0.0,0.0,0.0,0.0,0.0,0.0,0.0,0.0,0.0,0.0,0.0,0.0,0.0,0.0,0.0,0.0,0.0,2.6013,2.6524,2.6713,2.6537,2.5598,0.0,0.0,0.0,0.0,0.0,0.0,0.0,0.0,0.0,0.0,0.0,2.5862,2.6907,2.7921,2.8739,2.9378,3.0009,3.0697,3.067,3.0598,3.0598,3.0598,3.0598,0.0,0.0,0.0,0.0,0.0,0.0,0.0,0.0,0.0,0.0,0.0,0.0,0.0,0.0,0.0,0.0,0.0,0.0,0.0,0.0,0.0,0.0,0.0,0.0,0.0,0.0,0.0,0.0,0.0,0.0,0.0,0.0,1.3721,1.3254,0.0,0.0,0.0,0.0,0.0,0.0,0.0,0.0,0.0,0.0,0.0,0.0,0.0,1.5349,1.648,1.7886,1.891,1.9606,2.0508,2.0937,2.0947,2.1367,2.1543,2.1523,2.1143,0.0,1.9287,1.9228,0.0,0.0,0.0,0.0,0.0,0.0,0.0,0.0,0.0,0.0,0.0,0.0,0.0,0.0,0.0,0.0,0.0,0.0,0.0,0.0,0.0,0.0,2.7115,2.719,2.7544,2.7846,2.7708,2.6917,2.6285,2.6285,2.5837,2.5485,0.0,0.0,0.0,0.0,0.0,0.0,2.6942,2.7721,2.8686,2.9923,3.0201,3.0584,3.1333,3.0887,3.0598,3.0598,3.0598,3.0598,3.0598,3.0525,0.0,0.0,0.0,0.0,0.0,0.0,0.0,0.0,0.0,0.0,0.0,0.0,0.0,0.0,0.0,0.0,0.0,0.0,0.0,0.0,0.0,0.0,0.0,0.0,0.0,0.0,0.0,0.0,0.0,1.3621,1.3608,1.2968,1.3219,1.3178,0.0,0.0,0.0,0.0,0.0,0.0,0.0,0.0,0.0,1.5693,1.6063,1.7077,1.8819,1.9722,2.0302,2.0625,2.1299,2.1602,2.1611,2.1797,2.1885,2.1875,2.168,2.1279,2.0693,1.9951,1.9639,1.9619,0.0,0.0,0.0,0.0,2.14,2.2154,2.3978,2.4703,2.4983,2.5831,0.0,0.0,0.0,0.0,0.0,0.0,0.0,2.6826,2.626,2.6904,2.767,2.7356,2.7708,2.8109,2.8109,2.772,2.7329,2.7014,2.6967,2.6804,2.6223,2.6402,0.0,0.0,0.0,2.7193,2.7682,2.802,2.8547,2.9508,3.0066,3.0452,3.0764,3.1314,3.1454,3.1016,3.1423,3.1671,3.1671,3.1671,3.1671,0.0,0.0,0.0,0.0,0.0,0.0,0.0,0.0,0.0,0.0,0.0,0.0,0.0,0.0,0.0,0.0,0.0,0.0,0.0,0.0,0.0,0.0,0.0,0.0,0.0,0.0,0.0,0.0,1.3581,1.3596,1.2787,1.3178,1.3241,0.0,0.0,0.0,0.0,0.0,0.0,1.3751,1.3898,1.4939,1.6912,1.7119,1.8165,2.0195,2.0833,2.1308,2.1522,2.2002,2.2207,2.2207,2.2207,2.2207,2.2197,2.209,2.2041,2.1963,2.0869,2.0352,2.0215,1.9902,1.9912,2.0239,2.1522,2.2222,2.2821,2.4903,2.5673,2.5864,2.6656,2.6914,2.6864,2.6575,0.0,0.0,0.0,0.0,2.7394,2.7014,2.7595,2.821,2.7795,2.8122,2.8536,2.8536,2.8536,2.8323,2.7632,2.7821,2.7846,2.7052,2.7557,0.0,0.0,0.0,2.816,2.8298,2.831,2.8642,2.947,2.9971,3.0263,3.0437,3.1499,3.1921,3.1321,3.2065,3.2481,3.2481,3.2481,3.2481,3.2481,0.0,0.0,0.0,0.0,0.0,0.0,0.0,0.0,0.0,0.0,0.0,0.0,0.0,0.0,0.0,0.0,0.0,0.0,0.0,0.0,0.0,0.0,0.0,0.0,0.0,0.0,0.0,0.0,0.0,1.3096,1.3491,0.0,0.0,0.0,0.0,1.2978,1.3123,1.3628,1.4691,1.4453,1.4955,1.6396,1.6924,1.7842,1.9144,2.0447,2.1569,2.2451,2.2838,2.3033,2.3033,2.3033,2.3033,2.3013,2.2656,2.248,2.2441,2.1982,2.1543,2.1122,2.1103,2.0889,2.0809,2.2828,2.3716,2.4238,2.656,2.7484,2.7717,2.7949,2.8021,2.7821,2.6813,2.7228,0.0,0.0,2.7645,2.8059,2.8034,2.8448,2.8838,2.8813,2.9289,2.9704,2.9704,2.9704,2.9377,2.8273,2.8084,2.8084,2.8034,0.0,2.8097,2.8059,2.8084,2.8298,2.8787,2.885,2.9365,3.0677,3.0346,3.0286,3.101,3.1252,3.1354,3.1287,3.2065,3.2481,3.2481,3.2481,3.2481,3.2481,3.2452,0.0,0.0,0.0,0.0,0.0,0.0,0.0,0.0,0.0,0.0,0.0,0.0,0.0,0.0,0.0,0.0,0.0,0.0,0.0,0.0,0.0,0.0,0.0,0.0,0.0,0.0,0.0,0.0,1.3677,1.3754,0.0,1.3665,1.3433,1.34,1.3559,1.4028,1.448,1.4978,1.5076,1.5835,1.7317,1.7565,1.8322,1.9785,2.0287,2.1024,2.1976,2.2117,2.2511,2.3091,2.3091,2.3091,2.3091,2.2935,2.2877,2.2867,2.2711,2.2285,2.165,2.165,2.1553,2.1668,2.3642,2.4465,2.495,2.6976,2.7828,2.8,2.8073,2.8109,2.8034,2.7645,2.7795,2.8059,2.7871,2.821,2.8549,2.8197,2.88,2.939,2.8976,2.9365,2.9792,2.9792,2.9792,2.9679,2.9264,2.9189,2.8963,2.8235,2.8712,2.9063,2.865,2.895,2.9264,2.9453,2.9478,2.9668,3.0152,3.0414,3.0682,3.0963,3.1899,3.2533,3.2533,3.3269,3.3732,3.3732,3.3732,3.3732,3.3732,3.334,3.3122,0.0,0.0,0.0,0.0,0.0,0.0,0.0,0.0,0.0,0.0,0.0,0.0,0.0,0.0,0.0,0.0,0.0,0.0,0.0,0.0,0.0,0.0,0.0,0.0,0.0,0.0,1.4141,1.4254,1.4349,1.4368,1.4262,1.4124,1.41,1.4334,1.4752,1.5191,1.5606,1.5807,1.6449,1.7667,1.7682,1.8367,1.9687,1.9741,2.024,2.1195,2.1561,2.2015,2.2643,2.296,2.3091,2.3091,2.3091,2.3091,2.3091,2.3091,2.2812,2.2295,2.2158,2.2012,2.2101,2.3773,2.4498,2.4918,2.7038,2.8174,2.8649,2.8448,2.8511,2.8599,2.8222,2.8373,2.8637,2.8436,2.8787,2.9139,2.8775,2.9227,2.9691,2.9315,2.9515,2.9792,2.9792,2.9792,2.9792,2.9792,2.9792,2.9553,2.88,2.9302,2.9666,2.9277,2.9553,2.9792,2.9792,2.9792,2.9792,2.9792,3.0241,3.062,3.0895,3.1842,3.2635,3.3178,3.3707,3.4113,3.438,3.4414,3.4414,3.4414,3.4008,3.3823,3.3823,0.0,0.0,0.0,0.0,0.0,0.0,0.0,0.0,0.0,0.0,0.0,0.0,0.0,0.0,0.0,0.0,0.0,0.0,0.0,0.0,0.0,0.0,0.0,1.3977,1.4492,1.4904,1.4853,1.5291,1.5397,1.4839,1.4862,1.5034,1.5246,1.5311,1.57,1.6581,1.6561,1.6757,1.7286,1.7286,1.7738,1.875,1.8742,1.9239,2.0232,2.1195,2.1695,2.1784,2.2687,2.3091,2.3091,2.3091,2.3091,2.3091,2.3091,2.3091,2.3052,2.2685,2.2285,2.2097,2.3349,2.3867,2.4293,2.6926,2.8712,2.9691,2.9139,2.934,2.9591,2.8499,2.8925,2.9679,2.9076,2.9365,2.9792,2.9792,2.9792,2.9792,2.9792,2.9792,2.9792,2.9792,2.9792,2.9792,2.9792,2.9792,2.9792,2.9792,2.9792,2.9792,2.9792,2.9792,0.0,2.9792,2.9792,2.9792,2.9792,2.9792,3.0101,3.0857,3.0932,3.1586,3.3143,3.3227,3.3589,3.438,3.4414,3.4414,3.4414,3.4414,3.4414,3.4414,0.0,0.0,0.0,0.0,0.0,0.0,0.0,0.0,0.0,0.0,0.0,0.0,0.0,0.0,0.0,0.0,0.0,0.0,0.0,0.0,0.0,0.0,1.4567,1.4502,1.5367,1.6009,1.6106,1.6246,1.6359,1.6446,1.631,1.6211,1.6293,1.6498,1.669,1.6959,1.658,1.6594,1.7055,1.6883,1.7099,1.7692,1.7692,1.8557,2.0187,2.0458,2.1364,2.2731,2.296,2.3091,2.3091,2.3091,2.3091,2.3091,2.3091,2.3091,2.3081,2.2974,2.2847,2.2889,2.3931,2.5332,2.6903,2.843,2.9326,2.9767,2.9603,2.9666,2.9729,2.9428,2.9553,2.9767,2.9603,2.9666,2.9792,2.9792,2.9792,2.9792,2.9792,2.9792,2.9792,2.9792,2.9792,2.9792,2.9792,2.9792,2.9792,2.9792,2.9792,2.9792,2.9792,2.9792,0.0,2.9792,2.9792,2.9792,2.9792,2.9792,3.033,3.1636,3.1783,3.2434,3.3962,3.4079,3.4147,3.438,3.4414,3.4414,3.4414,3.4414,3.4414,0.0,0.0,0.0,0.0,0.0,0.0,0.0,0.0,0.0,0.0,0.0,0.0,0.0,0.0,0.0,0.0,0.0,0.0,0.0,0.0,0.0,0.0,1.5244,1.5469,1.5637,1.6104,1.6644,1.7081,1.7262,1.7285,1.7274,1.7148,1.7056,1.7045,1.71,1.7225,1.745,1.6993,1.7009,1.7526,1.7275,1.7253,1.753,1.753,1.8014,1.901,1.9824,2.0773,2.1908,2.2731,2.3091,2.3091,2.3091,2.3091,2.3091,2.3091,2.3091,2.3091,0.0,0.0,0.0,0.0,2.5274,2.7209,2.7947,2.8819,2.965,2.9753,2.9792,2.9792,2.9792,2.9792,2.9792,2.9792,2.9792,2.9792,2.9792,2.9792,2.9792,2.9792,2.9792,2.9792,2.9792,2.9792,2.9792,2.9792,2.9792,0.0,2.9792,2.9792,2.9792,2.9792,2.9792,2.9792,2.9792,2.9792,2.9792,2.9792,3.0075,3.0746,3.2015,3.211,0.0,0.0,0.0,3.4045,3.438,3.4414,0.0,0.0,0.0,3.4414,3.4414,3.4481,0.0,0.0,3.4773,3.486,0.0,0.0,0.0,0.0,0.0,0.0,0.0,0.0,0.0,0.0,0.0,0.0,0.0,0.0,0.0,0.0,1.6334,1.6736,1.7154,1.6869,1.6982,1.7817,1.8095,1.811,1.7653,1.7553,1.7578,1.7702,1.7424,1.7484,1.8061,1.7725,0.0,0.0,0.0,1.7826,1.7874,1.7838,1.7717,1.7572,1.9255,2.0141,2.0413,2.2138,2.3003,2.3091,2.3091,2.3091,2.3091,2.3091,2.3091,2.3091,2.3091,2.3091,2.3091,2.3222,2.4425,2.6036,2.6472,0.0,0.0,2.9624,2.9753,2.974,2.974,2.9792,2.9792,2.9792,2.9792,2.9792,2.9792,2.9792,2.9792,2.9792,2.9792,2.9792,2.9792,2.9792,2.9792,2.9792,2.9792,2.9792,2.9792,2.9792,2.9792,2.9792,2.9792,2.9792,2.9792,2.9792,2.9792,2.9792,0.0,0.0,3.2001,3.211,3.2769,3.4298,3.3742,3.3673,3.438,3.4414,3.4414,3.4414,3.4414,3.4414,3.4414,3.4597,3.4664,3.4698,3.4835,3.4902,0.0,0.0,0.0,0.0,0.0,0.0,0.0,0.0,0.0,0.0,0.0,0.0,0.0,0.0,0.0,1.6557,1.6836,1.7279,1.8311,1.8039,1.7781,1.7964,1.8049,1.8099,1.8247,1.8047,1.8022,1.8227,1.8178,1.8334,1.8717,1.8207,1.803,1.8354,1.8046,1.7972,1.8211,1.7947,1.8155,1.8934,1.9015,0.0,2.1418,2.1784,2.2369,2.3091,2.3091,2.3091,2.3091,2.3091,2.3091,2.3091,2.3091,2.3091,2.3178,2.394,2.4563,2.5284,2.6801,2.7678,2.8251,2.9,2.9365,2.947,2.947,2.9611,0.0,2.9792,2.9792,2.9792,2.9792,2.9792,2.9792,2.9792,2.9792,2.9792,2.9792,2.9792,2.9792,2.9792,2.9792,2.9792,2.9792,2.9792,2.9792,2.9792,2.9792,2.9792,2.9792,2.9792,2.9792,2.9792,2.9934,3.057,3.1978,3.211,3.2769,3.4298,3.4264,3.423,3.438,3.4414,3.4414,3.4414,3.4414,3.4414,3.4414,3.4448,3.4549,3.4698,3.4835,3.4902,0.0,0.0,0.0,0.0,0.0,0.0,0.0,0.0,0.0,0.0,0.0,1.4812,0.0,0.0,1.6472,1.7269,1.7553,1.7924,1.8547,1.8353,1.8198,1.8198,1.8442,1.8586,1.8422,1.8436,1.8496,1.8646,1.8482,1.8534,1.8869,1.8458,1.841,1.8832,1.8521,1.8397,1.8547,1.8379,1.8464,1.8819,1.9122,1.9784,2.0759,2.1589,2.2232,2.2681,2.2969,2.3091,2.3091,2.3091,2.3091,2.3091,2.3091,2.3091,2.3178,2.3647,2.4145,2.4808,2.5797,2.6801,2.7758,2.841,2.8976,2.9419,2.956,2.9689,2.9792,2.9792,2.9792,2.9792,2.9792,2.9792,2.9792,2.9792,2.9792,2.9792,2.9792,2.9792,2.9792,2.9792,2.9792,2.9792,2.9792,2.9792,2.9792,2.9792,2.9792,2.9792,2.9792,2.9792,2.9792,2.9792,3.047,3.1108,3.1489,3.2218,3.3157,3.4346,3.4414,3.4414,3.4414,3.4414,3.4414,3.4414,3.4414,3.4414,3.4414,3.4414,3.4448,3.4563,3.4616,3.4702,0.0,0.0,0.0,0.0,0.0,0.0,0.0,0.0,1.4602,1.4612,1.5087,1.5626,1.602,1.6485,1.7051,1.7874,1.8224,1.8414,1.8499,1.8482,1.8482,1.8482,1.8803,1.8907,1.8422,1.8646,1.8817,1.8921,1.8646,1.8646,1.8974,1.8729,1.8803,1.9264,1.9023,1.8884,1.8884,1.8818,1.8657,1.8394,1.9089,1.9507,1.9733,2.1154,2.1907,2.2117,2.2796,2.3091,2.3091,2.3091,2.3091,2.3091,2.3091,2.3091,2.3091,2.3091,2.356,2.4284,2.4638,2.5797,2.7261,2.7815,2.8597,2.9392,2.965,2.9753,2.9792,2.9792,2.9792,2.9792,2.9792,2.9792,2.9792,2.9792,2.9792,2.9792,2.9792,2.9792,2.9792,2.9792,2.9792,2.9829,2.993,2.9955,2.9917,2.9817,2.9792,2.9792,2.9792,2.9792,2.9792,2.9792,3.0897,3.1466,3.0932,3.2169,3.3332,3.4113,3.4147,3.423,3.438,3.4414,3.4414,3.4414,3.4414,3.4414,3.4414,3.4448,3.4448,3.4448,3.4481,3.4549,1.0405,1.1117,1.2091,1.367,1.4105,1.4277,0.0,0.0,1.4899,1.4719,1.5326,1.6034,1.6385,1.7173,1.7888,1.8282,1.8391,1.8499,1.881,1.8817,1.8817,1.8817,1.8443,1.8227,1.837,1.8422,1.8586,1.8869,1.8869,1.8974,1.9227,1.9242,1.9235,1.9279,1.9242,1.922,1.922,1.8935,1.8767,1.873,1.8243,1.8485,1.9368,2.0104,2.0897,2.1803,2.2706,2.3091,2.3091,2.3091,2.3091,2.3091,2.3091,2.3091,2.3091,2.3091,2.3178,2.3396,2.4241,2.5158,2.6152,2.7221,2.8303,2.917,2.9392,2.9599,2.9792,2.9792,2.9792,2.9792,2.9792,2.9792,2.9792,2.9792,2.9792,2.9792,2.9792,2.9792,2.9792,2.9792,2.9792,2.9942,3.0444,3.052,3.0357,2.9867,2.9792,2.9792,2.9792,2.9792,2.9792,2.9792,2.9934,3.0292,3.0857,3.1709,3.2541,3.3297,3.3332,3.3659,3.438,3.4414,3.4414,3.4414,3.4414,3.4414,3.4414,3.4597,3.4664,3.4664,3.4783,3.4702,1.0078,1.1208,1.2371,0.0,1.4149,1.4706,1.5218,1.55,1.5732,1.6001,1.6621,1.7175,1.7343,1.7825,1.8246,0.0,1.8709,1.8911,1.8898,1.8921,1.8805,1.8619,1.8221,1.8147,1.8617,1.8855,1.8959,1.9123,1.9123,1.9175,1.9272,1.9279,1.9279,1.9279,1.9279,1.9279,1.9279,1.914,1.9074,1.9067,1.8796,1.8909,1.9345,1.9909,2.0844,2.2034,2.2802,2.3091,2.3091,2.3091,2.3091,2.3091,2.3091,2.3091,2.3091,2.3091,2.3091,2.3178,2.356,2.4606,2.5902,2.6502,2.7787,2.9131,2.9341,2.9611,2.9792,2.9792,2.9792,2.9792,2.9792,2.9792,2.988,3.0193,3.0269,3.0357,3.0658,3.0721,3.0721,3.0721,3.0721,3.0796,3.1035,3.1072,3.0984,3.0758,3.047,3.0269,3.0269,2.9993,2.996,3.0368,3.0075,3.0292,3.1489,3.1892,3.2398,3.3143,3.3638,3.4045,3.438,3.4414,3.4414,3.4414,3.4414,3.4414,3.4414,3.4894,3.5117,3.5117,3.5516,3.5472,1.0055,0.0,0.0,1.3763,1.4562,1.5301,1.577,1.6142,1.6468,1.6773,1.7246,1.7661,1.7644,1.792,1.8212,1.8261,1.8675,1.8915,1.8786,1.8738,1.8654,1.8425,1.816,1.8196,1.8715,1.8993,1.914,1.914,1.9272,1.9279,1.9279,1.9279,1.9279,1.9279,1.9279,1.9279,1.9279,1.9279,1.9279,1.9279,1.9184,1.914,1.9177,2.0134,2.1278,2.2656,2.3092,2.3208,2.311,2.3227,2.3276,2.3276,2.3276,2.3276,2.3257,2.314,2.3091,2.3091,2.3091,2.4274,2.5819,2.6036,2.7452,2.9131,2.9341,2.9611,2.9792,2.9792,2.9792,2.9829,2.998,3.0018,3.0156,3.0696,3.0834,3.0934,3.1311,3.1386,3.1386,3.1386,3.1386,3.1436,3.1587,3.1625,3.1675,3.1825,3.1399,3.1009,3.0846,3.0482,3.039,3.0765,3.0509,3.07,3.1686,3.1965,3.2398,3.3143,3.3742,3.4147,3.438,3.4414,3.4414,3.4414,3.4414,3.4414,3.4414,3.5107,3.5374,3.5228,3.5889,3.5901,0.0,0.0,1.3756,1.4929,1.568,1.616,1.6484,1.6811,1.6955,1.6424,1.676,1.7038,1.6807,1.7232,1.7732,1.7981,1.804,1.8128,1.8377,1.8435,1.8411,1.8397,1.8311,1.8313,0.0,1.8621,1.8803,1.8803,1.9096,1.9279,1.9279,1.9279,1.9279,1.9279,1.9279,1.9279,1.9279,1.9279,1.9279,1.9324,1.8957,1.8803,1.889,2.0598,2.2218,2.3744,2.3769,2.3525,2.313,2.3594,2.3769,2.3769,2.3769,2.3769,2.3721,2.3247,2.3091,2.3091,2.3091,2.4274,2.5819,2.6036,2.7452,2.9131,2.9341,2.9611,2.9792,2.9792,2.9792,2.9917,3.0457,3.0595,3.0721,3.1248,3.1361,3.1373,3.1386,3.1386,3.1386,3.1386,3.1386,3.1562,3.2102,3.219,3.2378,3.2943,3.2541,3.1976,3.1436,3.1348,3.1148,3.0645,3.1228,3.1458,3.0985,3.1636,3.2398,3.3143,3.3213,3.3589,3.438,3.4414,3.4414,3.4414,3.4414,3.4414,3.4414,3.5195,3.5297,3.4742,3.5541,3.555,0.0,0.0,1.383,1.4347,1.551,1.6611,1.6911,1.6931,1.6891,1.7099,1.6982,1.6799,1.6696,1.6896,1.7095,1.7337,1.7798,1.8233,1.8653,1.8724,1.8605,1.8375,1.8132,0.0,0.0,0.0,0.0,1.8774,1.8891,1.9052,1.9264,1.9279,1.9279,1.9279,1.9279,1.9279,1.9279,1.9279,1.9279,1.9324,1.8942,1.8789,1.8868,2.028,2.1252,2.1814,2.2878,2.3437,2.3555,2.3418,2.3525,2.376,2.3467,2.3359,2.3335,2.3516,2.3389,2.3091,2.3091,2.4089,2.5304,2.5083,2.656,2.8409,2.8347,2.9166,3.0173,3.0292,3.0583,3.0896,3.1085,3.1135,3.1273,3.18,3.1938,3.2039,3.2428,3.2516,3.2516,3.2516,3.2516,3.2566,3.2754,3.278,3.2855,3.3056,3.2591,3.2014,3.1461,3.1386,3.1185,3.067,3.1254,3.1471,3.0947,3.2096,3.2932,3.3178,3.3707,3.4113,3.438,3.4414,3.4414,3.4414,3.4414,3.4414,3.4414,3.5107,3.5563,3.5796,3.6487,3.684,0.0,1.1613,1.3505,1.4337,1.5413,1.6393,1.705,1.7052,1.6884,1.6964,1.6632,1.6299,1.6137,1.6184,1.6354,1.6744,1.7166,1.7723,1.8455,1.8394,1.8239,1.8354,1.8038,1.7779,0.0,0.0,0.0,1.8591,1.8833,1.9052,1.9264,1.9279,1.9279,1.9279,1.9279,1.9279,1.9279,1.9279,1.9279,1.9324,1.8942,1.8984,1.9409,2.048,2.1066,2.1344,2.2754,2.3437,2.3545,2.3428,2.3535,2.3779,2.3652,2.3549,2.3578,2.3906,2.3838,2.3549,2.3549,2.4231,2.5096,2.4972,2.6377,2.8143,2.8275,2.927,3.0393,3.0794,3.1135,3.1436,3.1637,3.1687,3.1825,3.239,3.2516,3.2629,3.3006,3.3124,3.3124,3.3124,3.3124,3.3124,3.3124,3.3124,3.3124,3.3124,3.2754,3.239,3.2039,3.1989,3.1788,3.1248,3.1845,3.2227,3.198,3.2923,3.3635,3.3965,3.4493,3.4762,3.4762,3.4965,3.5096,3.5096,3.5096,3.5096,3.5096,3.5735,3.6141,3.633,3.7056,3.7375,1.0646,1.1593,1.2849,1.4774,1.5313,1.5722,1.6832,1.7114,1.6898,1.5999,1.5744,1.5591,0.0,0.0,1.5564,1.6196,1.6285,1.6697,1.7853,1.7484,1.7429,0.0,0.0,0.0,0.0,0.0,0.0,1.8299,0.0,1.9242,1.9279,1.9279,1.9279,1.9279,1.9279,1.9279,1.9279,1.9279,1.9279,1.9324,1.8928,1.9308,2.0345,2.1042,2.1658,2.2282,2.3319,2.3555,2.3159,2.3594,2.3769,2.3828,2.4228,2.4385,2.4385,2.4434,2.4434,2.4424,2.4473,2.4726,2.5163,2.5585,2.6769,2.8172,2.8986,2.9725,3.045,3.1204,3.1449,3.1599,3.2127,3.2252,3.239,3.2943,3.3124,3.3124,3.3124,3.3124,3.3124,3.3124,3.3124,3.3136,3.3156,3.3162,3.3124,3.3162,3.3136,3.3124,3.3124,3.3124,3.2855,3.2277,3.2937,3.3555,3.3869,3.4021,3.4484,3.5323,3.5392,3.5392,3.5392,3.5967,3.6301,3.6301,3.6301,3.6301,3.6301,3.6939,3.6939,3.6373,3.72,3.7293,1.0031,1.1198,1.2424,1.3006,1.4281,1.5463,1.5774,1.6021,1.6099,1.5831,1.5265,1.481,0.0,0.0,0.0,1.5839,1.6308,0.0,1.8116,1.817,0.0,1.8644,0.0,1.8474,1.8321,1.8445,0.0,0.0,1.8591,1.8767,1.925,1.9279,1.9279,1.9279,1.9279,1.9279,1.9279,1.9279,1.9279,1.9264,1.8701,1.8698,1.9265,2.0487,2.1078,2.1223,2.3038,2.3721,2.3603,2.3344,2.3496,2.3799,2.3906,2.3945,2.4023,2.4668,2.4697,2.4512,2.5128,2.525,2.506,2.4842,2.5716,2.7008,2.7963,2.9117,3.0416,3.1659,3.2315,3.2679,3.2817,3.2855,3.2893,3.3043,3.3124,3.3124,3.3124,3.3124,3.3124,3.3124,3.3124,3.3332,3.4161,3.3621,3.3262,3.3633,3.3345,3.3124,3.3124,3.3124,3.2855,3.2277,3.2937,3.3555,3.3869,3.4021,3.4484,3.5323,3.5392,3.5392,3.5392,3.5967,3.6301,3.6301,3.6301,3.6301,3.6301,3.6475,3.6794,3.728,3.7492,3.7907,1.0075,1.0922,1.1854,1.2273,1.3612,1.4815,1.4993,1.5428,1.5671,1.5291,1.4863,0.0,0.0,0.0,0.0,0.0,0.0,0.0,1.7684,1.7921,1.8212,0.0,1.8826,0.0,1.873,1.8767,1.8847,0.0,1.8833,1.8891,1.9257,1.9279,1.9279,1.9279,1.9279,1.9279,1.9279,1.9279,1.9279,1.9264,1.876,1.8613,1.8868,2.0417,2.096,2.0805,2.2902,2.3682,2.3496,2.3447,2.3574,2.3828,2.4199,2.4355,2.4434,2.5107,2.5205,2.5021,2.5518,2.5566,2.5322,2.5078,2.5611,2.6635,2.7973,2.9167,3.0434,3.1994,3.2744,3.3124,3.3124,3.3124,3.3124,3.3124,3.3124,3.3124,3.3124,3.3124,3.3124,3.3124,3.3269,3.3558,3.3935,3.3483,3.3181,3.3483,3.3269,3.3124,3.3124,3.3124,3.2955,3.2629,3.3,3.3524,3.4087,3.4276,3.4613,3.5182,3.5573,3.5813,3.5813,3.6402,3.6867,3.7128,3.7143,3.7143,3.7143,3.7143,3.7441,3.7989,3.8084,3.8494,1.0471,1.0875,1.1367,1.2064,1.296,1.3821,1.4248,1.4925,1.5239,1.4579,0.0,1.4329,1.4075,1.4302,1.4629,1.5008,0.0,1.61,1.7043,1.7419,1.7886,1.8745,1.8876,1.8964,1.9198,1.9023,1.8972,1.9257,1.9279,1.9279,1.9279,1.9279,1.9279,1.9279,1.9279,1.9279,1.9279,1.9279,1.9279,1.9324,1.8942,1.8811,1.8942,2.0646,2.1216,2.0951,2.2949,2.3603,2.3286,2.3662,2.3828,2.3955,2.4803,2.5116,2.5174,2.5566,2.5693,2.5693,2.5693,2.5693,2.5693,2.5693,2.5976,2.6636,2.8457,2.9444,3.0314,3.2172,3.2853,3.3081,3.3081,3.3124,3.3124,3.3124,3.3124,3.3124,3.3124,3.3174,3.3206,3.3282,3.3621,3.3822,3.3602,3.3375,3.3206,3.3282,3.3232,3.3156,3.3124,3.3124,3.3124,3.3124,3.3124,3.3441,3.4314,3.458,3.4815,3.5097,3.597,3.6446,3.6446,3.707,3.7665,3.8188,3.8202,3.8202,3.8202,3.8202,3.8315,3.8553,3.8723,3.8907,1.1005,1.1151,1.1233,1.1249,1.1773,1.2465,1.2999,1.3297,0.0,0.0,0.0,1.374,1.3686,1.4113,1.4696,1.5231,0.0,0.0,0.0,0.0,1.8075,0.0,0.0,0.0,0.0,0.0,0.0,0.0,1.9279,1.9279,1.9279,1.9279,1.9279,1.9279,1.9279,1.9279,1.9279,1.9279,1.9279,1.9324,1.8942,1.8935,1.9273,2.0712,2.1508,2.1753,2.3203,0.0,2.417,2.3906,2.3994,2.4365,2.4863,2.5116,2.5174,2.5566,2.5693,2.5693,2.5693,2.5693,2.5693,2.5693,2.5781,2.6232,2.8333,2.9076,2.967,3.2052,3.2711,3.281,3.3025,3.3124,3.3124,3.3124,3.3124,3.3124,3.3124,3.3432,3.3884,3.4349,3.4148,3.4299,3.5613,3.4663,3.3909,3.4374,3.4048,3.3596,3.3174,3.3124,3.3124,3.3124,3.3124,3.3441,3.4314,3.458,3.5006,3.5779,3.6644,3.7128,3.7128,3.7723,3.8101,3.8202,3.8202,3.8202,3.8202,3.8202,3.8389,3.876,3.8782,3.898,1.1045,1.1297,1.1423,1.1118,1.1505,1.2073,1.2487,0.0,0.0,0.0,1.358,1.342,1.3573,0.0,0.0,0.0,0.0,0.0,0.0,0.0,0.0,0.0,0.0,0.0,0.0,0.0,1.913,1.9279,1.9279,1.9279,1.9279,1.9279,1.9279,1.9279,1.9279,1.9279,1.9279,1.9279,1.9279,1.9279,1.9118,1.9125,1.9368,2.1179,2.1944,2.2016,2.3721,2.4443,2.4414,2.4443,2.457,2.4805,2.5244,2.541,2.5439,2.5615,2.5693,2.5693,2.5693,2.5693,2.5693,2.5693,2.5693,2.6014,2.7568,2.8495,2.9372,3.1258,3.222,3.2754,3.3025,3.3124,3.3124,3.3124,3.3124,3.3124,3.3124,3.3734,3.4324,3.4299,3.455,3.4914,3.5416,3.4851,3.4412,3.4675,3.4248,3.3909,3.3935,3.3432,3.3124,3.3124,3.3124,3.3283,3.3696,3.4219,3.4754,3.5308,3.5718,3.6354,3.7266,3.7141,3.7428,3.8188,3.8202,3.8202,3.8202,3.8202,3.8427,3.8782,3.8686,3.8922,1.1005,1.1334,1.1537,1.1033,1.1281,1.1727,1.2232,1.2287,0.0,0.0,1.3313,1.32,1.3453,0.0,1.4108,0.0,0.0,0.0,0.0,0.0,0.0,0.0,0.0,0.0,0.0,0.0,0.0,1.9279,1.9397,1.9404,1.9279,1.9279,1.9279,1.9279,1.9279,1.9279,1.9279,1.9279,1.9279,1.9279,1.9279,1.9279,1.9376,2.1204,2.2003,2.2146,2.3839,2.4646,2.4717,2.4961,2.5174,2.5244,2.5596,2.5693,2.5693,2.5693,2.5693,2.5693,2.5693,2.5693,2.5693,2.5693,2.5693,2.5868,2.6914,2.8028,2.9189,3.0531,3.1713,3.2723,3.3025,3.3124,3.3106,3.3219,3.3257,3.3282,3.3407,3.4211,3.4731,3.4336,3.4906,3.5395,3.5127,3.4977,3.4856,3.4856,3.4424,3.4186,3.4512,3.3796,3.3206,3.3093,3.3124,3.3124,3.3124,3.405,3.4628,3.466,3.4963,3.572,3.6905,3.6462,3.675,3.791,3.8089,3.8202,3.8202,3.824,3.8464,3.8782,3.8686,3.89,1.111,1.1236,1.1183,1.081,1.0556,1.0651,1.1847,0.0,0.0,1.2901,1.3006,1.2918,1.3193,1.3447,1.3826,0.0,0.0,0.0,0.0,0.0,0.0,0.0,0.0,0.0,0.0,0.0,0.0,1.9279,1.9603,1.9639,1.9346,1.9279,1.9279,1.9279,1.9279,1.9279,1.9279,1.9279,1.9279,1.9279,1.9279,1.9279,1.9316,2.0054,2.1154,2.2448,2.2832,2.3984,0.0,2.5215,2.5312,2.5635,2.5674,2.5693,2.5693,2.5693,2.5693,2.5693,2.5693,2.5693,2.5693,2.5693,2.5693,2.5868,2.6914,2.7934,2.9039,3.0486,3.1637,3.2519,3.2995,3.3124,3.3206,3.3709,3.3822,3.396,3.4462,3.4994,3.5408,3.5357,3.5433,3.5633,3.6179,3.5793,3.542,3.542,3.4956,3.4487,3.4035,3.3884,3.3633,3.3131,3.3124,3.3124,3.3124,3.4553,3.5183,3.4485,3.5868,3.6408,3.5787,3.6448,3.688,3.7014,3.781,3.8202,3.8202,3.8366,3.859,3.8782,3.898,3.9177,1.0777,1.1057,1.1139,1.0781,1.0343,1.0382,1.1781,0.0,0.0,1.2823,1.3005,1.2878,1.3153,1.3407,1.374,0.0,0.0,0.0,0.0,0.0,0.0,0.0,0.0,0.0,0.0,0.0,1.921,1.9557,1.9558,1.9551,1.9617,1.9625,1.9529,1.9286,1.9279,1.9279,1.9279,1.9279,1.9279,1.9279,1.9279,1.9279,1.9324,2.024,2.1299,2.2525,2.326,2.4406,0.0,2.5547,2.5576,2.5693,2.5693,2.5693,2.5693,2.5693,2.5693,2.5693,2.5693,2.5693,2.5693,2.5693,2.5693,2.5781,2.6187,2.702,2.8075,2.9372,3.0621,3.1725,3.2624,3.2982,3.3131,3.3357,3.3658,3.396,3.4173,3.4868,3.5495,3.5495,3.5805,3.6107,3.6367,3.6182,3.6031,3.6031,3.5567,3.5265,3.5366,3.4813,3.4437,3.455,3.3972,3.3432,3.3149,3.3713,3.4163,3.4397,3.5032,3.5696,3.636,3.6373,3.678,3.7682,3.7672,3.7825,3.8202,3.8277,3.8501,3.8782,3.876,3.8973,1.0257,1.0635,1.0834,1.053,1.0252,1.0342,0.0,0.0,1.1135,1.2746,1.2938,1.2878,1.3153,1.3407,1.37,0.0,0.0,0.0,0.0,0.0,0.0,0.0,0.0,0.0,0.0,1.902,1.9172,1.9601,1.9551,1.9529,1.9669,1.9764,1.9669,1.9286,1.9279,1.9279,1.9279,1.9279,1.9279,1.9279,1.9279,1.9279,1.9331,2.0078,2.1183,2.2534,2.3285,2.4402,0.0,2.5693,2.5693,2.5693,2.5693,2.5693,2.5693,2.5693,2.5606,2.5557,2.5645,2.5596,2.5537,2.5537,2.5586,2.5664,2.5586,2.6308,2.7463,2.868,3.0158,3.1625,3.2494,3.3021,3.337,3.352,3.3985,3.4424,3.4587,3.524,3.5793,3.5793,3.6094,3.6405,3.6405,3.6405,3.6405,3.6405,3.5893,3.5633,3.6069,3.5441,3.5006,3.5232,3.4705,3.4098,3.3382,3.3427,3.3654,3.3992,3.4468,3.5182,3.6096,3.5976,3.6492,3.781,3.739,3.7519,3.8202,3.824,3.8464,3.8782,3.8738,3.8936,0.9587,0.99,1.018,0.9941,1.0114,1.0508,0.0,0.0,1.1652,1.2593,1.279,1.2878,1.3153,1.3407,1.37,1.4041,0.0,0.0,0.0,0.0,0.0,0.0,0.0,0.0,0.0,1.8934,1.9279,1.9279,1.9632,0.0,1.9294,1.9639,1.9669,1.9286,1.9279,1.9279,1.9279,1.9279,1.9279,1.9279,1.9279,1.9279,1.9279,1.9324,2.0483,2.2484,2.2484,2.375,0.0,2.5693,2.5693,2.5693,2.5693,2.5693,2.5693,2.5693,2.5459,2.5137,2.5586,2.5449,2.5125,2.5125,2.5371,2.5606,2.5205,2.6104,2.7463,2.868,3.0789,3.2667,3.2711,3.3296,3.4035,3.4575,3.5082,3.5633,3.6267,3.6392,3.6405,3.6405,3.6405,3.6405,3.6405,3.6405,3.6405,3.6405,3.5893,3.5495,3.5508,3.5495,3.5282,3.4743,3.5157,3.5044,3.3985,3.4187,3.4021,3.3167,3.4664,3.5237,3.4481,3.5196,3.6029,3.6897,3.6897,3.7323,3.8202,3.8404,3.8612,3.8782,3.898,3.9177,0.8995,0.925,0.9388,0.9202,0.957,1.0167,1.0909,0.0,1.169,1.2631,1.2784,1.2811,1.2911,1.3307,1.3633,1.3726,1.3955,0.0,0.0,0.0,0.0,0.0,0.0,0.0,0.0,0.0,1.9419,1.9647,1.9551,1.9536,1.9654,1.9551,1.9434,1.9279,1.9279,1.9279,1.9279,1.9279,1.9279,1.9279,1.9279,1.9279,1.9279,1.9279,2.0078,2.1438,2.219,2.3294,2.4658,2.5382,2.5693,2.5693,2.5693,2.5693,2.5693,2.5693,2.5596,2.5547,2.5635,2.5644,2.5527,2.5527,2.5625,2.5664,2.5566,2.5799,2.6562,2.8448,3.0445,3.2126,3.258,3.3583,3.4412,3.4211,3.4818,3.5545,3.5768,3.6094,3.6405,3.6405,3.6405,3.6405,3.6405,3.6405,3.6405,3.6405,3.6267,3.6107,3.6107,3.6107,3.6031,3.5855,3.5667,3.5056,3.3985,3.3996,3.3774,3.3136,3.4176,3.4662,3.4397,3.5345,3.6215,3.6897,3.7208,3.772,3.8404,3.8612,3.876,3.8819,3.9141,3.9265,0.0,0.8702,0.8869,0.8755,0.9401,0.0,0.0,0.0,1.1923,1.2496,1.2703,1.2784,1.2784,1.324,1.36,1.36,1.3895,0.0,0.0,0.0,0.0,0.0,0.0,0.0,0.0,1.9258,1.9412,1.9617,1.9441,1.9367,1.9625,1.9389,1.9279,1.9279,1.9279,1.9279,1.9279,1.9279,1.9279,1.9279,1.9279,1.9279,1.9279,1.9279,1.9879,2.0987,2.2038,2.3094,0.0,2.5274,2.5693,2.5693,2.5693,2.5693,2.5693,2.5693,2.5586,2.5508,2.5625,2.5577,2.5488,2.5488,2.5488,2.5518,2.5635,2.5965,2.6648,2.8495,3.0148,3.1584,3.2481,3.3558,3.4374,3.4248,3.4856,3.5558,3.5805,3.6119,3.6405,3.6405,3.6405,3.6405,3.6405,3.6405,3.6405,3.6405,3.6405,3.6405,3.6405,3.6405,3.6405,3.6405,3.6056,3.5491,3.46,3.4135,3.3759,3.3407,3.4023,3.4397,3.4397,3.5332,3.6162,3.6897,3.7169,3.7682,3.8404,3.8649,3.8819,3.8907,3.9265,3.9337,0.0,0.0,0.0,0.0,0.0,0.0,0.0,0.0,0.0,0.0,0.0,1.2757,1.2784,1.322,1.358,1.36,1.3908,0.0,0.0,0.0,0.0,0.0,0.0,0.0,1.8796,1.9081,1.9279,1.9279,1.9279,1.9279,1.9279,1.9279,1.9279,1.9279,1.9279,1.9279,1.9279,1.9279,1.9279,1.9279,1.9279,1.9279,1.9279,1.9279,1.9828,0.0,2.1988,2.3094,2.4097,2.5226,2.5693,2.5693,2.5693,2.5674,2.5645,2.5674,2.543,2.5088,2.5566,2.5439,2.5116,2.5155,2.5117,2.5195,2.5605,2.637,2.7332,2.8541,2.9863,3.1128,3.232,3.3289,3.4073,3.455,3.5069,3.5633,3.6194,3.638,3.6405,3.6405,3.6405,3.6405,3.6405,3.6405,3.6405,3.6405,3.6405,3.6405,3.6405,3.6405,3.6405,3.6405,3.6405,3.6157,3.5596,3.4625,3.3985,3.3909,3.4212,3.4366,3.4314,3.5156,3.5989,3.6819,3.6936,3.7414,3.824,3.8634,3.8907,3.9068,3.9301,3.9388,0.0,0.0,0.0,0.0,0.0,0.0,0.0,0.0,0.0,0.0,0.0,0.0,0.0,0.0,1.3347,1.3567,1.4033,1.4586,0.0,0.0,0.0,0.0,1.8513,1.9015,1.8811,1.9081,1.9279,1.9279,1.9279,1.9279,1.9279,1.9279,1.9279,1.9279,1.9279,1.9279,1.9279,1.9279,1.9279,1.9279,1.9279,1.9279,1.9279,1.9279,1.9428,1.9783,2.1684,2.2634,2.3035,2.4922,2.5693,2.5693,2.5693,2.5527,2.5273,2.5605,2.5244,2.4678,2.5421,2.5439,2.5174,2.5469,2.5586,2.5596,2.5654,2.5878,2.6332,2.7589,2.9094,3.0537,3.1398,3.3052,3.4462,3.4161,3.4793,3.5533,3.5658,3.6056,3.6405,3.6405,3.6405,3.6405,3.6405,3.6405,3.6405,3.6405,3.6405,3.6405,3.6405,3.6405,3.6405,3.6405,3.6405,3.6355,3.6182,3.5554,3.4756,3.3947,3.399,3.3855,3.3424,3.4828,3.5709,3.599,3.7414,3.83,3.8671,3.8907,3.898,3.887,3.9228,3.9301,0.7484,0.7484,0.0,0.0,0.0,0.0,0.0,0.0,0.0,0.0,0.0,0.0,0.0,0.0,0.0,0.0,1.4392,0.0,0.0,0.0,0.0,0.0,1.8542,1.8942,0.0,1.9169,1.9279,1.9279,1.9279,1.9213,1.906,1.9052,1.9052,1.9052,1.9052,1.9125,1.9279,1.9279,1.9279,1.9279,1.9279,1.9279,1.9279,1.9279,1.9279,1.9428,2.1591,2.2484,2.2676,2.4607,2.543,2.541,2.5215,2.498,2.4805,2.5039,2.4777,2.4512,2.5195,2.541,2.541,2.5615,2.5693,2.5693,2.5693,2.5693,2.5965,2.7342,2.8762,3.0066,3.1139,3.2693,3.396,3.3909,3.455,3.5194,3.5445,3.5968,3.6405,3.6405,3.6405,3.6405,3.6405,3.6405,3.6405,3.6405,3.6405,3.6405,3.6405,3.6405,3.6405,3.6405,3.6405,3.6405,3.6405,3.6094,3.5441,3.4349,3.4035,3.3658,3.3106,3.4358,3.5454,3.6215,3.7347,3.8211,3.8782,3.8907,3.8943,3.8943,3.9141,3.9177,0.7821,0.7787,0.7863,0.8699,0.0,0.0,0.0,0.0,0.0,0.0,0.0,0.0,0.0,0.0,0.0,0.0,0.0,0.0,0.0,0.0,0.0,0.0,1.8405,0.0,1.9177,1.925,1.9279,1.9279,1.9279,1.9133,1.8803,1.8789,1.8767,1.8716,1.8716,1.8847,1.9125,1.9228,1.9279,1.9279,1.9228,1.9228,1.9324,1.9177,1.9155,1.9347,0.0,0.0,2.2494,2.4278,2.4971,2.4932,2.456,2.4414,2.4424,2.4492,2.4434,2.4385,2.4814,2.5303,2.5693,2.5693,2.5693,2.5693,2.5693,2.5732,2.6004,2.7332,2.853,2.9727,3.1024,3.2264,3.3194,3.3658,3.4198,3.468,3.5144,3.573,3.6179,3.6267,3.6279,3.6304,3.6392,3.6405,3.6405,3.6405,3.6405,3.6405,3.6405,3.6405,3.6405,3.6405,3.6405,3.6405,3.6405,3.6405,3.5931,3.4868,3.4324,3.3778,3.3308,3.4021,3.5196,3.6858,3.7063,3.7677,3.8745,3.8797,3.8907,3.9104,3.9141,3.9141,0.9329,0.9031,0.8699,0.9523,0.0,0.0,0.0,0.0,0.0,0.0,0.0,0.0,0.0,0.0,0.0,0.0,0.0,1.625,0.0,0.0,1.8047,1.7918,0.0,1.9118,1.8884,1.9111,1.9279,1.9279,1.9279,1.9133,1.8803,1.8789,1.8664,1.8386,1.8379,1.8401,1.8452,1.9001,1.9279,1.9324,1.8994,1.9008,1.9257,1.8701,1.8606,1.9,0.0,2.159,2.1734,2.3683,2.4521,2.4512,2.4443,2.4414,2.4463,2.4834,2.4512,2.3945,2.4365,2.5049,2.5693,2.5693,2.5693,2.5693,2.5693,2.5868,2.6149,2.6582,2.7992,2.9544,3.0249,3.1757,3.3106,3.3181,3.3621,3.4048,3.4135,3.4587,3.5115,3.5533,3.5621,3.5818,3.6329,3.6405,3.6405,3.6405,3.6405,3.6405,3.6405,3.6405,3.6405,3.6405,3.6405,3.6405,3.6405,3.6405,3.6094,3.5408,3.4856,3.4476,3.4186,3.4314,3.5196,3.6858,3.6922,3.7477,3.8553,3.8723,3.8907,3.9104,3.9265,3.9265,0.982,0.9938,1.0094,1.0576,0.0,0.0,0.0,0.0,0.0,0.0,0.0,0.0,0.0,0.0,0.0,1.561,0.0,1.6761,1.7131,1.7413,1.7657,0.0,0.0,1.8354,1.8525,1.8818,1.8935,1.8767,1.8913,1.8789,1.8291,1.8262,1.8196,1.8043,1.8035,1.8123,1.8299,1.8599,1.884,1.9008,1.8686,1.8694,1.8994,1.8518,1.8379,1.8661,0.0,2.153,2.1829,2.3419,2.4209,2.4365,2.3861,2.3686,2.3734,2.4219,2.4268,2.4189,2.4619,2.5195,2.5693,2.5693,2.5693,2.5732,2.5868,2.6004,2.6197,2.6602,2.7741,2.9004,2.9977,3.1258,3.2438,3.2982,3.3495,3.3897,3.3897,3.4336,3.4843,3.5395,3.5495,3.5671,3.6317,3.6405,3.6405,3.6405,3.6405,3.6405,3.6405,3.6405,3.6405,3.6405,3.6405,3.6405,3.6405,3.6405,3.6006,3.5107,3.4575,3.4085,3.3722,3.3696,3.4343,3.5655,3.6122,3.6922,3.8,3.8523,3.887,3.8943,3.9141,3.9177,1.0458,1.0801,1.1186,0.0,0.0,1.1701,1.2665,0.0,0.0,0.0,0.0,0.0,0.0,0.0,0.0,1.6608,1.6899,1.7066,1.7286,1.7218,1.7363,1.7738,1.7696,1.7791,1.8277,1.8525,1.8569,1.8321,1.8533,1.8423,1.7845,1.7816,1.7779,1.7706,1.7699,1.7823,1.8072,1.8072,1.8277,1.8672,1.8343,1.8357,1.8664,1.8255,1.8262,1.8615,2.0388,2.141,2.2009,2.3151,2.3828,2.4062,2.3461,2.3374,2.3633,2.3965,2.4355,2.4756,2.499,2.5361,2.5693,2.5693,2.5693,2.5732,2.6004,2.6149,2.6294,2.6757,2.762,2.8645,2.9897,3.108,3.2176,3.2939,3.3395,3.3709,3.3709,3.4035,3.4537,3.5169,3.5307,3.552,3.6292,3.6405,3.6405,3.6405,3.6405,3.6405,3.6405,3.6405,3.6405,3.6405,3.6405,3.6405,3.6405,3.6405,3.5893,3.4788,3.4211,3.3658,3.3106,3.3124,3.3569,3.4592,3.544,3.6425,3.7591,3.8397,3.8819,3.887,3.9068,3.9104,1.215,1.1781,1.1372,1.2526,0.0,0.0,1.3628,1.38,0.0,0.0,0.0,0.0,0.0,0.0,0.0,1.6345,1.6755,1.7066,1.7286,0.0,1.7746,1.7808,1.8086,1.8227,1.8299,1.8321,1.8328,1.8299,1.8321,1.8182,1.7838,1.7816,1.7677,1.7377,1.7315,1.7377,1.7352,1.7352,1.7713,1.8335,1.8006,1.8021,1.8313,1.7684,1.8072,1.9296,1.9966,2.0833,2.1823,2.2754,2.3159,2.3218,2.3603,2.4228,2.4979,2.5008,2.5264,2.5538,2.5205,2.5361,2.5693,2.5693,2.5693,2.5732,2.6004,2.6294,2.6544,2.6805,2.7773,2.8899,2.9943,3.1569,3.3025,3.3068,3.3106,3.3174,3.3174,3.3212,3.3508,3.4575,3.4776,3.5115,3.6229,3.6405,3.6405,3.6405,3.6405,3.6405,3.6405,3.6405,3.6405,3.6405,3.6405,3.6405,3.6405,3.6405,3.5893,3.4788,3.4211,3.3658,3.3106,3.3124,3.3526,3.4397,3.5196,3.6253,3.7525,3.8397,3.8907,3.9068,3.9265,3.9177,1.2452,1.2335,1.215,1.2746,0.0,0.0,0.0,0.0,0.0,0.0,0.0,0.0,0.0,0.0,1.6206,1.6661,1.7001,1.7192,1.7286,1.7388,1.7508,1.7508,1.7618,1.7699,1.7699,1.7882,1.7918,1.7713,1.7882,1.7852,1.753,1.7508,1.741,1.7286,1.7279,1.7279,1.7279,1.7279,1.741,1.7691,1.7574,1.7636,1.7984,1.749,1.7579,1.8153,1.9571,2.0596,2.1307,2.2571,2.3257,2.3535,2.3428,2.3906,2.4668,2.4668,2.4941,2.5332,2.5449,2.5547,2.5693,2.5693,2.583,2.6004,2.6245,2.6544,2.6794,2.7081,2.8362,2.9715,3.0125,3.1169,3.2307,3.2939,3.3124,3.3124,3.3124,3.3345,3.3822,3.4575,3.4956,3.532,3.578,3.6132,3.6292,3.5906,3.6144,3.6405,3.6405,3.6405,3.6405,3.6405,3.6405,3.6405,3.6405,3.6405,3.5893,3.4788,3.4525,3.401,3.3162,3.3124,3.3641,3.4772,3.5305,3.6267,3.7553,3.8397,3.8819,3.8907,3.9265,3.9301,1.2636,1.2636,1.2673,0.0,0.0,0.0,0.0,0.0,0.0,0.0,0.0,0.0,0.0,0.0,0.0,0.0,1.7121,1.7279,1.7279,1.7279,1.7279,1.7279,1.7279,1.7279,1.7279,1.753,1.7567,1.7301,1.749,1.756,1.7293,1.7279,1.7279,1.7279,1.7279,1.7279,1.7279,1.7279,1.7279,1.7279,1.7279,1.7395,1.7655,1.7381,1.7645,1.828,1.9596,2.075,2.1662,2.2669,2.3398,2.376,2.3457,2.3867,2.4619,2.4619,2.4902,2.5322,2.5722,2.583,2.583,2.5927,2.6062,2.6294,2.6544,2.6747,2.6948,2.7214,2.8491,2.9806,3.0125,3.1125,3.2264,3.2939,3.3124,3.3124,3.3124,3.337,3.3859,3.4575,3.4981,3.5345,3.5742,3.6119,3.6279,3.5868,3.6119,3.6405,3.6405,3.6405,3.6405,3.6405,3.6405,3.6405,3.6405,3.6405,3.5893,3.4788,3.468,3.4223,3.3119,3.3124,3.3641,3.48,3.5386,3.6306,3.7553,3.8472,3.8907,3.8907,3.9228,3.9373,1.2826,1.2746,0.0,0.0,0.0,0.0,0.0,0.0,0.0,0.0,0.0,0.0,0.0,0.0,0.0,1.6851,1.7121,1.7279,1.7279,1.7279,1.7279,1.7279,1.7279,1.7279,1.7279,1.7279,1.7279,1.7279,1.7279,1.7279,1.7279,1.7279,1.7279,1.7279,1.7279,1.7279,1.7279,1.7279,1.7279,1.7279,1.7279,1.7279,1.7279,1.7279,1.8373,2.0187,2.0187,2.1275,2.3047,2.3091,2.3398,2.3789,2.3789,2.4307,2.5106,2.5106,2.5342,2.5723,2.6004,2.6091,2.6139,2.64,2.6496,2.6544,2.6805,2.69,2.6948,2.7225,2.7998,2.8945,2.9943,3.1625,3.3081,3.3124,3.3124,3.3124,3.3124,3.3081,3.3407,3.45,3.468,3.5077,3.6204,3.6405,3.6405,3.6405,3.6405,3.6405,3.6405,3.6405,3.6405,3.6405,3.6405,3.6405,3.6405,3.6405,3.5893,3.4776,3.4668,3.4223,3.3119,3.3124,3.3539,3.4397,3.54,3.645,3.751,3.8583,3.9104,3.9104,3.9301,3.9301,1.2826,0.0,0.0,0.0,0.0,0.0,0.0,0.0,0.0,0.0,0.0,0.0,0.0,0.0,0.0,1.6881,1.7121,1.7279,1.7279,1.7279,1.7279,1.7279,1.7279,1.7279,1.7279,1.7279,1.7279,1.7279,1.7279,1.7279,1.7279,1.7279,1.7279,1.7279,1.7279,1.7279,1.7279,1.7279,1.7279,1.7279,1.7279,1.7279,1.7279,1.7279,1.7598,1.8241,1.9604,2.0548,2.1186,2.2545,2.3398,2.376,2.3457,2.3857,2.457,2.4277,2.4443,2.4853,2.5488,2.5702,2.5752,2.63,2.6651,2.6805,2.69,2.7034,2.7225,2.7262,2.7998,2.8945,2.9943,3.1125,3.2208,3.2939,3.3124,3.3124,3.3124,3.3382,3.3759,3.4085,3.4731,3.5232,3.5215,3.5855,3.6279,3.5843,3.6119,3.6405,3.6405,3.6405,3.6405,3.6405,3.6405,3.6207,3.5818,3.5793,3.5316,3.4211,3.4268,3.3985,3.3149,3.3124,3.3911,3.5641,3.5815,3.6724,3.842,3.887,3.9017,3.8907,3.9228,3.9373,1.2936,0.0,0.0,0.0,0.0,0.0,0.0,0.0,0.0,0.0,0.0,0.0,1.6982,1.6991,0.0,1.6903,1.7018,1.7091,1.6967,1.6945,1.6945,1.6945,1.6945,1.6945,1.6945,1.7062,1.7135,1.7135,1.726,1.7279,1.7279,1.7279,1.7279,1.7279,1.7279,1.7279,1.7279,1.7279,1.7279,1.7279,1.7279,1.7279,1.7326,1.7692,1.8102,1.8557,2.0503,2.1364,2.1454,2.2643,2.3247,2.3506,2.3198,2.351,2.4131,2.3967,2.4189,2.4647,2.5285,2.5478,2.5595,2.632,2.6662,2.6798,2.6982,2.7177,2.7309,2.7309,2.7715,2.8445,2.9852,3.0621,3.1392,3.2754,3.3124,3.3124,3.3124,3.3332,3.3633,3.3859,3.4568,3.5144,3.5019,3.578,3.6304,3.5918,3.6157,3.6405,3.6405,3.6405,3.6405,3.6405,3.6405,3.6144,3.5545,3.56,3.5168,3.4092,3.4148,3.3938,3.3338,3.3283,3.4024,3.5682,3.5922,3.6841,3.8449,3.8958,3.9141,3.9031,3.9301,3.9388,0.0,0.0,0.0,0.0,0.0,0.0,0.0,0.0,0.0,0.0,0.0,0.0,1.7274,1.7069,1.6903,1.6903,1.6873,1.6756,1.6455,1.6411,1.6411,1.6411,1.6411,1.6411,1.6411,1.6683,1.6859,1.6859,1.7077,1.7238,1.7238,1.7267,1.7274,1.7238,1.725,1.7311,1.7235,1.7311,1.7279,1.7279,1.7372,1.7372,1.7326,1.8334,1.9376,2.0458,2.2227,2.3003,2.3091,2.3091,2.3091,2.3091,2.3091,2.3379,2.3775,2.3944,2.4336,2.4729,2.528,2.5437,2.5553,2.6367,2.6615,2.6708,2.7164,2.7309,2.7309,2.7309,2.7309,2.7715,2.9578,3.0125,3.0666,3.2525,3.3025,3.3124,3.3124,3.3124,3.3219,3.3721,3.4311,3.4818,3.527,3.5893,3.6329,3.6329,3.6367,3.6405,3.6405,3.6367,3.6355,3.6405,3.6367,3.6094,3.5545,3.5701,3.5345,3.4255,3.4185,3.403,3.3815,3.3552,3.3966,3.5101,3.5882,3.6827,3.8,3.8958,3.9388,3.9373,3.9388,3.9388,0.0,0.0,0.0,0.0,0.0,0.0,0.0,0.0,0.0,0.0,0.0,0.0,1.7271,1.7069,1.6903,1.6903,1.6683,1.6492,1.6419,1.6411,1.6411,1.6411,1.6411,1.6411,1.6411,1.6477,1.6521,1.6521,1.658,1.6572,1.6572,1.6859,1.6888,1.6587,1.7062,1.7208,1.7005,1.7201,1.7279,1.7333,1.811,1.8056,1.7326,1.8334,1.9741,2.1418,2.1828,2.2413,2.3091,2.3091,2.3091,2.3091,2.3091,2.3149,2.3281,2.3554,2.3702,2.3919,2.4723,2.5023,2.52,2.6264,2.6615,2.6708,2.7164,2.7309,2.7309,2.7309,2.7309,2.7584,2.8724,2.9624,3.0486,3.1669,3.2537,3.3124,3.3124,3.3124,3.3106,3.3232,3.4048,3.4625,3.4311,3.5064,3.5671,3.5671,3.6094,3.6405,3.6405,3.5994,3.5881,3.6367,3.5981,3.5621,3.5508,3.5152,3.4747,3.423,3.3934,3.4046,3.4637,3.3841,3.4317,3.6227,3.645,3.7266,3.8833,3.9228,3.9301,3.9177,3.9337,3.9388,0.0,0.0,0.0,0.0,0.0,0.0,0.0,0.0,0.0,0.0,0.0,1.6916,1.7069,1.6843,1.6617,1.6433,1.6265,1.6096,1.5935,1.5921,1.5921,1.5921,1.5921,1.5921,1.5921,1.606,1.6148,1.6148,1.6331,1.6411,1.6411,1.6573,1.6587,1.6419,1.6843,1.6945,1.6668,1.7091,1.7252,1.7099,1.8257,1.9018,1.9422,1.9467,2.0512,2.2369,2.2369,2.2643,2.3091,2.3091,2.3091,2.3091,2.3091,2.3188,2.3319,2.3537,2.3711,2.3924,2.4515,2.4684,2.4841,2.5654,2.6072,2.6366,2.6832,2.7133,2.7309,2.7309,2.7309,2.7536,2.8445,2.9441,3.0441,3.1403,3.2351,3.3124,3.3124,3.3124,3.3124,3.3124,3.3759,3.4236,3.3947,3.4768,3.5408,3.5144,3.5617,3.5881,3.5604,3.5328,3.5366,3.5918,3.5671,3.5495,3.5495,3.5221,3.4844,3.4405,3.4088,3.4108,3.463,3.4444,3.5002,3.6534,3.6957,3.7677,3.8649,3.9156,3.9337,3.9265,3.9337,3.9388,0.0,0.0,0.0,0.0,0.0,0.0,0.0,0.0,0.0,0.0,0.0,1.6492,1.6763,1.6551,1.6206,1.5957,1.5783,1.5608,1.5345,1.5258,1.5221,1.5221,1.5272,1.5301,1.5301,1.5643,1.5833,1.5833,1.6067,1.625,1.625,1.6301,1.6309,1.6206,1.6617,1.6661,1.6338,1.6872,1.7033,1.6822,1.8024,1.9726,2.1815,2.0704,2.1282,2.3091,2.3091,2.3091,2.3091,2.3144,2.3188,2.3178,2.3232,2.3363,2.359,2.3797,2.4024,2.4249,2.4411,2.4497,2.458,2.5034,2.5471,2.5854,2.6356,2.677,2.7092,2.7164,2.7185,2.7385,2.8247,2.9303,3.0396,3.1169,3.2264,3.3124,3.3124,3.3124,3.3124,3.3124,3.3445,3.3784,3.3884,3.4663,3.5056,3.465,3.5006,3.5194,3.4776,3.4638,3.4781,3.5433,3.542,3.5479,3.5667,3.5498,3.5193,3.482,3.4366,3.4241,3.4554,3.5209,3.5954,3.6702,3.7491,3.8046,3.8389,3.9083,3.9388,3.9388,3.9388,3.9448,0.0,0.0,0.0,0.0,0.0,0.0,0.0,0.0,0.0,0.0,0.0,1.6426,1.647,1.6184,1.5965,1.5921,1.5396,1.5017,1.4973,1.4772,1.4636,1.4636,1.4845,1.4966,1.4966,1.5265,1.5455,1.5455,1.5491,1.5513,1.5513,1.5826,1.5848,1.552,1.6126,1.6331,1.5979,1.6323,1.6521,1.6477,1.7391,1.9444,2.2364,2.0985,2.1379,2.3091,2.3091,2.3091,2.3135,2.3363,2.346,2.346,2.3624,2.3711,2.3797,2.4067,2.4163,2.4249,2.4411,2.4497,2.458,2.5034,2.523,2.5399,2.5834,2.6065,2.6144,2.6594,2.6708,2.6801,2.7337,2.8852,3.0215,3.0351,3.1757,3.3124,3.3124,3.3124,3.3124,3.3124,3.3174,3.3332,3.3822,3.4022,3.4098,3.4022,3.4474,3.4756,3.4726,3.4299,3.4399,3.5395,3.5069,3.5261,3.6438,3.5682,3.5283,3.5618,3.4684,3.4435,3.5155,3.6156,3.6993,3.7596,3.7959,3.8501,3.9228,3.9352,3.9388,3.9388,3.9388,3.9723,0.0,0.0,0.0,0.0,0.0,0.0,0.0,0.0,0.0,0.0,1.5211,1.5458,1.5774,1.5584,1.5272,1.5138,1.4867,1.4677,1.4677,1.4553,1.4511,1.4511,1.4589,1.4743,1.4885,1.4911,1.5043,1.536,1.5094,1.505,1.5367,1.5352,1.5345,1.5389,1.5877,1.5965,1.5608,1.6126,1.6925,1.7913,1.8302,1.977,2.2158,2.1537,2.1901,2.3081,2.2847,2.2973,2.3319,2.345,2.359,2.3667,2.3754,2.3884,2.4024,2.4163,2.4282,2.4368,2.4454,2.4497,2.4528,2.4735,2.4972,2.523,2.5461,2.5689,2.6024,2.648,2.6615,2.6718,2.7185,2.8713,3.0215,3.0215,3.1713,3.3124,3.3124,3.3124,3.3124,3.3124,3.3124,3.3156,3.3395,3.3696,3.3796,3.3483,3.3909,3.4148,3.3847,3.3583,3.3746,3.4537,3.4412,3.4677,3.5699,3.522,3.4981,3.5275,3.4656,3.464,3.5501,3.6419,3.7268,3.8006,3.8558,3.9046,3.9388,3.9388,3.9388,3.9388,3.9388,3.9768,0.0,0.0,0.0,0.0,0.0,0.0,0.0,0.0,0.0,0.0,1.4452,1.4629,1.4992,1.4933,1.4743,1.4548,1.4438,1.4386,1.4386,1.4313,1.4262,1.4262,1.4335,1.4435,1.4637,1.456,1.4709,1.5153,1.4743,1.4717,1.516,1.4915,1.4893,1.5174,1.5423,1.5474,1.5265,1.6054,1.727,1.8828,1.9047,2.0038,2.1719,2.1693,2.2095,2.2846,2.2693,2.2968,2.359,2.3634,2.3764,2.3894,2.397,2.411,2.4292,2.4292,2.4378,2.4497,2.4497,2.4497,2.4497,2.4497,2.4735,2.5013,2.5013,2.5285,2.5637,2.6103,2.631,2.6542,2.7009,2.8661,3.0215,3.0215,3.1713,3.3124,3.3124,3.3124,3.3124,3.3124,3.3124,3.3124,3.3124,3.342,3.3558,3.3144,3.3432,3.3545,3.3174,3.3124,3.3338,3.3922,3.4111,3.4508,3.5207,3.5071,3.4925,3.4986,3.4837,3.5032,3.5669,3.6674,3.7539,3.8202,3.8995,3.9388,3.9388,3.9388,3.9388,3.9388,3.9388,3.9858,0.0,0.0,0.0,0.0,0.0,0.0,0.0,0.0,0.0,0.0,1.4291,1.4423,1.4144,1.4335,1.4526,1.4511,1.4247,1.4042,1.4042,1.374,1.3543,1.3543,1.3821,1.4011,1.4071,1.4335,1.4518,1.4555,1.4526,1.4526,1.4555,1.454,1.454,1.4555,1.4577,1.4677,1.4922,1.6098,1.7155,1.8057,1.8869,1.9968,2.122,2.1046,2.1412,2.2253,2.269,2.3235,2.3797,2.4067,2.4163,2.4206,2.4368,2.4454,2.4497,2.4497,2.4497,2.4497,2.4497,2.4497,2.4497,2.4497,2.4518,2.4538,2.4538,2.4549,2.4662,2.5127,2.5595,2.602,2.6532,2.841,3.0215,3.0215,3.1713,3.3124,3.3124,3.3124,3.3124,3.3124,3.3124,3.3124,3.3124,3.3106,3.3106,3.3081,3.3106,3.3106,3.3124,3.3124,3.3368,3.4128,3.4686,3.5251,3.5721,3.5753,3.5626,3.5296,3.5489,3.5669,3.5709,3.7246,3.815,3.8202,3.8995,3.9388,3.9388,3.9388,3.9388,3.9388,3.9388,4.0113,0.0,0.0,0.0,0.0,0.0,0.0,0.0,0.0,0.0,0.0,1.3448,1.3558,1.3653,1.3938,1.4122,1.3879,1.3748,1.3667,1.3667,1.3572,1.3492,1.3492,1.3594,1.3748,1.396,1.3894,1.4056,1.4474,1.4115,1.4064,1.4482,1.4313,1.4291,1.4496,1.4511,1.4887,1.5745,1.6181,1.7271,1.9045,1.9213,1.9978,2.1202,2.0976,2.139,2.2211,2.2706,2.3151,2.3661,2.4041,2.4292,2.4411,2.4454,2.4497,2.4497,2.4497,2.4497,2.4497,2.4497,2.4497,2.4497,2.4497,2.4497,2.4497,2.4497,2.4704,2.5034,2.5523,2.5978,2.6608,2.7661,2.9089,3.0531,3.1757,3.2581,3.3124,3.3124,3.3124,3.3124,3.3124,3.3124,3.3124,3.3124,3.3124,3.3124,3.3124,3.3124,3.3124,3.3124,3.3197,3.3389,3.3677,3.401,3.4341,3.4697,3.471,3.4692,3.4737,3.5357,3.5936,3.6464,3.7591,3.8427,3.8958,3.9265,3.9388,3.9388,3.9388,3.9634,4.0053,4.0053,4.0756,0.0,0.0,0.0,0.0,0.0,0.0,0.0,0.0,0.0,0.0,1.3068,1.3075,1.3294,1.3594,1.3748,1.3536,1.3492,1.3492,1.3492,1.3492,1.3492,1.3492,1.3492,1.3579,1.3799,1.3623,1.3675,1.4144,1.374,0.0,1.4159,1.3938,1.3916,1.4174,1.4507,1.5127,1.6023,1.677,1.7966,1.9599,1.9814,2.0372,2.1205,2.1138,2.1415,2.1982,2.2521,2.3104,2.3689,2.4098,2.4368,2.4497,2.4497,2.4497,2.4497,2.4497,2.4497,2.4497,2.4497,2.4497,2.4497,2.4497,2.4497,2.4497,2.4497,2.4714,2.5055,2.5533,2.5989,2.6664,2.8077,2.9545,3.108,3.2711,3.3124,3.3124,3.3124,3.3124,3.3124,3.3124,3.3124,3.3124,3.3124,3.3124,3.3144,3.3319,3.3237,3.3187,3.3449,3.3427,3.3441,3.3611,3.3905,3.4143,3.4215,3.4383,3.4451,3.441,3.5454,3.636,3.6869,3.7985,3.8848,3.9388,3.9388,3.9388,3.9388,3.9388,3.9649,4.0083,4.0307,4.11,0.0,0.0,0.0,0.0,0.0,0.0,0.0,0.0,0.0,0.0,1.3191,1.2987,1.2994,1.325,1.347,1.347,1.3477,1.3477,1.3477,1.3477,1.3484,1.3492,1.3492,1.3492,1.3492,1.3492,1.3492,1.3492,1.3492,1.3492,1.3492,1.3492,1.3528,1.3564,1.4547,1.5314,1.5771,1.7926,1.9189,1.9659,2.0683,2.1215,2.1205,2.1397,2.1502,2.1533,2.2216,2.3008,2.3867,2.4333,2.4487,2.4497,2.4497,2.4497,2.4497,2.4497,2.4497,2.4497,2.4497,2.4497,2.4497,2.4497,2.4497,2.4497,2.4497,2.4507,2.4611,2.5065,2.5544,2.6295,2.7692,2.9836,3.1901,3.2853,3.3124,3.3124,3.3124,3.3124,3.3124,3.3124,3.3124,3.3124,3.3124,3.3124,3.3257,3.3796,3.3432,3.3368,3.4103,3.3741,3.3624,3.4034,3.4567,3.4756,3.445,3.4933,3.5012,3.4437,3.5989,3.6894,3.6883,3.8523,3.9388,3.9388,3.9388,3.9388,3.9388,3.9388,3.9388,3.9433,4.0142,4.1145,1.1904,0.0,0.0,0.0,0.0,0.0,0.0,0.0,0.0,1.2345,1.2332,1.2339,1.258,1.2696,1.2789,1.2789,1.2987,1.314,1.314,1.314,1.3228,1.347,1.3492,1.3492,1.3492,1.3492,1.3492,0.0,1.3492,1.3492,1.3492,1.3492,1.3992,1.5081,1.4848,1.5529,1.7188,1.8156,1.9248,2.0476,2.0968,2.1359,2.1617,2.154,2.1578,2.1752,2.2255,2.2646,2.2946,2.3732,2.425,2.4497,2.4497,2.4497,2.4497,2.4497,2.4497,2.4497,2.4497,2.4497,2.4497,2.4497,2.4497,2.4497,2.4497,2.4735,2.5024,2.5148,2.5978,2.7347,2.9461,3.1359,3.2754,3.3025,3.3124,3.3124,3.3124,3.3124,3.3124,3.3124,3.3124,3.3124,3.3124,3.3124,3.3174,3.3282,3.352,3.3658,3.3622,3.3984,3.4242,3.4127,3.4344,3.4483,3.441,3.4554,3.458,3.441,3.5989,3.6894,3.6894,3.8509,3.9388,3.9388,3.9388,3.9388,3.9388,3.9388,3.9664,4.0157,4.1294,4.2051,0.0,0.0,0.0,0.0,0.0,0.0,1.2476,1.2266,1.2189,0.0,1.2917,1.2898,1.3101,1.3257,1.3304,1.3164,1.3271,1.3255,1.2858,1.2804,1.2877,1.3067,1.3214,1.3394,1.3701,1.3865,1.3949,1.3949,1.3949,1.3949,1.3949,1.3949,1.4474,1.5675,1.5596,1.6236,1.7656,1.8411,1.9436,2.0737,2.1029,2.1394,2.1807,2.1693,2.1693,2.1818,2.2087,2.2325,2.2542,2.308,2.3567,2.3991,2.4188,2.426,2.4291,2.4435,2.4497,2.4497,2.4497,2.4497,2.4497,2.4497,2.4497,2.4497,2.4497,2.4683,2.4941,2.5127,2.6452,2.8247,2.9996,3.1601,3.2654,3.2428,3.2729,3.3048,3.2767,3.2905,3.3124,3.3124,3.3124,3.3124,3.3124,3.3124,3.3199,3.3382,3.3582,3.3725,3.3895,3.4174,3.4366,3.4241,3.4314,3.4397,3.4397,3.4397,3.4551,3.4909,3.6188,3.7049,3.7424,3.8708,3.9388,3.9388,3.9388,3.9388,3.9388,3.9388,3.9753,4.0427,4.1512,4.2141,0.0,0.0,0.0,0.0,0.0,0.0,1.3642,1.315,1.2775,1.3932,1.3991,1.3819,1.3819,1.4066,1.4175,1.3878,1.3819,1.3572,1.2784,1.2594,1.2609,1.2714,1.2912,1.3369,1.4146,1.4468,1.4668,1.4708,1.4708,1.4744,1.4851,1.478,1.51,1.5921,1.6585,1.7116,1.7565,1.8658,1.9646,2.0565,2.0919,2.1362,2.1807,2.1807,2.1807,2.1807,2.1807,2.2035,2.2418,2.2418,2.2718,2.3236,2.3743,2.3919,2.3929,2.4332,2.4497,2.4497,2.4497,2.4497,2.4497,2.4497,2.4497,2.4497,2.4497,2.4497,2.4623,2.5244,2.7051,2.8959,2.9828,3.1078,3.2001,3.1499,3.2202,3.2842,3.2328,3.2667,3.3124,3.3124,3.3124,3.3124,3.3124,3.3124,3.3287,3.3778,3.3692,3.3781,3.4443,3.4323,3.4224,3.4356,3.4397,3.4397,3.4397,3.4481,3.4868,3.5669,3.6557,3.7372,3.8165,3.8958,3.9388,3.9388,3.9388,3.9388,3.9388,3.9388,3.9723,4.0307,4.104,4.1737,0.0,0.0,0.0,0.0,0.0,0.0,1.3356,1.2685,1.2116,0.0,1.2491,1.28,1.28,1.2857,1.2881,1.2808,1.28,1.3023,1.362,1.3252,1.3186,1.4008,1.3699,1.3783,1.4823,1.4949,1.5144,1.5473,1.5498,1.5781,1.6402,1.5842,1.6132,1.752,1.7113,1.7289,1.8149,1.8859,1.9556,2.0272,2.0839,2.1362,2.1807,2.1807,2.1807,2.1807,2.1807,2.1859,2.1942,2.1942,2.2439,2.3236,2.3743,2.3919,2.3929,2.4332,2.4497,2.4497,2.4497,2.4497,2.4497,2.4497,2.4497,2.4497,2.4497,2.4497,2.4807,2.6326,2.7904,2.9359,3.0264,3.1038,3.1524,3.1411,3.1901,3.2353,3.224,3.2667,3.3124,3.3124,3.3124,3.3124,3.3124,3.324,3.3394,3.3495,3.3984,3.4345,3.4211,3.4512,3.4666,3.4408,3.4397,3.4397,3.4397,3.5032,3.5507,3.5709,3.7116,3.8037,3.8202,3.8958,3.9388,3.9388,3.9388,3.9388,3.9388,3.9388,3.9484,3.9634,4.0831,4.1444,0.0,0.0,0.0,1.5248,0.0,0.0,0.0,1.3798,1.3343,1.3768,1.3887,1.4019,0.0,0.0,1.3957,1.3957,1.3957,1.4127,1.4644,1.3868,1.3449,1.3924,1.3855,1.4095,1.4997,1.5265,1.553,1.5919,1.5878,1.6193,1.6966,1.662,1.6941,1.811,1.7784,1.7784,1.8144,1.8634,1.9248,2.0047,2.0514,2.1135,2.1807,2.1807,2.1807,2.1807,2.1807,2.1807,2.1807,2.1807,2.2087,2.2563,2.3267,2.3536,2.3619,2.4249,2.4497,2.4497,2.4497,2.4497,2.4497,2.4497,2.4497,2.4497,2.4497,2.4775,2.5432,2.6741,2.7946,2.91,2.9957,3.0595,3.0997,3.0997,3.1625,3.2215,3.2215,3.2667,3.3111,3.324,3.324,3.324,3.324,3.3441,3.3556,3.3556,3.4024,3.4272,3.4115,3.4406,3.4598,3.4437,3.4397,3.4592,3.4991,3.5467,3.6056,3.6897,3.772,3.8389,3.8775,3.9192,3.9388,3.9388,3.9388,3.9388,3.9388,3.9388,3.9553,3.9933,4.092,4.1587,0.0,0.0,0.0,0.0,0.0,1.5248,0.0,0.0,0.0,0.0,0.0,0.0,0.0,0.0,0.0,0.0,0.0,0.0,0.0,1.4385,0.0,1.3787,1.3942,1.4391,1.5126,1.551,1.5941,1.6438,1.6316,1.6541,1.732,1.7354,1.7672,1.8303,1.8337,1.8269,1.811,1.8494,1.9107,1.9965,2.0334,2.1,2.1807,2.1807,2.1807,2.1807,2.1807,2.1807,2.1807,2.1807,2.1807,2.189,2.2729,2.3111,2.3287,2.4073,2.4425,2.4497,2.4497,2.4497,2.4497,2.4497,2.4497,2.4497,2.4497,2.5221,2.6193,2.6905,2.7891,2.891,2.9624,3.0118,3.0457,3.0457,3.1198,3.1938,3.2081,3.26,3.3114,3.3416,3.3484,3.3526,3.3484,3.3641,3.3768,3.3768,3.3979,3.416,3.416,3.4314,3.4397,3.4397,3.4397,3.4758,3.5629,3.5856,3.657,3.8089,3.8352,3.8738,3.9373,3.9388,3.9388,3.9388,3.9388,3.9388,3.9388,3.9388,3.9753,4.0412,4.107,4.1767,0.0,0.0,0.0,0.0,1.7713,0.0,0.0,0.0,1.5052,1.444,0.0,0.0,0.0,0.0,0.0,0.0,0.0,0.0,1.4041,1.4676,1.5075,1.4792,1.4566,1.4726,1.5469,1.5889,1.651,1.7367,1.7152,1.7354,1.8303,1.8337,1.8371,1.8482,1.8482,1.8482,1.8448,1.9079,1.963,2.0175,2.0746,2.1311,2.1807,2.1807,2.1807,2.1807,2.1807,2.1807,2.1807,2.1807,2.1807,2.1859,2.2377,2.2822,2.3246,2.3764,2.4198,2.4497,2.4497,2.4497,2.4497,2.4497,2.4497,2.4497,2.4497,2.5642,2.6987,2.7069,2.8343,2.9675,2.9753,2.9842,2.988,2.988,3.0357,3.0962,3.1683,3.2269,3.2844,3.3538,3.3852,3.3937,3.3725,3.3894,3.4034,3.4034,3.423,3.4356,3.4356,3.4397,3.4397,3.4397,3.4397,3.4758,3.5629,3.6346,3.7179,3.8127,3.8885,3.9301,3.9388,3.9388,3.9388,3.9388,3.9388,3.9388,3.9388,3.9388,3.9753,4.0412,4.107,4.1767,0.0,0.0,0.0,0.0,0.0,0.0,1.7035,0.0,1.6104,0.0,0.0,0.0,0.0,0.0,0.0,0.0,1.4887,0.0,0.0,0.0,1.5361,0.0,0.0,0.0,1.5455,1.6217,1.6706,1.684,1.7494,1.8016,1.8266,1.8532,1.8674,1.8674,1.8674,1.8617,1.8516,1.89,1.9461,2.0211,2.053,2.1093,2.1807,2.1807,2.1807,2.1807,2.1807,2.1807,2.1807,2.1807,2.1807,2.1828,2.2025,2.2542,2.3246,2.3712,2.4157,2.4497,2.4497,2.4497,2.4497,2.4497,2.4497,2.4583,2.5105,2.6121,2.7232,2.7758,2.8831,2.9792,2.9792,2.9792,2.988,3.0193,3.0524,3.0945,3.1582,3.2304,3.2899,3.3325,3.3759,3.4118,3.4105,3.4189,3.4285,3.4285,3.4356,3.4397,3.4397,3.4397,3.4397,3.4397,3.4397,3.4937,3.6267,3.6699,3.7486,3.8811,3.9228,3.9388,3.9388,3.9388,3.9388,3.9388,3.9388,3.9388,3.9388,3.9388,3.9753,4.0412,4.107,4.1767,1.8919,0.0,0.0,0.0,0.0,0.0,0.0,0.0,0.0,0.0,0.0,0.0,0.0,0.0,0.0,0.0,0.0,1.5508,0.0,0.0,0.0,0.0,0.0,0.0,0.0,1.6033,1.6396,1.6397,1.7298,1.7945,1.8167,1.8506,1.8742,1.8875,1.8875,1.8808,1.8684,1.893,1.9459,2.0273,2.0483,2.1031,2.1807,2.1807,2.1807,2.1807,2.1807,2.1807,2.1807,2.1807,2.1807,2.1807,2.1807,2.2366,2.3225,2.3567,2.4043,2.4497,2.4497,2.4497,2.4497,2.4497,2.4658,2.4978,2.5621,2.6607,2.7637,2.8303,2.9131,2.9792,2.9792,2.983,2.997,3.0372,3.0605,3.0902,3.1502,3.2109,3.2656,3.3224,3.3654,3.4074,3.433,3.4397,3.4397,3.4397,3.4397,3.4397,3.4397,3.4397,3.4397,3.4397,3.4592,3.5332,3.6763,3.7127,3.7881,3.9301,3.9388,3.9388,3.9388,3.9388,3.9388,3.9388,3.9388,3.9388,3.9388,3.9388,3.9664,4.0142,4.0875,4.1678,0.0,0.0,0.0,1.9365,0.0,0.0,0.0,0.0,1.7852,0.0,0.0,0.0,0.0,0.0,0.0,0.0,0.0,0.0,0.0,0.0,0.0,0.0,0.0,0.0,0.0,1.5139,1.5413,1.6507,1.634,1.6831,1.8318,1.8392,1.8609,1.9088,1.9108,1.9108,1.9065,1.9554,1.9965,2.0395,2.085,2.1342,2.1807,2.1807,2.1807,2.1807,2.1807,2.1807,2.1807,2.1807,2.1807,2.1807,2.1807,2.2366,2.3184,2.3205,2.3774,2.4497,2.4497,2.4497,2.4497,2.4497,2.5062,2.5746,2.5788,2.7058,2.8462,2.8502,2.9131,2.9792,2.9792,2.9934,3.0088,3.01,3.0292,3.0624,3.1371,3.1539,3.1928,3.3325,3.36,3.3783,3.4306,3.4397,3.4397,3.4397,3.4397,3.4397,3.4397,3.4397,3.4397,3.4397,3.5155,3.6016,3.6841,3.7668,3.8501,3.9352,3.9388,3.9388,3.9388,3.9388,3.9388,3.9388,3.9388,3.9388,3.9388,3.9388,3.9388,3.9469,4.0332,4.143,0.0,0.0,1.9065,1.9248,0.0,0.0,0.0,0.0,0.0,0.0,0.0,0.0,0.0,0.0,0.0,0.0,0.0,0.0,0.0,0.0,0.0,0.0,0.0,0.0,0.0,0.0,0.0,1.6242,1.6728,1.7172,1.7471,1.805,1.8476,1.8642,1.8942,1.9108,1.9108,1.9564,1.9986,2.0395,2.0897,2.1362,2.1807,2.1807,2.1807,2.1807,2.1807,2.1807,2.1807,2.1807,2.1807,2.1807,2.1807,2.2366,2.3184,2.3184,2.3764,2.4497,2.4497,2.4497,2.4497,2.4497,2.5105,2.5913,2.6494,2.7516,2.8633,2.9209,2.9585,2.983,2.9972,3.0049,3.0113,3.0254,3.0457,3.0764,3.1384,3.1591,3.1941,3.2842,3.3326,3.3652,3.3835,3.4162,3.4397,3.4397,3.4397,3.4397,3.4397,3.4397,3.4397,3.4397,3.5196,3.6016,3.6841,3.8196,3.9119,3.9388,3.9388,3.9388,3.9388,3.9388,3.9388,3.9388,3.9388,3.9388,3.9388,3.9388,3.9388,3.9424,3.9973,4.0671,1.9814,1.9424,0.0,1.9258,1.876,0.0,1.8354,0.0,1.8008,0.0,0.0,0.0,0.0,0.0,0.0,0.0,0.0,0.0,0.0,1.5821,0.0,0.0,0.0,0.0,0.0,0.0,1.6088,1.6105,1.6655,1.7062,0.0,1.7833,1.8288,1.8652,1.8942,1.9108,1.9108,1.9564,1.9986,2.0395,2.0897,2.1362,2.1807,2.1807,2.1807,2.1807,2.1807,2.1807,2.1807,2.1807,2.1807,2.1828,2.1983,2.2511,2.3184,2.3184,2.3764,2.4497,2.4497,2.4497,2.454,2.4861,2.5547,2.6442,2.7354,2.8251,2.9079,2.9624,2.9869,2.9934,3.0075,3.019,3.0356,3.0495,3.0802,3.1149,3.1292,3.1564,3.1967,3.2581,3.2999,3.3404,3.3809,3.4162,3.4397,3.4397,3.4397,3.4397,3.4397,3.4397,3.4522,3.484,3.5615,3.6596,3.7677,3.8782,3.9388,3.9388,3.9388,3.9388,3.9388,3.9388,3.9634,4.0113,3.9649,3.9649,4.0113,3.9706,3.9517,3.9517,3.9925,4.0259]}]]